Darstellungsparameter: Aktuell verwendete Einstellungen:
Skalierung der Graphiken ... ?
xyx+y,   Skalierungsfaktor:      Skalierung: Modus: x, Faktor: 1
Darstellungszeitraum ... ?
Vom - - bis: - -   Zeitraum: 01.04.2015 - 31.03.2020
Min/Max/Avg-Anzeige ... ?
Zeige MMA aktuell
Zeige MMA Monat
Zeige MMA alles
Zeige --A aktuell
Zeige --A Monat
Zeige --A alles
Keine MMA-Anzeige
MMA:
Average (ber die Originaldaten)
MMA-Basis: 01.04.2015 - 31.03.2020
Quicknavigation für Darstellung... ?
Tage:      1T, 2T, 3T, 5T -1T -2T -3T -5T +1T +2T +3T +5T
Wochen: 1W, 2W, 3W -1W -2W -3W +1W +2W +3W
Monate: 1M, 3M, 6M -1M -3M -6M +1M +3M +6M
Jahre:    1J, 3J, 5J, 10J -1J -3J -5J -10J +1J +3J +5J +10J
Nutze für die Darstellung ... ?
Originaldaten oder ...
Mittelwerte Minima Maxima auf...
Stundenbasis Tagesbasis Wochenbasis
Monatsbasis Jahresbasis      Datenbasis: Mittelwerte auf Tagesbasis
Darstellen als:
Statistik (Auto) Statistik J:M      Darstellung:
Zur Graphik,    zurück zur Übersicht aller Sensoren.
 
Tabellarische Datenbersicht: ?
 
Sensor: Nr:Datum:Temp:Feuchte:
Aussen-T/F 1 01-04-2015 00:00:00 5.7575 C 57.7667 %
2 02-04-2015 00:00:00 5.965 C 61.6500 %
3 03-04-2015 00:00:00 5.47917 C 60.3083 %
4 04-04-2015 00:00:00 5.84833 C 65.1583 %
5 05-04-2015 00:00:00 4.70167 C 58.9667 %
6 06-04-2015 00:00:00 5.09667 C 62.3833 %
7 07-04-2015 00:00:00 5.6075 C 66.7833 %
8 08-04-2015 00:00:00 8.03333 C 65.2833 %
9 09-04-2015 00:00:00 10.68333 C 66.2667 %
10 10-04-2015 00:00:00 12.5975 C 58.8333 %
11 11-04-2015 00:00:00 12.1425 C 55.4250 %
12 12-04-2015 00:00:00 11.29917 C 58.6333 %
13 13-04-2015 00:00:00 11.2925 C 53.8667 %
14 14-04-2015 00:00:00 13.26667 C 54.8333 %
15 15-04-2015 00:00:00 16.03583 C 52.5500 %
16 16-04-2015 00:00:00 14.85667 C 54.9750 %
17 17-04-2015 00:00:00 11.28 C 53.7833 %
18 18-04-2015 00:00:00 8.30333 C 53.1250 %
19 19-04-2015 00:00:00 9.43083 C 51.3583 %
20 20-04-2015 00:00:00 11.8275 C 49.4500 %
21 21-04-2015 00:00:00 13.27833 C 49.4167 %
22 22-04-2015 00:00:00 10.60917 C 54.1250 %
23 23-04-2015 00:00:00 10.63083 C 58.6417 %
24 24-04-2015 00:00:00 13.17667 C 52.5417 %
25 25-04-2015 00:00:00 12.9125 C 66.3667 %
Sensor: Nr:Datum:Temp:Feuchte:
Aussen-T/F 26 26-04-2015 00:00:00 15.42667 C 65.8083 %
27 27-04-2015 00:00:00 10.30417 C 87.7167 %
28 28-04-2015 00:00:00 8.89333 C 63.8833 %
29 29-04-2015 00:00:00 8.29083 C 62.8750 %
30 30-04-2015 00:00:00 9.585 C 68.6333 %
31 01-05-2015 00:00:00 8.0975 C 73.7083 %
32 02-05-2015 00:00:00 9.81083 C 66.7417 %
33 03-05-2015 00:00:00 13.81833 C 78.0667 %
34 04-05-2015 00:00:00 16.06417 C 72.1250 %
35 05-05-2015 00:00:00 18.12917 C 62.4750 %
36 06-05-2015 00:00:00 13.25833 C 57.6083 %
37 07-05-2015 00:00:00 13.39 C 52.4500 %
38 08-05-2015 00:00:00 14.455 C 53.7000 %
39 09-05-2015 00:00:00 15.36583 C 62.0667 %
40 10-05-2015 00:00:00 14.795 C 62.0917 %
41 11-05-2015 00:00:00 17.42583 C 57.7500 %
42 12-05-2015 00:00:00 17.955 C 59.3167 %
43 13-05-2015 00:00:00 14.00083 C 55.4667 %
44 14-05-2015 00:00:00 13.93833 C 58.5750 %
45 15-05-2015 00:00:00 15.25583 C 63.9333 %
46 16-05-2015 00:00:00 12.21167 C 62.2833 %
47 17-05-2015 00:00:00 14.40083 C 55.0333 %
48 18-05-2015 00:00:00 15.42833 C 52.3583 %
49 19-05-2015 00:00:00 13.43277 C 49.9160 %
50 20-05-2015 00:00:00 11.94083 C 55.4083 %
Sensor: Nr:Datum:Temp:Feuchte:
Aussen-T/F 51 21-05-2015 00:00:00 11.78 C 56.4083 %
52 22-05-2015 00:00:00 15.78583 C 47.5667 %
53 23-05-2015 00:00:00 16.27917 C 52.1083 %
54 24-05-2015 00:00:00 17.4275 C 57.6750 %
55 25-05-2015 00:00:00 13.7775 C 75.4667 %
56 26-05-2015 00:00:00 11.96333 C 58.6000 %
57 27-05-2015 00:00:00 12.29333 C 53.7917 %
58 28-05-2015 00:00:00 14.33917 C 53.4000 %
59 29-05-2015 00:00:00 13.34417 C 59.1167 %
60 30-05-2015 00:00:00 12.57583 C 59.2667 %
61 31-05-2015 00:00:00 14.7625 C 58.4500 %
62 01-06-2015 00:00:00 15.34667 C 64.0000 %
63 02-06-2015 00:00:00 17.45167 C 60.0000 %
64 03-06-2015 00:00:00 18.26417 C 53.1417 %
65 04-06-2015 00:00:00 19.22 C 49.2167 %
66 05-06-2015 00:00:00 23.11167 C 51.2333 %
67 06-06-2015 00:00:00 20.8725 C 60.6750 %
68 07-06-2015 00:00:00 18.5075 C 45.7667 %
69 08-06-2015 00:00:00 16.31333 C 46.7083 %
70 09-06-2015 00:00:00 15.34083 C 43.8833 %
71 10-06-2015 00:00:00 17.59417 C 47.5417 %
72 11-06-2015 00:00:00 20.22167 C 43.8250 %
73 12-06-2015 00:00:00 19.73167 C 62.0667 %
74 13-06-2015 00:00:00 19.42333 C 70.8167 %
75 14-06-2015 00:00:00 19.36333 C 56.1083 %
Sensor: Nr:Datum:Temp:Feuchte:
Aussen-T/F 76 15-06-2015 00:00:00 18.30667 C 55.0333 %
77 16-06-2015 00:00:00 16.365 C 45.2083 %
78 17-06-2015 00:00:00 16.1175 C 49.9583 %
79 18-06-2015 00:00:00 17.6175 C 59.4333 %
80 19-06-2015 00:00:00 12.8725 C 67.0250 %
81 20-06-2015 00:00:00 13.48333 C 66.2250 %
82 21-06-2015 00:00:00 15.8562 C 67.7025 %
83 22-06-2015 00:00:00 12.87 C 76.3000 %
84 23-06-2015 00:00:00 11.54917 C 84.2667 %
85 24-06-2015 00:00:00 15.69333 C 64.0667 %
86 25-06-2015 00:00:00 18.91333 C 58.4917 %
87 26-06-2015 00:00:00 19.88167 C 59.7083 %
88 27-06-2015 00:00:00 20.10862 C 61.3448 %
89 28-06-2015 00:00:00 18.18333 C 57.8250 %
90 29-06-2015 00:00:00 22.07 C 49.5167 %
91 30-06-2015 00:00:00 22.66333 C 50.9083 %
92 01-07-2015 00:00:00 25.10083 C 48.9333 %
93 02-07-2015 00:00:00 27.395 C 48.2250 %
94 03-07-2015 00:00:00 27.8825 C 47.1750 %
95 04-07-2015 00:00:00 28.28667 C 49.8167 %
96 05-07-2015 00:00:00 27.28 C 47.5083 %
97 06-07-2015 00:00:00 22.0075 C 56.0833 %
98 07-07-2015 00:00:00 22.37583 C 51.2500 %
99 08-07-2015 00:00:00 17.825 C 55.9333 %
100 09-07-2015 00:00:00 17.09917 C 50.3417 %
Sensor: Nr:Datum:Temp:Feuchte:
Aussen-T/F 101 10-07-2015 00:00:00 17.43417 C 47.0417 %
102 11-07-2015 00:00:00 21.45167 C 42.0333 %
103 12-07-2015 00:00:00 18.76167 C 56.9083 %
104 13-07-2015 00:00:00 17.3875 C 71.7500 %
105 14-07-2015 00:00:00 20.77083 C 57.6583 %
106 15-07-2015 00:00:00 21.76333 C 57.2167 %
107 16-07-2015 00:00:00 24.265 C 54.6750 %
108 17-07-2015 00:00:00 28.4475 C 37.8417 %
109 18-07-2015 00:00:00 24.14833 C 42.5417 %
110 19-07-2015 00:00:00 20.34667 C 63.1167 %
111 20-07-2015 00:00:00 21.0825 C 72.4167 %
112 21-07-2015 00:00:00 24.695 C 58.8083 %
113 22-07-2015 00:00:00 23.58083 C 55.3333 %
114 23-07-2015 00:00:00 20.82917 C 45.8417 %
115 24-07-2015 00:00:00 21.54 C 51.6667 %
116 25-07-2015 00:00:00 17.33667 C 64.7667 %
117 26-07-2015 00:00:00 15.33782 C 62.9412 %
118 27-07-2015 00:00:00 17.56583 C 67.1833 %
119 28-07-2015 00:00:00 17.15417 C 47.7833 %
120 29-07-2015 00:00:00 16.69 C 46.4167 %
121 30-07-2015 00:00:00 13.83583 C 60.6417 %
122 31-07-2015 00:00:00 16.04333 C 56.5167 %
123 01-08-2015 00:00:00 19.1175 C 44.3917 %
124 02-08-2015 00:00:00 20.51583 C 47.2333 %
125 03-08-2015 00:00:00 23.50333 C 44.3083 %
Sensor: Nr:Datum:Temp:Feuchte:
Aussen-T/F 126 04-08-2015 00:00:00 19.1575 C 64.7917 %
127 05-08-2015 00:00:00 20.32667 C 60.8500 %
128 06-08-2015 00:00:00 24.22667 C 51.2917 %
129 07-08-2015 00:00:00 26.84583 C 43.1000 %
130 08-08-2015 00:00:00 23.22583 C 56.8250 %
131 09-08-2015 00:00:00 22.54 C 54.8750 %
132 10-08-2015 00:00:00 20.13583 C 63.9667 %
133 11-08-2015 00:00:00 22.12917 C 54.1167 %
134 12-08-2015 00:00:00 23.5925 C 55.8667 %
135 13-08-2015 00:00:00 25.41083 C 52.2583 %
136 14-08-2015 00:00:00 24.8725 C 48.6583 %
137 15-08-2015 00:00:00 21.19667 C 51.7000 %
138 16-08-2015 00:00:00 15.85333 C 76.6667 %
139 17-08-2015 00:00:00 14.77917 C 76.5750 %
140 18-08-2015 00:00:00 15.985 C 67.1167 %
141 19-08-2015 00:00:00 15.55667 C 62.6583 %
142 20-08-2015 00:00:00 17.8975 C 56.5500 %
143 21-08-2015 00:00:00 18.76 C 55.2583 %
144 22-08-2015 00:00:00 18.9875 C 50.1583 %
145 23-08-2015 00:00:00 19.48417 C 48.7167 %
146 24-08-2015 00:00:00 19.7175 C 67.7583 %
147 25-08-2015 00:00:00 17.94583 C 48.2417 %
148 26-08-2015 00:00:00 19.86833 C 48.8500 %
149 27-08-2015 00:00:00 18.44167 C 67.6167 %
150 28-08-2015 00:00:00 17.17167 C 72.7583 %
Sensor: Nr:Datum:Temp:Feuchte:
Aussen-T/F 151 29-08-2015 00:00:00 20.18333 C 69.6583 %
152 30-08-2015 00:00:00 23.21917 C 66.6083 %
153 31-08-2015 00:00:00 24.31417 C 55.9917 %
154 01-09-2015 00:00:00 17.54 C 77.1833 %
155 02-09-2015 00:00:00 15.07917 C 71.6750 %
156 03-09-2015 00:00:00 14.1425 C 71.6833 %
157 04-09-2015 00:00:00 13.65917 C 64.6833 %
158 05-09-2015 00:00:00 13.05583 C 69.7417 %
159 06-09-2015 00:00:00 13.10917 C 56.4833 %
160 07-09-2015 00:00:00 13.455 C 71.1750 %
161 08-09-2015 00:00:00 15.4175 C 67.9250 %
162 09-09-2015 00:00:00 15.76167 C 57.9417 %
163 10-09-2015 00:00:00 12.94833 C 61.4583 %
164 11-09-2015 00:00:00 13.1675 C 62.5833 %
165 12-09-2015 00:00:00 15.18667 C 66.6583 %
166 13-09-2015 00:00:00 16.93167 C 79.4833 %
167 14-09-2015 00:00:00 15.35833 C 80.5417 %
168 15-09-2015 00:00:00 13.065 C 73.8583 %
169 16-09-2015 00:00:00 14.7 C 83.4250 %
170 17-09-2015 00:00:00 14.20833 C 80.5000 %
171 18-09-2015 00:00:00 14.38667 C 73.0167 %
172 19-09-2015 00:00:00 14.08917 C 73.5250 %
173 20-09-2015 00:00:00 13.44417 C 70.9167 %
174 21-09-2015 00:00:00 12.42583 C 74.5917 %
175 22-09-2015 00:00:00 12.75833 C 80.1333 %
Sensor: Nr:Datum:Temp:Feuchte:
Aussen-T/F 176 23-09-2015 00:00:00 11.50667 C 85.6250 %
177 24-09-2015 00:00:00 13.10833 C 79.6333 %
178 25-09-2015 00:00:00 13.78333 C 71.6917 %
179 26-09-2015 00:00:00 12.60917 C 72.9083 %
180 27-09-2015 00:00:00 11.13167 C 71.3417 %
181 28-09-2015 00:00:00 10.20667 C 70.9417 %
182 29-09-2015 00:00:00 10.215 C 70.4167 %
183 30-09-2015 00:00:00 10.06583 C 66.1000 %
184 01-10-2015 00:00:00 9.29917 C 61.2667 %
185 02-10-2015 00:00:00 8.59917 C 74.0083 %
186 03-10-2015 00:00:00 10.44917 C 75.1833 %
187 04-10-2015 00:00:00 12.28417 C 78.5750 %
188 05-10-2015 00:00:00 11.84583 C 79.5750 %
189 06-10-2015 00:00:00 15.80167 C 83.4417 %
190 07-10-2015 00:00:00 14.7 C 74.2167 %
191 08-10-2015 00:00:00 13.32333 C 68.8000 %
192 09-10-2015 00:00:00 12.07083 C 80.7417 %
193 10-10-2015 00:00:00 12.105 C 72.4833 %
194 11-10-2015 00:00:00 7.89833 C 59.4083 %
195 12-10-2015 00:00:00 4.42167 C 68.4750 %
196 13-10-2015 00:00:00 3.95167 C 78.6917 %
197 14-10-2015 00:00:00 3.28417 C 89.8583 %
198 15-10-2015 00:00:00 3.80417 C 90.4250 %
199 16-10-2015 00:00:00 6.35 C 81.6917 %
200 17-10-2015 00:00:00 6.735 C 73.5833 %
Sensor: Nr:Datum:Temp:Feuchte:
Aussen-T/F 201 18-10-2015 00:00:00 7.18 C 77.1667 %
202 19-10-2015 00:00:00 8.16667 C 76.7333 %
203 20-10-2015 00:00:00 9.0175 C 82.7417 %
204 21-10-2015 00:00:00 9.47 C 80.4667 %
205 22-10-2015 00:00:00 10.8575 C 70.3000 %
206 23-10-2015 00:00:00 9.86917 C 85.9750 %
207 24-10-2015 00:00:00 10.69583 C 72.8083 %
208 25-10-2015 00:00:00 11.2568 C 79.4000 %
209 26-10-2015 00:00:00 8.69667 C 85.5250 %
210 27-10-2015 00:00:00 8.0525 C 82.0167 %
211 28-10-2015 00:00:00 9.38917 C 72.9917 %
212 29-10-2015 00:00:00 9.7475 C 80.2750 %
213 30-10-2015 00:00:00 7.32333 C 86.3250 %
214 31-10-2015 00:00:00 6.77583 C 83.6250 %
215 01-11-2015 00:00:00 6.29 C 87.0333 %
216 02-11-2015 00:00:00 4.25083 C 91.1250 %
217 03-11-2015 00:00:00 4.7125 C 84.8500 %
218 04-11-2015 00:00:00 7.2225 C 83.8667 %
219 05-11-2015 00:00:00 9.55417 C 87.5250 %
220 06-11-2015 00:00:00 12.8575 C 78.4333 %
221 07-11-2015 00:00:00 15.96833 C 79.7667 %
222 08-11-2015 00:00:00 12.09333 C 87.1417 %
223 09-11-2015 00:00:00 14.4975 C 61.9250 %
224 10-11-2015 00:00:00 12.95167 C 58.9500 %
225 11-11-2015 00:00:00 11.47167 C 60.8250 %
Sensor: Nr:Datum:Temp:Feuchte:
Aussen-T/F 226 12-11-2015 00:00:00 11.10833 C 67.1417 %
227 13-11-2015 00:00:00 10.18 C 68.2667 %
228 14-11-2015 00:00:00 8.45667 C 58.9833 %
229 15-11-2015 00:00:00 12.26417 C 57.5667 %
230 16-11-2015 00:00:00 11.36917 C 57.1750 %
231 17-11-2015 00:00:00 13.67167 C 66.9000 %
232 18-11-2015 00:00:00 13.59083 C 45.0667 %
233 19-11-2015 00:00:00 11.8225 C 65.8333 %
234 20-11-2015 00:00:00 7.22083 C 84.0833 %
235 21-11-2015 00:00:00 3.41917 C 75.5000 %
236 22-11-2015 00:00:00 2.13833 C 82.4667 %
237 23-11-2015 00:00:00 1.88 C 76.4500 %
238 24-11-2015 00:00:00 1.28583 C 77.3333 %
239 25-11-2015 00:00:00 4.00833 C 74.3167 %
240 26-11-2015 00:00:00 4.22333 C 78.5917 %
241 27-11-2015 00:00:00 1.90417 C 82.8750 %
242 28-11-2015 00:00:00 3.72167 C 64.4917 %
243 29-11-2015 00:00:00 8.60917 C 59.6500 %
244 30-11-2015 00:00:00 9.42083 C 70.1917 %
245 01-12-2015 00:00:00 10.81583 C 72.9000 %
246 02-12-2015 00:00:00 9.32917 C 63.8917 %
247 03-12-2015 00:00:00 6.91 C 65.0667 %
248 04-12-2015 00:00:00 6.15833 C 77.1333 %
249 05-12-2015 00:00:00 5.30417 C 71.3500 %
250 06-12-2015 00:00:00 7.65083 C 65.3750 %
Sensor: Nr:Datum:Temp:Feuchte:
Aussen-T/F 251 07-12-2015 00:00:00 7.24333 C 79.5333 %
252 08-12-2015 00:00:00 3.85333 C 92.6417 %
253 09-12-2015 00:00:00 5.81417 C 86.4083 %
254 10-12-2015 00:00:00 2.24167 C 82.4000 %
255 11-12-2015 00:00:00 4.06583 C 76.6167 %
256 12-12-2015 00:00:00 7.5325 C 83.2833 %
257 13-12-2015 00:00:00 8.14 C 69.1250 %
258 14-12-2015 00:00:00 5.15417 C 90.8417 %
259 15-12-2015 00:00:00 4.89833 C 89.1833 %
260 16-12-2015 00:00:00 9.15083 C 89.9750 %
261 17-12-2015 00:00:00 11.63417 C 75.1167 %
262 18-12-2015 00:00:00 10.56667 C 76.0500 %
263 19-12-2015 00:00:00 10.50417 C 68.5583 %
264 20-12-2015 00:00:00 7.115 C 88.6750 %
265 21-12-2015 00:00:00 9.43583 C 63.8417 %
266 22-12-2015 00:00:00 11.1725 C 48.5000 %
267 23-12-2015 00:00:00 9.01167 C 57.9417 %
268 24-12-2015 00:00:00 8.45833 C 72.2833 %
269 25-12-2015 00:00:00 10.48417 C 60.2500 %
270 26-12-2015 00:00:00 9.345 C 61.1667 %
271 27-12-2015 00:00:00 6.45333 C 76.4917 %
272 28-12-2015 00:00:00 2.05083 C 89.9000 %
273 29-12-2015 00:00:00 2.285 C 91.8750 %
274 30-12-2015 00:00:00 3.93417 C 81.2500 %
275 31-12-2015 00:00:00 4.05417 C 73.4333 %
Sensor: Nr:Datum:Temp:Feuchte:
Aussen-T/F 276 01-01-2016 00:00:00 3.65167 C 83.7833 %
277 02-01-2016 00:00:00 3.92083 C 70.8833 %
278 03-01-2016 00:00:00 4.92917 C 64.7583 %
279 04-01-2016 00:00:00 4.6675 C 74.2000 %
280 05-01-2016 00:00:00 5.86833 C 64.5917 %
281 06-01-2016 00:00:00 5.34667 C 76.1417 %
282 07-01-2016 00:00:00 4.32417 C 76.2500 %
283 08-01-2016 00:00:00 2.07833 C 65.9667 %
284 09-01-2016 00:00:00 0.6125 C 88.5167 %
285 10-01-2016 00:00:00 5.36218 C 74.0840 %
286 11-01-2016 00:00:00 4.41333 C 78.4417 %
287 12-01-2016 00:00:00 4.76167 C 54.9417 %
288 13-01-2016 00:00:00 4.1675 C 55.5500 %
289 14-01-2016 00:00:00 2.565 C 55.8250 %
290 15-01-2016 00:00:00 2.09667 C 60.7500 %
291 16-01-2016 00:00:00 1.19 C 66.6250 %
292 17-01-2016 00:00:00 -0.53083 C 48.5583 %
293 18-01-2016 00:00:00 -5.885 C 57.7333 %
294 19-01-2016 00:00:00 -6.08333 C 53.1500 %
295 20-01-2016 00:00:00 -2.2525 C 57.0583 %
296 21-01-2016 00:00:00 -0.195 C 66.5583 %
297 22-01-2016 00:00:00 -3.03833 C 60.6333 %
298 23-01-2016 00:00:00 3.43583 C 67.1417 %
299 24-01-2016 00:00:00 4.5925 C 67.4167 %
300 25-01-2016 00:00:00 6.55917 C 65.2583 %
Sensor: Nr:Datum:Temp:Feuchte:
Aussen-T/F 301 26-01-2016 00:00:00 8.70083 C 45.6583 %
302 27-01-2016 00:00:00 10.98917 C 31.4833 %
303 28-01-2016 00:00:00 6.53417 C 55.1333 %
304 29-01-2016 00:00:00 4.86917 C 53.8667 %
305 30-01-2016 00:00:00 6.82167 C 49.3750 %
306 31-01-2016 00:00:00 5.65333 C 53.5417 %
307 01-02-2016 00:00:00 11.48583 C 43.6167 %
308 02-02-2016 00:00:00 10.0775 C 46.2083 %
309 03-02-2016 00:00:00 4.48833 C 46.5167 %
310 04-02-2016 00:00:00 3.8175 C 58.8833 %
311 05-02-2016 00:00:00 6.95917 C 59.9667 %
312 06-02-2016 00:00:00 7.20083 C 56.1333 %
313 07-02-2016 00:00:00 8.2525 C 37.4667 %
314 08-02-2016 00:00:00 7.405 C 40.7250 %
315 09-02-2016 00:00:00 6.3125 C 48.5500 %
316 10-02-2016 00:00:00 4.2375 C 44.8083 %
317 11-02-2016 00:00:00 4.22833 C 49.3500 %
318 12-02-2016 00:00:00 2.40917 C 49.6917 %
319 13-02-2016 00:00:00 0.93917 C 68.9833 %
320 14-02-2016 00:00:00 4.075 C 74.4500 %
321 15-02-2016 00:00:00 1.52083 C 58.3750 %
322 16-02-2016 00:00:00 -0.7275 C 42.6083 %
323 17-02-2016 00:00:00 -0.33333 C 53.4250 %
324 18-02-2016 00:00:00 1.44583 C 49.3833 %
325 19-02-2016 00:00:00 0.79417 C 58.8333 %
Sensor: Nr:Datum:Temp:Feuchte:
Aussen-T/F 326 20-02-2016 00:00:00 5.52417 C 63.4000 %
327 21-02-2016 00:00:00 11.48417 C 44.6750 %
328 22-02-2016 00:00:00 9.25167 C 42.6667 %
329 23-02-2016 00:00:00 1.70083 C 74.3167 %
330 24-02-2016 00:00:00 1.25 C 67.2667 %
331 25-02-2016 00:00:00 0.10917 C 60.8667 %
332 26-02-2016 00:00:00 1.8675 C 47.5667 %
333 27-02-2016 00:00:00 1.35083 C 40.6333 %
334 28-02-2016 00:00:00 1.14833 C 40.8167 %
335 29-02-2016 00:00:00 2.51 C 31.5917 %
336 01-03-2016 00:00:00 0.29417 C 46.5000 %
337 02-03-2016 00:00:00 5.84 C 42.0250 %
338 03-03-2016 00:00:00 3.0875 C 47.3000 %
339 04-03-2016 00:00:00 1.0725 C 69.0667 %
340 05-03-2016 00:00:00 4.1 C 62.7917 %
341 06-03-2016 00:00:00 2.515 C 59.7833 %
342 07-03-2016 00:00:00 1.795 C 65.8667 %
343 08-03-2016 00:00:00 1.35667 C 59.3500 %
344 09-03-2016 00:00:00 1.89667 C 45.6500 %
345 10-03-2016 00:00:00 2.14917 C 47.1250 %
346 11-03-2016 00:00:00 3.7425 C 45.0833 %
347 12-03-2016 00:00:00 3.90583 C 30.9667 %
348 13-03-2016 00:00:00 4.57167 C 31.1833 %
349 14-03-2016 00:00:00 3.825 C 30.8417 %
350 15-03-2016 00:00:00 2.91833 C 38.5833 %
Sensor: Nr:Datum:Temp:Feuchte:
Aussen-T/F 351 16-03-2016 00:00:00 4.03667 C 32.4833 %
352 17-03-2016 00:00:00 3.92083 C 39.7500 %
353 18-03-2016 00:00:00 4.26833 C 40.0000 %
354 19-03-2016 00:00:00 5.375 C 40.8000 %
355 20-03-2016 00:00:00 5.61917 C 31.5500 %
356 21-03-2016 00:00:00 6.80333 C 40.1750 %
357 22-03-2016 00:00:00 7.90167 C 33.8500 %
358 23-03-2016 00:00:00 7.75 C 36.0500 %
359 24-03-2016 00:00:00 6.74417 C 40.9500 %
360 25-03-2016 00:00:00 6.3375 C 53.9250 %
361 26-03-2016 00:00:00 8.95333 C 46.6167 %
362 27-03-2016 00:00:00 9.04783 C 40.2957 %
363 28-03-2016 00:00:00 7.90667 C 40.1750 %
364 29-03-2016 00:00:00 9.055 C 31.4333 %
365 30-03-2016 00:00:00 9.75 C 41.6917 %
366 31-03-2016 00:00:00 6.63583 C 56.8333 %
367 01-04-2016 00:00:00 6.93083 C 50.1417 %
368 02-04-2016 00:00:00 8.0475 C 51.6750 %
369 03-04-2016 00:00:00 13.42583 C 38.0667 %
370 04-04-2016 00:00:00 13.64583 C 46.2083 %
371 05-04-2016 00:00:00 10.9925 C 55.3417 %
372 06-04-2016 00:00:00 10.6875 C 44.1083 %
373 07-04-2016 00:00:00 8.1575 C 34.2667 %
374 08-04-2016 00:00:00 5.99083 C 43.5583 %
375 09-04-2016 00:00:00 7.77083 C 41.4333 %
Sensor: Nr:Datum:Temp:Feuchte:
Aussen-T/F 376 10-04-2016 00:00:00 11.51583 C 29.2333 %
377 11-04-2016 00:00:00 11.9225 C 31.8917 %
378 12-04-2016 00:00:00 10.91917 C 41.5500 %
379 13-04-2016 00:00:00 8.84833 C 59.7333 %
380 14-04-2016 00:00:00 11.13 C 45.5583 %
381 15-04-2016 00:00:00 13.36 C 32.9000 %
382 16-04-2016 00:00:00 11.87917 C 35.3083 %
383 17-04-2016 00:00:00 9.01167 C 40.1167 %
384 18-04-2016 00:00:00 7.2325 C 38.2167 %
385 19-04-2016 00:00:00 8.9975 C 25.7167 %
386 20-04-2016 00:00:00 9.22 C 32.0333 %
387 21-04-2016 00:00:00 11.33083 C 29.5500 %
388 22-04-2016 00:00:00 13.95583 C 21.0667 %
389 23-04-2016 00:00:00 8.31083 C 30.3000 %
390 24-04-2016 00:00:00 5.44 C 28.0917 %
391 25-04-2016 00:00:00 4.0775 C 43.0917 %
392 26-04-2016 00:00:00 4.38 C 39.0417 %
393 27-04-2016 00:00:00 5.32667 C 23.8250 %
394 28-04-2016 00:00:00 6.70333 C 30.5583 %
395 29-04-2016 00:00:00 7.80583 C 30.1000 %
396 30-04-2016 00:00:00 7.91583 C 30.9333 %
397 01-05-2016 00:00:00 10.01083 C 35.3833 %
398 02-05-2016 00:00:00 10.51083 C 42.4750 %
399 03-05-2016 00:00:00 11.25917 C 31.6333 %
400 04-05-2016 00:00:00 9.2375 C 32.9917 %
Sensor: Nr:Datum:Temp:Feuchte:
Aussen-T/F 401 05-05-2016 00:00:00 11.535 C 29.8083 %
402 06-05-2016 00:00:00 15.30667 C 31.8167 %
403 07-05-2016 00:00:00 17.3 C 30.4750 %
404 08-05-2016 00:00:00 18.64833 C 20.2833 %
405 09-05-2016 00:00:00 18.325 C 21.9833 %
406 10-05-2016 00:00:00 17.15833 C 26.3000 %
407 11-05-2016 00:00:00 17.9975 C 38.7333 %
408 12-05-2016 00:00:00 18.35667 C 21.6500 %
409 13-05-2016 00:00:00 14.43917 C 42.0583 %
410 14-05-2016 00:00:00 10.66167 C 30.2500 %
411 15-05-2016 00:00:00 9.19333 C 21.1750 %
412 16-05-2016 00:00:00 10.65167 C 22.1667 %
413 17-05-2016 00:00:00 13.08417 C 23.7167 %
414 18-05-2016 00:00:00 15.07 C 26.4167 %
415 19-05-2016 00:00:00 14.705 C 31.9083 %
416 20-05-2016 00:00:00 14.36917 C 27.7333 %
417 21-05-2016 00:00:00 18.82083 C 30.1667 %
418 22-05-2016 00:00:00 19.6125 C 26.3750 %
419 23-05-2016 00:00:00 14.36417 C 28.3667 %
420 24-05-2016 00:00:00 11.07083 C 39.1667 %
421 25-05-2016 00:00:00 13.16083 C 39.4917 %
422 26-05-2016 00:00:00 15.82333 C 37.5500 %
423 27-05-2016 00:00:00 17.00333 C 47.2000 %
424 28-05-2016 00:00:00 17.40167 C 48.0833 %
425 29-05-2016 00:00:00 18.06417 C 41.2500 %
Sensor: Nr:Datum:Temp:Feuchte:
Aussen-T/F 426 30-05-2016 00:00:00 17.56333 C 48.6833 %
427 31-05-2016 00:00:00 16.76452 C 37.3387 %
428 01-06-2016 00:00:00 15.94792 C 43.6458 %
429 02-06-2016 00:00:00 17.97014 C 45.8819 %
430 03-06-2016 00:00:00 16.98542 C 47.4514 %
431 04-06-2016 00:00:00 18.03125 C 41.6979 %
432 05-06-2016 00:00:00 19.83507 C 41.0556 %
433 06-06-2016 00:00:00 19.82222 C 34.2014 %
434 07-06-2016 00:00:00 21.12847 C 28.7604 %
435 08-06-2016 00:00:00 20.43993 C 25.7188 %
436 09-06-2016 00:00:00 18.36771 C 23.1875 %
437 10-06-2016 00:00:00 18.63125 C 23.3715 %
438 11-06-2016 00:00:00 18.52465 C 22.4410 %
439 12-06-2016 00:00:00 17.77604 C 31.9792 %
440 13-06-2016 00:00:00 15.89306 C 47.6493 %
441 14-06-2016 00:00:00 16.98229 C 36.8542 %
442 15-06-2016 00:00:00 15.80937 C 33.7951 %
443 16-06-2016 00:00:00 14.31493 C 43.6597 %
444 17-06-2016 00:00:00 14.91493 C 39.4757 %
445 18-06-2016 00:00:00 15.14896 C 40.0104 %
446 19-06-2016 00:00:00 16.51979 C 24.7535 %
447 20-06-2016 00:00:00 11.56903 C 28.5044 %
448 21-06-2016 00:00:00 18.65833 C 35.7667 %
449 22-06-2016 00:00:00 21.28833 C 37.0667 %
450 23-06-2016 00:00:00 24.72417 C 30.6083 %
Sensor: Nr:Datum:Temp:Feuchte:
Aussen-T/F 451 24-06-2016 00:00:00 22.49417 C 33.0667 %
452 25-06-2016 00:00:00 16.69 C 56.2917 %
453 26-06-2016 00:00:00 15.84 C 41.2917 %
454 27-06-2016 00:00:00 16.38083 C 29.8417 %
455 28-06-2016 00:00:00 18.94333 C 36.5667 %
456 29-06-2016 00:00:00 19.7075 C 23.8250 %
457 30-06-2016 00:00:00 19.33333 C 24.7167 %
458 01-07-2016 00:00:00 20.47833 C 25.5250 %
459 02-07-2016 00:00:00 17.3875 C 25.1167 %
460 03-07-2016 00:00:00 15.7475 C 25.1667 %
461 04-07-2016 00:00:00 18.435 C 26.2833 %
462 05-07-2016 00:00:00 19.94667 C 23.7917 %
463 06-07-2016 00:00:00 17.5575 C 24.4167 %
464 07-07-2016 00:00:00 17.9175 C 26.9333 %
465 08-07-2016 00:00:00 19.34833 C 26.2250 %
466 09-07-2016 00:00:00 21.7525 C 22.1750 %
467 10-07-2016 00:00:00 22.6725 C 26.1833 %
468 11-07-2016 00:00:00 22.19583 C 23.5083 %
469 12-07-2016 00:00:00 19.9525 C 24.3500 %
470 13-07-2016 00:00:00 15.24 C 37.0917 %
471 14-07-2016 00:00:00 15.65 C 34.8167 %
472 15-07-2016 00:00:00 16.855 C 23.0750 %
473 16-07-2016 00:00:00 17.50333 C 26.4917 %
474 17-07-2016 00:00:00 21.88917 C 26.5250 %
475 18-07-2016 00:00:00 22.8375 C 27.4083 %
Sensor: Nr:Datum:Temp:Feuchte:
Aussen-T/F 476 19-07-2016 00:00:00 22.66917 C 25.7000 %
477 20-07-2016 00:00:00 24.1625 C 25.4250 %
478 21-07-2016 00:00:00 21.46167 C 33.7500 %
479 22-07-2016 00:00:00 21.44167 C 39.8500 %
480 23-07-2016 00:00:00 20.57167 C 37.5917 %
481 24-07-2016 00:00:00 22.89083 C 37.5500 %
482 25-07-2016 00:00:00 22.56417 C 25.9000 %
483 26-07-2016 00:00:00 20.86333 C 26.3667 %
484 27-07-2016 00:00:00 20.36667 C 26.3583 %
485 28-07-2016 00:00:00 21.32 C 23.3917 %
486 29-07-2016 00:00:00 20.3725 C 27.6167 %
487 30-07-2016 00:00:00 21.31667 C 25.1000 %
488 31-07-2016 00:00:00 19.395 C 24.8500 %
489 01-08-2016 00:00:00 17.6775 C 27.5167 %
490 02-08-2016 00:00:00 16.10333 C 37.3833 %
491 03-08-2016 00:00:00 18.46667 C 38.4083 %
492 04-08-2016 00:00:00 17.91417 C 46.6333 %
493 05-08-2016 00:00:00 16.71833 C 33.8500 %
494 06-08-2016 00:00:00 18.14583 C 31.5833 %
495 07-08-2016 00:00:00 19.73 C 30.8917 %
496 08-08-2016 00:00:00 19.59083 C 23.6917 %
497 09-08-2016 00:00:00 17.05833 C 22.3000 %
498 10-08-2016 00:00:00 13.89917 C 26.0167 %
499 11-08-2016 00:00:00 12.59832 C 32.7059 %
500 12-08-2016 00:00:00 17.455 C 33.2250 %
Sensor: Nr:Datum:Temp:Feuchte:
Aussen-T/F 501 13-08-2016 00:00:00 21.15833 C 31.2167 %
502 14-08-2016 00:00:00 19.95 C 30.1750 %
503 15-08-2016 00:00:00 19.69667 C 27.2250 %
504 16-08-2016 00:00:00 18.98167 C 26.7333 %
505 17-08-2016 00:00:00 18.93333 C 25.7417 %
506 18-08-2016 00:00:00 17.52 C 26.5500 %
507 19-08-2016 00:00:00 19.7325 C 28.2667 %
508 20-08-2016 00:00:00 19.64167 C 27.2333 %
509 21-08-2016 00:00:00 17.60333 C 26.8583 %
510 22-08-2016 00:00:00 17.8025 C 27.1750 %
511 23-08-2016 00:00:00 19.51 C 30.9333 %
512 24-08-2016 00:00:00 20.755 C 28.3583 %
513 25-08-2016 00:00:00 21.70333 C 28.8500 %
514 26-08-2016 00:00:00 22.62333 C 27.2417 %
515 27-08-2016 00:00:00 24.03 C 28.2583 %
516 28-08-2016 00:00:00 23.51417 C 25.0417 %
517 29-08-2016 00:00:00 19.5725 C 24.0250 %
518 30-08-2016 00:00:00 18.9625 C 29.8667 %
519 31-08-2016 00:00:00 18.09833 C 24.6000 %
520 01-09-2016 00:00:00 19.885 C 25.6167 %
521 02-09-2016 00:00:00 18.95833 C 28.4750 %
522 03-09-2016 00:00:00 21.2725 C 24.6250 %
523 04-09-2016 00:00:00 18.2375 C 25.8750 %
524 05-09-2016 00:00:00 18.54917 C 25.8167 %
525 06-09-2016 00:00:00 16.93333 C 34.4917 %
Sensor: Nr:Datum:Temp:Feuchte:
Aussen-T/F 526 07-09-2016 00:00:00 17.405 C 33.5750 %
527 08-09-2016 00:00:00 19.405 C 32.5083 %
528 09-09-2016 00:00:00 20.46333 C 21.3833 %
529 10-09-2016 00:00:00 19.22583 C 28.1083 %
530 11-09-2016 00:00:00 19.21667 C 26.7417 %
531 12-09-2016 00:00:00 19.5625 C 29.1333 %
532 13-09-2016 00:00:00 21.00833 C 29.4083 %
533 14-09-2016 00:00:00 20.675 C 27.7083 %
534 15-09-2016 00:00:00 19.8875 C 25.4083 %
535 16-09-2016 00:00:00 17.43917 C 39.9167 %
536 17-09-2016 00:00:00 15.91333 C 35.6083 %
537 18-09-2016 00:00:00 17.29167 C 42.7083 %
538 19-09-2016 00:00:00 15.64833 C 27.5250 %
539 20-09-2016 00:00:00 15.07833 C 30.5000 %
540 21-09-2016 00:00:00 13.86667 C 27.4167 %
541 22-09-2016 00:00:00 11.25083 C 34.2583 %
542 23-09-2016 00:00:00 13.09417 C 32.6000 %
543 24-09-2016 00:00:00 13.36667 C 40.9167 %
544 25-09-2016 00:00:00 13.76917 C 38.9417 %
545 26-09-2016 00:00:00 14.44333 C 39.0333 %
546 27-09-2016 00:00:00 13.11333 C 52.0083 %
547 28-09-2016 00:00:00 15.245 C 38.0583 %
548 29-09-2016 00:00:00 18.65167 C 25.3417 %
549 30-09-2016 00:00:00 15.06167 C 29.6500 %
550 01-10-2016 00:00:00 13.58917 C 51.5333 %
Sensor: Nr:Datum:Temp:Feuchte:
Aussen-T/F 551 02-10-2016 00:00:00 12.33333 C 43.2667 %
552 03-10-2016 00:00:00 12.23083 C 37.2000 %
553 04-10-2016 00:00:00 11.06833 C 47.8083 %
554 05-10-2016 00:00:00 8.02083 C 40.7917 %
555 06-10-2016 00:00:00 7.89917 C 32.8250 %
556 07-10-2016 00:00:00 10.76917 C 41.6833 %
557 08-10-2016 00:00:00 9.0625 C 53.2250 %
558 09-10-2016 00:00:00 8.21917 C 43.8417 %
559 10-10-2016 00:00:00 6.4375 C 44.8333 %
560 11-10-2016 00:00:00 7.66667 C 44.1250 %
561 12-10-2016 00:00:00 8.5225 C 34.6417 %
562 13-10-2016 00:00:00 7.0825 C 42.1917 %
563 14-10-2016 00:00:00 9.04333 C 34.3583 %
564 15-10-2016 00:00:00 10.78083 C 44.4417 %
565 16-10-2016 00:00:00 8.045 C 54.9250 %
566 17-10-2016 00:00:00 10.0225 C 63.0667 %
567 18-10-2016 00:00:00 10.67917 C 47.8917 %
568 19-10-2016 00:00:00 8.77083 C 33.0917 %
569 20-10-2016 00:00:00 7.5975 C 52.8000 %
570 21-10-2016 00:00:00 7.21667 C 51.6083 %
571 22-10-2016 00:00:00 7.28167 C 49.5250 %
572 23-10-2016 00:00:00 6.66083 C 50.6500 %
573 24-10-2016 00:00:00 8.92167 C 63.3000 %
574 25-10-2016 00:00:00 11.005 C 51.3333 %
575 26-10-2016 00:00:00 8.985 C 42.9167 %
Sensor: Nr:Datum:Temp:Feuchte:
Aussen-T/F 576 27-10-2016 00:00:00 8.2675 C 50.5250 %
577 28-10-2016 00:00:00 11.03667 C 37.9750 %
578 29-10-2016 00:00:00 11.12583 C 38.1417 %
579 30-10-2016 00:00:00 7.1712 C 54.7680 %
580 31-10-2016 00:00:00 6.11333 C 61.1167 %
581 01-11-2016 00:00:00 6.55083 C 60.1167 %
582 02-11-2016 00:00:00 6.48667 C 37.7417 %
583 03-11-2016 00:00:00 5.62917 C 36.2750 %
584 04-11-2016 00:00:00 4.18583 C 57.1667 %
585 05-11-2016 00:00:00 6.1875 C 59.2417 %
586 06-11-2016 00:00:00 4.91833 C 30.0917 %
587 07-11-2016 00:00:00 3.88333 C 40.0667 %
588 08-11-2016 00:00:00 2.37583 C 46.3750 %
589 09-11-2016 00:00:00 2.99583 C 53.2667 %
590 10-11-2016 00:00:00 4.55333 C 50.0000 %
591 11-11-2016 00:00:00 4.3825 C 59.9250 %
592 12-11-2016 00:00:00 1.26417 C 47.5333 %
593 13-11-2016 00:00:00 1.32333 C 37.8333 %
594 14-11-2016 00:00:00 -1.67833 C 46.0917 %
595 15-11-2016 00:00:00 3.8725 C 39.5000 %
596 16-11-2016 00:00:00 9.1725 C 50.0750 %
597 17-11-2016 00:00:00 10.28167 C 32.9917 %
598 18-11-2016 00:00:00 8.59583 C 26.5250 %
599 19-11-2016 00:00:00 4.45417 C 39.7333 %
600 20-11-2016 00:00:00 8.31583 C 26.6583 %
Sensor: Nr:Datum:Temp:Feuchte:
Aussen-T/F 601 21-11-2016 00:00:00 9.31917 C 45.5333 %
602 22-11-2016 00:00:00 9.50167 C 52.0583 %
603 23-11-2016 00:00:00 7.95417 C 67.0083 %
604 24-11-2016 00:00:00 7.5675 C 53.7583 %
605 25-11-2016 00:00:00 7.12917 C 22.5167 %
606 26-11-2016 00:00:00 6.3675 C 25.9417 %
607 27-11-2016 00:00:00 4.2 C 40.8667 %
608 28-11-2016 00:00:00 -1.0125 C 46.3583 %
609 29-11-2016 00:00:00 -4.42 C 35.8000 %
610 30-11-2016 00:00:00 -4.23833 C 36.9833 %
611 01-12-2016 00:00:00 2.62667 C 21.5583 %
612 02-12-2016 00:00:00 4.245 C 43.0250 %
613 03-12-2016 00:00:00 -0.60083 C 60.1250 %
614 04-12-2016 00:00:00 -3.84417 C 47.8167 %
615 05-12-2016 00:00:00 -5.46833 C 44.0333 %
616 06-12-2016 00:00:00 -4.63417 C 45.9417 %
617 07-12-2016 00:00:00 -1.23 C 55.7333 %
618 08-12-2016 00:00:00 -0.39583 C 54.6667 %
619 09-12-2016 00:00:00 5.92583 C 21.0417 %
620 10-12-2016 00:00:00 3.77833 C 40.4750 %
621 11-12-2016 00:00:00 7.3925 C 25.0750 %
622 12-12-2016 00:00:00 5.93583 C 39.9833 %
623 13-12-2016 00:00:00 3.34583 C 65.2250 %
624 14-12-2016 00:00:00 5.935 C 48.1167 %
625 15-12-2016 00:00:00 6.37417 C 39.5917 %
Sensor: Nr:Datum:Temp:Feuchte:
Aussen-T/F 626 16-12-2016 00:00:00 4.1375 C 22.6833 %
627 17-12-2016 00:00:00 3.35083 C 34.1750 %
628 18-12-2016 00:00:00 4.61167 C 41.6167 %
629 19-12-2016 00:00:00 3.69083 C 40.5917 %
630 20-12-2016 00:00:00 -0.2625 C 40.4500 %
631 21-12-2016 00:00:00 1.50833 C 37.0917 %
632 22-12-2016 00:00:00 3.135 C 42.5833 %
633 23-12-2016 00:00:00 3.4975 C 50.4417 %
634 24-12-2016 00:00:00 6.43833 C 23.7750 %
635 25-12-2016 00:00:00 7.98083 C 27.9917 %
636 26-12-2016 00:00:00 6.85083 C 28.5167 %
637 27-12-2016 00:00:00 3.36083 C 31.3417 %
638 28-12-2016 00:00:00 2.765 C 32.3750 %
639 29-12-2016 00:00:00 -2.31583 C 49.4333 %
640 30-12-2016 00:00:00 -2.7975 C 45.7583 %
641 31-12-2016 00:00:00 -4.97167 C 40.1167 %
642 01-01-2017 00:00:00 -2.645 C 37.8583 %
643 02-01-2017 00:00:00 -0.26417 C 43.1250 %
644 03-01-2017 00:00:00 0.27717 C 59.5652 %
645 04-01-2017 00:00:00 2.4725 C 33.8417 %
646 05-01-2017 00:00:00 -1.62667 C 32.9833 %
647 06-01-2017 00:00:00 -8.04417 C 33.4250 %
648 07-01-2017 00:00:00 -5.00833 C 28.8833 %
649 08-01-2017 00:00:00 -0.27333 C 48.8667 %
650 09-01-2017 00:00:00 1.305 C 49.9167 %
Sensor: Nr:Datum:Temp:Feuchte:
Aussen-T/F 651 10-01-2017 00:00:00 0.33833 C 54.5917 %
652 11-01-2017 00:00:00 2.7675 C 49.3083 %
653 12-01-2017 00:00:00 3.39 C 26.6583 %
654 13-01-2017 00:00:00 1.16833 C 32.4417 %
655 14-01-2017 00:00:00 1.5625 C 26.2083 %
656 15-01-2017 00:00:00 -0.2875 C 38.9417 %
657 16-01-2017 00:00:00 -2.95333 C 40.8917 %
658 17-01-2017 00:00:00 -5.14333 C 33.6917 %
659 18-01-2017 00:00:00 -7.12917 C 33.7333 %
660 19-01-2017 00:00:00 -8.02917 C 34.5500 %
661 20-01-2017 00:00:00 -8.47167 C 31.5833 %
662 21-01-2017 00:00:00 -7.91167 C 34.8083 %
663 22-01-2017 00:00:00 -9.46417 C 33.6583 %
664 23-01-2017 00:00:00 -6.45667 C 35.5667 %
665 24-01-2017 00:00:00 -1.59917 C 36.1417 %
666 25-01-2017 00:00:00 -2.06134 C 21.1008 %
667 26-01-2017 00:00:00 -3.27167 C 23.9917 %
668 27-01-2017 00:00:00 -4.87833 C 33.7583 %
669 28-01-2017 00:00:00 -3.13417 C 35.4000 %
670 29-01-2017 00:00:00 1.74917 C 38.4417 %
671 30-01-2017 00:00:00 3.64583 C 50.8083 %
672 31-01-2017 00:00:00 2.45083 C 33.8167 %
673 01-02-2017 00:00:00 2.82417 C 29.1583 %
674 02-02-2017 00:00:00 3.84417 C 50.3250 %
675 03-02-2017 00:00:00 4.79833 C 53.5417 %
Sensor: Nr:Datum:Temp:Feuchte:
Aussen-T/F 676 04-02-2017 00:00:00 4.85833 C 34.5500 %
677 05-02-2017 00:00:00 3.81333 C 37.2333 %
678 06-02-2017 00:00:00 2.905 C 39.3000 %
679 07-02-2017 00:00:00 3.68333 C 32.7000 %
680 08-02-2017 00:00:00 2.47583 C 26.7500 %
681 09-02-2017 00:00:00 -0.87083 C 28.4083 %
682 10-02-2017 00:00:00 0.07583 C 21.2250 %
683 11-02-2017 00:00:00 1.1675 C 39.9583 %
684 12-02-2017 00:00:00 1.77167 C 49.6917 %
685 13-02-2017 00:00:00 2.44917 C 24.7083 %
686 14-02-2017 00:00:00 0.02083 C 31.7250 %
687 15-02-2017 00:00:00 0.65333 C 38.4083 %
688 16-02-2017 00:00:00 2.98583 C 54.9000 %
689 17-02-2017 00:00:00 5.05167 C 53.0917 %
690 18-02-2017 00:00:00 5.56917 C 38.1000 %
691 19-02-2017 00:00:00 2.74417 C 39.9417 %
692 20-02-2017 00:00:00 7.83667 C 30.5667 %
693 21-02-2017 00:00:00 9.77417 C 33.2917 %
694 22-02-2017 00:00:00 10.86167 C 22.7083 %
695 23-02-2017 00:00:00 8.95167 C 22.1250 %
696 24-02-2017 00:00:00 4.4525 C 26.0917 %
697 25-02-2017 00:00:00 3.06333 C 34.4667 %
698 26-02-2017 00:00:00 8.2025 C 22.5667 %
699 27-02-2017 00:00:00 10.56417 C 22.7417 %
700 28-02-2017 00:00:00 5.03667 C 25.5167 %
Sensor: Nr:Datum:Temp:Feuchte:
Aussen-T/F 701 01-03-2017 00:00:00 6.07333 C 27.2250 %
702 02-03-2017 00:00:00 7.615 C 21.8417 %
703 03-03-2017 00:00:00 5.64417 C 27.7417 %
704 04-03-2017 00:00:00 10.41667 C 24.1750 %
705 05-03-2017 00:00:00 6.48667 C 29.1917 %
706 06-03-2017 00:00:00 5.80083 C 30.7583 %
707 07-03-2017 00:00:00 5.375 C 37.1500 %
708 08-03-2017 00:00:00 4.1425 C 57.5333 %
709 09-03-2017 00:00:00 10.71 C 40.6917 %
710 10-03-2017 00:00:00 7.1775 C 21.1917 %
711 11-03-2017 00:00:00 5.8775 C 29.0333 %
712 12-03-2017 00:00:00 5.82167 C 27.9833 %
713 13-03-2017 00:00:00 5.775 C 26.7667 %
714 14-03-2017 00:00:00 8.80333 C 26.7000 %
715 15-03-2017 00:00:00 10.8 C 22.7333 %
716 16-03-2017 00:00:00 7.71667 C 32.6833 %
717 17-03-2017 00:00:00 8.33917 C 22.4167 %
718 18-03-2017 00:00:00 8.97583 C 28.3167 %
719 19-03-2017 00:00:00 12.0025 C 29.0167 %
720 20-03-2017 00:00:00 11.53917 C 20.0000 %
721 21-03-2017 00:00:00 8.86 C 25.1667 %
722 22-03-2017 00:00:00 5.1675 C 32.8583 %
723 23-03-2017 00:00:00 8.915 C 31.3000 %
724 24-03-2017 00:00:00 9.54583 C 23.0250 %
725 25-03-2017 00:00:00 9.54417 C 26.8417 %
Sensor: Nr:Datum:Temp:Feuchte:
Aussen-T/F 726 26-03-2017 00:00:00 9.08696 C 20.0000 %
727 27-03-2017 00:00:00 8.34583 C 26.6083 %
728 28-03-2017 00:00:00 9.97417 C 22.6583 %
729 29-03-2017 00:00:00 12.77833 C 22.9417 %
730 30-03-2017 00:00:00 14.22417 C 22.9833 %
731 31-03-2017 00:00:00 13.35333 C 29.3000 %
732 01-04-2017 00:00:00 13.83417 C 20.9000 %
733 02-04-2017 00:00:00 11.94167 C 24.9167 %
734 03-04-2017 00:00:00 10.62 C 26.7750 %
735 04-04-2017 00:00:00 9.20333 C 28.3417 %
736 05-04-2017 00:00:00 8.82333 C 22.4667 %
737 06-04-2017 00:00:00 9.21083 C 20.3667 %
738 07-04-2017 00:00:00 10.40583 C 23.0667 %
739 08-04-2017 00:00:00 13.42167 C 20.0917 %
740 09-04-2017 00:00:00 12.59 C 28.2250 %
741 10-04-2017 00:00:00 10.98833 C 23.4333 %
742 11-04-2017 00:00:00 10.6675 C 20.0000 %
743 12-04-2017 00:00:00 11.54667 C 20.0083 %
744 13-04-2017 00:00:00 12.27417 C 20.7667 %
745 14-04-2017 00:00:00 10.30417 C 22.3083 %
746 15-04-2017 00:00:00 8.6675 C 21.4500 %
747 16-04-2017 00:00:00 7.34417 C 23.7417 %
748 17-04-2017 00:00:00 6.805 C 28.0667 %
749 18-04-2017 00:00:00 5.69667 C 20.6333 %
750 19-04-2017 00:00:00 4.65667 C 28.3500 %
Sensor: Nr:Datum:Temp:Feuchte:
Aussen-T/F 751 20-04-2017 00:00:00 6.6825 C 23.4667 %
752 21-04-2017 00:00:00 8.16917 C 22.1500 %
753 22-04-2017 00:00:00 9.88 C 20.0000 %
754 23-04-2017 00:00:00 7.65 C 20.5333 %
755 24-04-2017 00:00:00 6.5875 C 27.3250 %
756 25-04-2017 00:00:00 7.13193 C 20.0000 %
757 26-04-2017 00:00:00 7.62583 C 20.1500 %
758 27-04-2017 00:00:00 7.74917 C 23.9083 %
759 28-04-2017 00:00:00 6.26083 C 27.3167 %
760 29-04-2017 00:00:00 9.68667 C 30.5750 %
761 30-04-2017 00:00:00 11.3975 C 20.0000 %
762 01-05-2017 00:00:00 9.75083 C 27.4250 %
763 02-05-2017 00:00:00 8.5825 C 45.3500 %
764 03-05-2017 00:00:00 10.7175 C 39.5000 %
765 04-05-2017 00:00:00 11.94833 C 30.7750 %
766 05-05-2017 00:00:00 12.685 C 23.2667 %
767 06-05-2017 00:00:00 13.30333 C 33.1667 %
768 07-05-2017 00:00:00 12.8375 C 37.3083 %
769 08-05-2017 00:00:00 9.69083 C 26.5500 %
770 09-05-2017 00:00:00 11.87667 C 24.9000 %
771 10-05-2017 00:00:00 11.33833 C 26.9167 %
772 11-05-2017 00:00:00 14.63833 C 25.1750 %
773 12-05-2017 00:00:00 16.395 C 30.7500 %
774 13-05-2017 00:00:00 18.05917 C 28.5167 %
775 14-05-2017 00:00:00 16.575 C 24.9333 %
Sensor: Nr:Datum:Temp:Feuchte:
Aussen-T/F 776 15-05-2017 00:00:00 16.65 C 33.9583 %
777 16-05-2017 00:00:00 20.58167 C 20.0000 %
778 17-05-2017 00:00:00 21.33 C 20.8417 %
779 18-05-2017 00:00:00 18.02917 C 26.7583 %
780 19-05-2017 00:00:00 13.17667 C 46.5833 %
781 20-05-2017 00:00:00 12.655 C 37.4083 %
782 21-05-2017 00:00:00 14.64917 C 29.2750 %
783 22-05-2017 00:00:00 17.3675 C 27.8667 %
784 23-05-2017 00:00:00 19.65167 C 23.7417 %
785 24-05-2017 00:00:00 17.405 C 20.4000 %
786 25-05-2017 00:00:00 20.29 C 21.8917 %
787 26-05-2017 00:00:00 19.73833 C 24.5250 %
788 27-05-2017 00:00:00 22.6075 C 24.8667 %
789 28-05-2017 00:00:00 21.81583 C 24.8250 %
790 29-05-2017 00:00:00 24.57833 C 34.4500 %
791 30-05-2017 00:00:00 22.94833 C 21.0500 %
792 31-05-2017 00:00:00 20.15917 C 21.0333 %
793 01-06-2017 00:00:00 20.24833 C 23.6500 %
794 02-06-2017 00:00:00 19.48083 C 25.5083 %
795 03-06-2017 00:00:00 19.46417 C 36.0000 %
796 04-06-2017 00:00:00 16.96583 C 37.9333 %
797 05-06-2017 00:00:00 17.975 C 34.7083 %
798 06-06-2017 00:00:00 16.04667 C 23.7250 %
799 07-06-2017 00:00:00 14.48333 C 20.5500 %
800 08-06-2017 00:00:00 19.25 C 21.2917 %
Sensor: Nr:Datum:Temp:Feuchte:
Aussen-T/F 801 09-06-2017 00:00:00 18.0925 C 23.5250 %
802 10-06-2017 00:00:00 19.44 C 25.5417 %
803 11-06-2017 00:00:00 21.575 C 23.5750 %
804 12-06-2017 00:00:00 22.1675 C 20.1333 %
805 13-06-2017 00:00:00 19.81833 C 20.2667 %
806 14-06-2017 00:00:00 20.985 C 24.1917 %
807 15-06-2017 00:00:00 22.28333 C 21.9500 %
808 16-06-2017 00:00:00 20.18667 C 20.0000 %
809 17-06-2017 00:00:00 18.07917 C 20.4667 %
810 18-06-2017 00:00:00 23.58667 C 21.1333 %
811 19-06-2017 00:00:00 24.0825 C 23.3000 %
812 20-06-2017 00:00:00 25.57083 C 21.0333 %
813 21-06-2017 00:00:00 27.36167 C 20.0000 %
814 22-06-2017 00:00:00 24.04083 C 25.6833 %
815 23-06-2017 00:00:00 23.645 C 21.6583 %
816 24-06-2017 00:00:00 21.56417 C 21.1667 %
817 25-06-2017 00:00:00 20.95 C 20.0000 %
818 26-06-2017 00:00:00 23.18333 C 20.0000 %
819 27-06-2017 00:00:00 19.20417 C 25.8000 %
820 28-06-2017 00:00:00 20.19167 C 37.8250 %
821 29-06-2017 00:00:00 18.5125 C 27.5083 %
822 30-06-2017 00:00:00 18.34833 C 22.5167 %
823 01-07-2017 00:00:00 16.22083 C 30.4250 %
824 02-07-2017 00:00:00 16.92 C 32.0250 %
825 03-07-2017 00:00:00 18.83333 C 27.3833 %
Sensor: Nr:Datum:Temp:Feuchte:
Aussen-T/F 826 04-07-2017 00:00:00 21.9375 C 21.4833 %
827 05-07-2017 00:00:00 23.425 C 23.6833 %
828 06-07-2017 00:00:00 22.78417 C 24.7917 %
829 07-07-2017 00:00:00 24.54667 C 34.9667 %
830 08-07-2017 00:00:00 24.04167 C 22.1750 %
831 09-07-2017 00:00:00 23.87667 C 21.6750 %
832 10-07-2017 00:00:00 19.995 C 36.4250 %
833 11-07-2017 00:00:00 19.97417 C 25.9167 %
834 12-07-2017 00:00:00 17.8025 C 27.7583 %
835 13-07-2017 00:00:00 17.10583 C 27.2083 %
836 14-07-2017 00:00:00 16.94333 C 24.9917 %
837 15-07-2017 00:00:00 17.56583 C 24.2833 %
838 16-07-2017 00:00:00 19.83833 C 21.7500 %
839 17-07-2017 00:00:00 22.11583 C 25.7917 %
840 18-07-2017 00:00:00 23.18917 C 26.1500 %
841 19-07-2017 00:00:00 24.29083 C 22.7083 %
842 20-07-2017 00:00:00 22.56083 C 28.0583 %
843 21-07-2017 00:00:00 21.25917 C 21.7417 %
844 22-07-2017 00:00:00 22.86083 C 31.7667 %
845 23-07-2017 00:00:00 19.16417 C 32.9917 %
846 24-07-2017 00:00:00 15.17 C 34.9083 %
847 25-07-2017 00:00:00 14.17917 C 53.8250 %
848 26-07-2017 00:00:00 17.7925 C 34.8833 %
849 27-07-2017 00:00:00 19.165 C 34.9917 %
850 28-07-2017 00:00:00 17.4625 C 30.7500 %
Sensor: Nr:Datum:Temp:Feuchte:
Aussen-T/F 851 29-07-2017 00:00:00 20.93333 C 25.8500 %
852 30-07-2017 00:00:00 23.44917 C 24.9833 %
853 31-07-2017 00:00:00 21.3325 C 25.8250 %
854 01-08-2017 00:00:00 20.18333 C 47.5000 %
855 02-08-2017 00:00:00 22.01833 C 35.3417 %
856 03-08-2017 00:00:00 21.82833 C 28.1250 %
857 04-08-2017 00:00:00 21.0775 C 24.1917 %
858 05-08-2017 00:00:00 19.94833 C 23.8417 %
859 06-08-2017 00:00:00 18.32583 C 25.1000 %
860 07-08-2017 00:00:00 17.93417 C 26.7083 %
861 08-08-2017 00:00:00 17.9375 C 27.5583 %
862 09-08-2017 00:00:00 18.1525 C 23.5583 %
863 10-08-2017 00:00:00 15.35 C 47.5833 %
864 11-08-2017 00:00:00 14.705 C 51.5167 %
865 12-08-2017 00:00:00 15.305 C 40.2750 %
866 13-08-2017 00:00:00 18.60917 C 28.7333 %
867 14-08-2017 00:00:00 18.56167 C 33.7917 %
868 15-08-2017 00:00:00 18.83833 C 38.5333 %
869 16-08-2017 00:00:00 19.97167 C 37.3917 %
870 17-08-2017 00:00:00 19.57167 C 33.3667 %
871 18-08-2017 00:00:00 18.17417 C 43.5167 %
872 19-08-2017 00:00:00 14.47417 C 43.3667 %
873 20-08-2017 00:00:00 14.925 C 30.8417 %
874 21-08-2017 00:00:00 16.3575 C 28.8917 %
875 22-08-2017 00:00:00 16.08833 C 31.8500 %
Sensor: Nr:Datum:Temp:Feuchte:
Aussen-T/F 876 23-08-2017 00:00:00 17.92583 C 30.8917 %
877 24-08-2017 00:00:00 19.9075 C 26.1917 %
878 25-08-2017 00:00:00 18.30833 C 37.3750 %
879 26-08-2017 00:00:00 20.88833 C 44.3167 %
880 27-08-2017 00:00:00 19.63083 C 34.5250 %
881 28-08-2017 00:00:00 19.4775 C 30.1667 %
882 29-08-2017 00:00:00 20.03667 C 34.9500 %
883 30-08-2017 00:00:00 20.91167 C 31.6750 %
884 31-08-2017 00:00:00 17.32857 C 27.5210 %
885 01-09-2017 00:00:00 14.1 C 34.5083 %
886 02-09-2017 00:00:00 14.51417 C 34.0667 %
887 03-09-2017 00:00:00 12.90417 C 31.6750 %
888 04-09-2017 00:00:00 13.94167 C 34.8750 %
889 05-09-2017 00:00:00 17.87 C 36.6833 %
890 06-09-2017 00:00:00 17.47083 C 25.8083 %
891 07-09-2017 00:00:00 15.90083 C 21.1083 %
892 08-09-2017 00:00:00 15.99583 C 20.6583 %
893 09-09-2017 00:00:00 14.54 C 39.9417 %
894 10-09-2017 00:00:00 13.27583 C 43.1833 %
895 11-09-2017 00:00:00 14.27083 C 26.4083 %
896 12-09-2017 00:00:00 14.32583 C 26.1417 %
897 13-09-2017 00:00:00 13.965 C 38.8333 %
898 14-09-2017 00:00:00 11.75417 C 39.2750 %
899 15-09-2017 00:00:00 12.5175 C 33.8750 %
900 16-09-2017 00:00:00 10.11333 C 40.9500 %
Sensor: Nr:Datum:Temp:Feuchte:
Aussen-T/F 901 17-09-2017 00:00:00 9.67 C 51.4833 %
902 18-09-2017 00:00:00 10.46 C 46.2417 %
903 19-09-2017 00:00:00 11.76 C 32.8500 %
904 20-09-2017 00:00:00 11.29583 C 42.5167 %
905 21-09-2017 00:00:00 10.49 C 44.7417 %
906 22-09-2017 00:00:00 11.12417 C 43.8917 %
907 23-09-2017 00:00:00 13.495 C 40.1917 %
908 24-09-2017 00:00:00 12.475 C 44.1417 %
909 25-09-2017 00:00:00 12.56583 C 44.0250 %
910 26-09-2017 00:00:00 13.27167 C 41.8333 %
911 27-09-2017 00:00:00 13.05083 C 43.9333 %
912 28-09-2017 00:00:00 14.64667 C 44.6000 %
913 29-09-2017 00:00:00 17.38667 C 38.5083 %
914 30-09-2017 00:00:00 14.205 C 48.5667 %
915 01-10-2017 00:00:00 10.23667 C 56.3000 %
916 02-10-2017 00:00:00 13.38833 C 43.6167 %
917 03-10-2017 00:00:00 12.20667 C 42.3667 %
918 04-10-2017 00:00:00 11.05583 C 31.0333 %
919 05-10-2017 00:00:00 12.92833 C 21.9667 %
920 06-10-2017 00:00:00 9.4 C 33.6250 %
921 07-10-2017 00:00:00 9.55083 C 31.6583 %
922 08-10-2017 00:00:00 11.81833 C 41.5417 %
923 09-10-2017 00:00:00 10.9925 C 47.1583 %
924 10-10-2017 00:00:00 12.88917 C 31.8167 %
925 11-10-2017 00:00:00 13.19167 C 31.2083 %
Sensor: Nr:Datum:Temp:Feuchte:
Aussen-T/F 926 12-10-2017 00:00:00 13.13667 C 36.6500 %
927 13-10-2017 00:00:00 13.9275 C 38.7583 %
928 14-10-2017 00:00:00 12.47167 C 50.0167 %
929 15-10-2017 00:00:00 11.94833 C 54.6750 %
930 16-10-2017 00:00:00 12.63333 C 51.4833 %
931 17-10-2017 00:00:00 12.20667 C 52.4250 %
932 18-10-2017 00:00:00 11.85333 C 50.4167 %
933 19-10-2017 00:00:00 11.0025 C 50.7750 %
934 20-10-2017 00:00:00 11.63697 C 37.7479 %
935 21-10-2017 00:00:00 11.28083 C 38.1917 %
936 22-10-2017 00:00:00 10.28417 C 24.4167 %
937 23-10-2017 00:00:00 10.42417 C 23.7667 %
938 24-10-2017 00:00:00 12.76333 C 33.7917 %
939 25-10-2017 00:00:00 15.1425 C 27.6500 %
940 26-10-2017 00:00:00 13.17917 C 29.2667 %
941 27-10-2017 00:00:00 10.80833 C 33.6167 %
942 28-10-2017 00:00:00 10.09833 C 24.5250 %
943 29-10-2017 00:00:00 10.1184 C 26.6160 %
944 30-10-2017 00:00:00 6.43917 C 30.2667 %
945 31-10-2017 00:00:00 7.06917 C 27.1250 %
946 01-11-2017 00:00:00 7.99917 C 24.8000 %
947 02-11-2017 00:00:00 7.76917 C 32.9583 %
948 03-11-2017 00:00:00 6.735 C 45.5833 %
949 04-11-2017 00:00:00 7.89167 C 53.2917 %
950 05-11-2017 00:00:00 8.26167 C 46.6500 %
Sensor: Nr:Datum:Temp:Feuchte:
Aussen-T/F 951 06-11-2017 00:00:00 5.14 C 33.5917 %
952 07-11-2017 00:00:00 4.24333 C 45.0833 %
953 08-11-2017 00:00:00 6.0575 C 55.0333 %
954 09-11-2017 00:00:00 7.38917 C 46.1583 %
955 10-11-2017 00:00:00 6.65917 C 26.9667 %
956 11-11-2017 00:00:00 5.63583 C 40.7000 %
957 12-11-2017 00:00:00 3.91583 C 58.4500 %
958 13-11-2017 00:00:00 4.73833 C 41.6917 %
959 14-11-2017 00:00:00 3.73417 C 47.8500 %
960 15-11-2017 00:00:00 6.5375 C 27.1083 %
961 16-11-2017 00:00:00 4.27833 C 39.8500 %
962 17-11-2017 00:00:00 5.2975 C 48.8250 %
963 18-11-2017 00:00:00 2.87083 C 39.8833 %
964 19-11-2017 00:00:00 4.78583 C 32.4167 %
965 20-11-2017 00:00:00 4.46917 C 31.8667 %
966 21-11-2017 00:00:00 8.65667 C 28.5833 %
967 22-11-2017 00:00:00 7.285 C 30.5250 %
968 23-11-2017 00:00:00 8.5175 C 46.0583 %
969 24-11-2017 00:00:00 9.68 C 41.3083 %
970 25-11-2017 00:00:00 4.5475 C 53.6583 %
971 26-11-2017 00:00:00 2.92583 C 28.8917 %
972 27-11-2017 00:00:00 4.8625 C 21.2917 %
973 28-11-2017 00:00:00 3.22667 C 51.1000 %
974 29-11-2017 00:00:00 2.265 C 55.6667 %
975 30-11-2017 00:00:00 1.60417 C 52.1417 %
Sensor: Nr:Datum:Temp:Feuchte:
Aussen-T/F 976 01-12-2017 00:00:00 -0.2175 C 65.1167 %
977 02-12-2017 00:00:00 0.44833 C 41.3833 %
978 03-12-2017 00:00:00 -0.00667 C 31.2250 %
979 04-12-2017 00:00:00 2.29 C 46.3167 %
980 05-12-2017 00:00:00 3.6025 C 38.3333 %
981 06-12-2017 00:00:00 5.19833 C 24.6583 %
982 07-12-2017 00:00:00 4.21333 C 22.9083 %
983 08-12-2017 00:00:00 2.61083 C 31.9250 %
984 09-12-2017 00:00:00 0.24417 C 20.0083 %
985 10-12-2017 00:00:00 1.39167 C 28.5667 %
986 11-12-2017 00:00:00 4.91083 C 48.9333 %
987 12-12-2017 00:00:00 2.8125 C 21.0417 %
988 13-12-2017 00:00:00 2.70083 C 32.0833 %
989 14-12-2017 00:00:00 3.58417 C 33.7083 %
990 15-12-2017 00:00:00 2.05167 C 59.1500 %
991 16-12-2017 00:00:00 2.14667 C 54.8167 %
992 17-12-2017 00:00:00 2.22583 C 28.7000 %
993 18-12-2017 00:00:00 0.71333 C 56.1333 %
994 19-12-2017 00:00:00 2.67 C 67.9667 %
995 20-12-2017 00:00:00 4.95083 C 67.4833 %
996 21-12-2017 00:00:00 6.82667 C 61.0083 %
997 22-12-2017 00:00:00 8.10417 C 67.4917 %
998 23-12-2017 00:00:00 8.1975 C 39.8417 %
999 24-12-2017 00:00:00 8.37583 C 20.1083 %
1000 25-12-2017 00:00:00 6.34167 C 20.0583 %
Sensor: Nr:Datum:Temp:Feuchte:
Aussen-T/F 1001 26-12-2017 00:00:00 3.55917 C 38.0083 %
1002 27-12-2017 00:00:00 4.2 C 40.9333 %
1003 28-12-2017 00:00:00 2.28083 C 30.6667 %
1004 29-12-2017 00:00:00 1.6 C 29.8333 %
1005 30-12-2017 00:00:00 6.22583 C 44.3250 %
1006 31-12-2017 00:00:00 12.09667 C 23.3583 %
1007 01-01-2018 00:00:00 7.035 C 28.9500 %
1008 02-01-2018 00:00:00 5.395 C 28.4083 %
1009 03-01-2018 00:00:00 7.40667 C 26.8250 %
1010 04-01-2018 00:00:00 7.375 C 35.2167 %
1011 05-01-2018 00:00:00 7.45583 C 34.5250 %
1012 06-01-2018 00:00:00 5.4075 C 71.1333 %
1013 07-01-2018 00:00:00 4.365 C 39.4167 %
1014 08-01-2018 00:00:00 3.86417 C 21.1167 %
1015 09-01-2018 00:00:00 4.01083 C 35.8167 %
1016 10-01-2018 00:00:00 5.88833 C 39.9000 %
1017 11-01-2018 00:00:00 6.29167 C 52.8750 %
1018 12-01-2018 00:00:00 5.70083 C 50.0167 %
1019 13-01-2018 00:00:00 4.70917 C 38.6750 %
1020 14-01-2018 00:00:00 2.06917 C 25.5583 %
1021 15-01-2018 00:00:00 2.675 C 35.7000 %
1022 16-01-2018 00:00:00 5.00167 C 27.7500 %
1023 17-01-2018 00:00:00 2.35 C 27.4500 %
1024 18-01-2018 00:00:00 4.8775 C 25.4667 %
1025 19-01-2018 00:00:00 2.92583 C 27.3750 %
Sensor: Nr:Datum:Temp:Feuchte:
Aussen-T/F 1026 20-01-2018 00:00:00 2.10833 C 38.1000 %
1027 21-01-2018 00:00:00 1.73917 C 43.8167 %
1028 22-01-2018 00:00:00 4.38583 C 45.1083 %
1029 23-01-2018 00:00:00 6.65593 C 27.4831 %
1030 24-01-2018 00:00:00 10.79316 C 24.5470 %
1031 25-01-2018 00:00:00 9.13917 C 43.9750 %
1032 26-01-2018 00:00:00 5.89167 C 56.7333 %
1033 27-01-2018 00:00:00 4.26583 C 45.6667 %
1034 28-01-2018 00:00:00 6.63917 C 22.5333 %
1035 29-01-2018 00:00:00 9.275 C 22.7417 %
1036 30-01-2018 00:00:00 4.25333 C 35.1167 %
1037 31-01-2018 00:00:00 6.62917 C 32.6500 %
1038 01-02-2018 00:00:00 2.0675 C 36.1083 %
1039 02-02-2018 00:00:00 2.36417 C 31.6667 %
1040 03-02-2018 00:00:00 2.65042 C 30.2269 %
1041 04-02-2018 00:00:00 0.38667 C 29.6333 %
1042 05-02-2018 00:00:00 -0.98583 C 20.2500 %
1043 06-02-2018 00:00:00 -1.55167 C 25.9583 %
1044 07-02-2018 00:00:00 -0.79667 C 32.3833 %
1045 08-02-2018 00:00:00 -3.34333 C 28.9667 %
1046 09-02-2018 00:00:00 -2.8975 C 36.1833 %
1047 10-02-2018 00:00:00 1.41833 C 24.0167 %
1048 11-02-2018 00:00:00 2.22 C 26.3667 %
1049 12-02-2018 00:00:00 1.25083 C 34.8917 %
1050 13-02-2018 00:00:00 -1.44 C 29.8417 %
Sensor: Nr:Datum:Temp:Feuchte:
Aussen-T/F 1051 14-02-2018 00:00:00 -3.14333 C 28.8667 %
1052 15-02-2018 00:00:00 0.80417 C 40.6583 %
1053 16-02-2018 00:00:00 0.98667 C 60.1667 %
1054 17-02-2018 00:00:00 -0.55 C 48.8833 %
1055 18-02-2018 00:00:00 -2.16917 C 38.4250 %
1056 19-02-2018 00:00:00 0.37083 C 35.6500 %
1057 20-02-2018 00:00:00 -0.54083 C 33.3417 %
1058 21-02-2018 00:00:00 -0.04917 C 22.5333 %
1059 22-02-2018 00:00:00 -1.265 C 21.2167 %
1060 23-02-2018 00:00:00 -2.0175 C 20.0000 %
1061 24-02-2018 00:00:00 -2.72667 C 20.0000 %
1062 25-02-2018 00:00:00 -3.74417 C 20.0000 %
1063 26-02-2018 00:00:00 -5.06167 C 20.0000 %
1064 27-02-2018 00:00:00 -7.2225 C 20.3500 %
1065 28-02-2018 00:00:00 -7.98333 C 20.0000 %
1066 01-03-2018 00:00:00 -3.74917 C 20.0000 %
1067 02-03-2018 00:00:00 -2.59083 C 20.0917 %
1068 03-03-2018 00:00:00 -0.72083 C 28.3583 %
1069 04-03-2018 00:00:00 3.2 C 37.8833 %
1070 05-03-2018 00:00:00 5.22833 C 42.3583 %
1071 06-03-2018 00:00:00 4.25 C 40.7750 %
1072 07-03-2018 00:00:00 4.89167 C 43.0333 %
1073 08-03-2018 00:00:00 5.66417 C 23.5833 %
1074 09-03-2018 00:00:00 4.83667 C 41.9500 %
1075 10-03-2018 00:00:00 9.51333 C 45.7833 %
Sensor: Nr:Datum:Temp:Feuchte:
Aussen-T/F 1076 11-03-2018 00:00:00 9.60833 C 40.1667 %
1077 12-03-2018 00:00:00 9.04083 C 37.0250 %
1078 13-03-2018 00:00:00 6.84083 C 24.1083 %
1079 14-03-2018 00:00:00 6.32917 C 26.1667 %
1080 15-03-2018 00:00:00 5.73833 C 33.0750 %
1081 16-03-2018 00:00:00 7.00917 C 47.9667 %
1082 17-03-2018 00:00:00 -0.93917 C 20.2583 %
1083 18-03-2018 00:00:00 -2.1675 C 20.0000 %
1084 19-03-2018 00:00:00 -0.63417 C 20.0000 %
1085 20-03-2018 00:00:00 -0.4175 C 20.0167 %
1086 21-03-2018 00:00:00 0.5225 C 24.8500 %
1087 22-03-2018 00:00:00 2.45417 C 30.2000 %
1088 23-03-2018 00:00:00 5.83583 C 38.3250 %
1089 24-03-2018 00:00:00 4.74917 C 35.3167 %
1090 25-03-2018 00:00:00 4.60522 C 30.4870 %
1091 26-03-2018 00:00:00 7.34167 C 20.0250 %
1092 27-03-2018 00:00:00 5.52083 C 29.7083 %
1093 28-03-2018 00:00:00 8.02667 C 36.4167 %
1094 29-03-2018 00:00:00 6.93667 C 20.9833 %
1095 30-03-2018 00:00:00 6.38833 C 34.0000 %
1096 31-03-2018 00:00:00 7.84583 C 39.4917 %
1097 01-04-2018 00:00:00 7.26083 C 20.4250 %
1098 02-04-2018 00:00:00 8.7875 C 27.6500 %
1099 03-04-2018 00:00:00 13.26583 C 20.0000 %
1100 04-04-2018 00:00:00 10.6625 C 24.3500 %
Sensor: Nr:Datum:Temp:Feuchte:
Aussen-T/F 1101 05-04-2018 00:00:00 7.485 C 30.3417 %
1102 06-04-2018 00:00:00 6.66833 C 35.5583 %
1103 07-04-2018 00:00:00 12.16083 C 22.7583 %
1104 08-04-2018 00:00:00 14.75333 C 22.3333 %
1105 09-04-2018 00:00:00 13.84583 C 24.6917 %
1106 10-04-2018 00:00:00 12.68 C 28.0833 %
1107 11-04-2018 00:00:00 11.99333 C 34.9833 %
1108 12-04-2018 00:00:00 13.34833 C 37.0500 %
1109 13-04-2018 00:00:00 9.9075 C 32.0833 %
1110 14-04-2018 00:00:00 12.74 C 36.2167 %
1111 15-04-2018 00:00:00 14.41667 C 27.2750 %
1112 16-04-2018 00:00:00 13.76083 C 31.1917 %
1113 17-04-2018 00:00:00 14.02167 C 29.2083 %
1114 18-04-2018 00:00:00 15.74583 C 26.0333 %
1115 19-04-2018 00:00:00 17.22083 C 26.6000 %
1116 20-04-2018 00:00:00 17.00083 C 24.1667 %
1117 21-04-2018 00:00:00 18.43667 C 23.5750 %
1118 22-04-2018 00:00:00 18.55417 C 25.1083 %
1119 23-04-2018 00:00:00 18.66417 C 20.2833 %
1120 24-04-2018 00:00:00 14.27333 C 24.2167 %
1121 25-04-2018 00:00:00 13.4125 C 21.6750 %
1122 26-04-2018 00:00:00 11.21 C 20.0000 %
1123 27-04-2018 00:00:00 12.55083 C 22.6167 %
1124 28-04-2018 00:00:00 12.6075 C 23.1000 %
1125 29-04-2018 00:00:00 14.48167 C 29.9583 %
Sensor: Nr:Datum:Temp:Feuchte:
Aussen-T/F 1126 30-04-2018 00:00:00 13.82167 C 24.6083 %
1127 01-05-2018 00:00:00 9.82667 C 20.0500 %
1128 02-05-2018 00:00:00 9.81083 C 27.0250 %
1129 03-05-2018 00:00:00 12.9575 C 23.3250 %
1130 04-05-2018 00:00:00 13.49833 C 21.9583 %
1131 05-05-2018 00:00:00 15.83583 C 20.0667 %
1132 06-05-2018 00:00:00 17.25 C 20.1167 %
1133 07-05-2018 00:00:00 17.88167 C 21.1000 %
1134 08-05-2018 00:00:00 18.43583 C 22.6667 %
1135 09-05-2018 00:00:00 17.19333 C 22.2583 %
1136 10-05-2018 00:00:00 14.13917 C 25.9500 %
1137 11-05-2018 00:00:00 14.92083 C 27.9167 %
1138 12-05-2018 00:00:00 17.0825 C 28.2750 %
1139 13-05-2018 00:00:00 14.3425 C 37.0500 %
1140 14-05-2018 00:00:00 17.16333 C 35.6750 %
1141 15-05-2018 00:00:00 16.0375 C 27.9417 %
1142 16-05-2018 00:00:00 15.7475 C 27.4000 %
1143 17-05-2018 00:00:00 14.55667 C 23.4833 %
1144 18-05-2018 00:00:00 13.17083 C 21.1083 %
1145 19-05-2018 00:00:00 13.845 C 23.5250 %
1146 20-05-2018 00:00:00 14.06917 C 31.8333 %
1147 21-05-2018 00:00:00 17.55333 C 27.4333 %
1148 22-05-2018 00:00:00 17.09833 C 29.9833 %
1149 23-05-2018 00:00:00 17.23083 C 36.1833 %
1150 24-05-2018 00:00:00 17.22083 C 27.4917 %
Sensor: Nr:Datum:Temp:Feuchte:
Aussen-T/F 1151 25-05-2018 00:00:00 20.19417 C 26.8083 %
1152 26-05-2018 00:00:00 21.1325 C 26.3667 %
1153 27-05-2018 00:00:00 20.4375 C 27.6917 %
1154 28-05-2018 00:00:00 21.70917 C 33.5833 %
1155 29-05-2018 00:00:00 20.88333 C 27.1500 %
1156 30-05-2018 00:00:00 21.6725 C 28.2333 %
1157 31-05-2018 00:00:00 23.08167 C 20.2750 %
1158 01-06-2018 00:00:00 19.3725 C 29.3667 %
1159 02-06-2018 00:00:00 19.64917 C 23.6750 %
1160 03-06-2018 00:00:00 20.04167 C 24.8250 %
1161 04-06-2018 00:00:00 21.5125 C 24.5417 %
1162 05-06-2018 00:00:00 21.2475 C 22.2500 %
1163 06-06-2018 00:00:00 21.6775 C 24.0000 %
1164 07-06-2018 00:00:00 21.58667 C 22.6167 %
1165 08-06-2018 00:00:00 21.40167 C 24.3000 %
1166 09-06-2018 00:00:00 22.3959 C 23.5984 %
1167 10-06-2018 00:00:00 21.64333 C 33.3000 %
1168 11-06-2018 00:00:00 19.07083 C 41.7083 %
1169 12-06-2018 00:00:00 16.44167 C 37.5250 %
1170 13-06-2018 00:00:00 15.1 C 22.7000 %
1171 14-06-2018 00:00:00 15.48083 C 30.2917 %
1172 15-06-2018 00:00:00 17.9025 C 35.7250 %
1173 16-06-2018 00:00:00 20.2775 C 26.1583 %
1174 17-06-2018 00:00:00 18.42583 C 22.8083 %
1175 18-06-2018 00:00:00 18.235 C 21.9750 %
Sensor: Nr:Datum:Temp:Feuchte:
Aussen-T/F 1176 19-06-2018 00:00:00 19.13333 C 25.5583 %
1177 20-06-2018 00:00:00 23.4825 C 24.4667 %
1178 21-06-2018 00:00:00 18.58 C 22.6500 %
1179 22-06-2018 00:00:00 14.12167 C 20.0000 %
1180 23-06-2018 00:00:00 14.19167 C 21.2750 %
1181 24-06-2018 00:00:00 16.46667 C 22.7833 %
1182 25-06-2018 00:00:00 17.57167 C 21.5583 %
1183 26-06-2018 00:00:00 18.34083 C 24.8583 %
1184 27-06-2018 00:00:00 19.81083 C 24.3333 %
1185 28-06-2018 00:00:00 21.28417 C 20.6000 %
1186 29-06-2018 00:00:00 24.82417 C 20.0000 %
1187 30-06-2018 00:00:00 22.8375 C 20.4583 %
1188 01-07-2018 00:00:00 21.52333 C 20.0000 %
1189 02-07-2018 00:00:00 21.06583 C 20.0000 %
1190 03-07-2018 00:00:00 21.34917 C 20.0000 %
1191 04-07-2018 00:00:00 19.00917 C 27.2667 %
1192 05-07-2018 00:00:00 19.70667 C 33.6083 %
1193 06-07-2018 00:00:00 20.57333 C 25.0417 %
1194 07-07-2018 00:00:00 21.3521 C 23.5630 %
1195 08-07-2018 00:00:00 20.38417 C 21.0583 %
1196 09-07-2018 00:00:00 20.71083 C 21.4167 %
1197 10-07-2018 00:00:00 17.5975 C 22.4000 %
1198 11-07-2018 00:00:00 16.2875 C 33.6667 %
1199 12-07-2018 00:00:00 19.71583 C 32.5000 %
1200 13-07-2018 00:00:00 20.13 C 24.9667 %
Sensor: Nr:Datum:Temp:Feuchte:
Aussen-T/F 1201 14-07-2018 00:00:00 22.01333 C 24.7500 %
1202 15-07-2018 00:00:00 22.10833 C 22.6333 %
1203 16-07-2018 00:00:00 23.10667 C 21.7167 %
1204 17-07-2018 00:00:00 21.59583 C 20.3583 %
1205 18-07-2018 00:00:00 20.9475 C 22.7500 %
1206 19-07-2018 00:00:00 21.47667 C 21.5833 %
1207 20-07-2018 00:00:00 21.81583 C 20.1917 %
1208 21-07-2018 00:00:00 20.94083 C 22.6750 %
1209 22-07-2018 00:00:00 22.115 C 25.1500 %
1210 23-07-2018 00:00:00 22.98917 C 21.2167 %
1211 24-07-2018 00:00:00 24.11417 C 22.5833 %
1212 25-07-2018 00:00:00 25.90417 C 20.1583 %
1213 26-07-2018 00:00:00 27.54333 C 20.0167 %
1214 27-07-2018 00:00:00 26.46167 C 20.0000 %
1215 28-07-2018 00:00:00 22.24 C 22.3250 %
1216 29-07-2018 00:00:00 23.87667 C 23.3500 %
1217 30-07-2018 00:00:00 24.435 C 20.3250 %
1218 31-07-2018 00:00:00 25.8025 C 21.1500 %
1219 01-08-2018 00:00:00 20.68583 C 32.5500 %
1220 02-08-2018 00:00:00 24.12 C 31.7333 %
1221 03-08-2018 00:00:00 26.79583 C 20.9083 %
1222 04-08-2018 00:00:00 26.84 C 20.0667 %
1223 05-08-2018 00:00:00 25.5025 C 20.1667 %
1224 06-08-2018 00:00:00 24.4075 C 20.1500 %
1225 07-08-2018 00:00:00 26.99333 C 20.0000 %
Sensor: Nr:Datum:Temp:Feuchte:
Aussen-T/F 1226 08-08-2018 00:00:00 25.83667 C 20.0000 %
1227 09-08-2018 00:00:00 20.8725 C 26.6583 %
1228 10-08-2018 00:00:00 18.73667 C 20.8917 %
1229 11-08-2018 00:00:00 18.76667 C 20.0000 %
1230 12-08-2018 00:00:00 18.38667 C 21.9833 %
1231 13-08-2018 00:00:00 17.82083 C 28.9750 %
1232 14-08-2018 00:00:00 18.755 C 28.1167 %
1233 15-08-2018 00:00:00 19.59583 C 29.0833 %
1234 16-08-2018 00:00:00 20.84333 C 28.0000 %
1235 17-08-2018 00:00:00 20.11583 C 22.3500 %
1236 18-08-2018 00:00:00 19.2675 C 26.3417 %
1237 19-08-2018 00:00:00 20.68667 C 23.5250 %
1238 20-08-2018 00:00:00 21.20333 C 20.6833 %
1239 21-08-2018 00:00:00 22.2425 C 24.3417 %
1240 22-08-2018 00:00:00 23.51417 C 22.7667 %
1241 23-08-2018 00:00:00 23.22 C 23.0167 %
1242 24-08-2018 00:00:00 19.31833 C 20.6583 %
1243 25-08-2018 00:00:00 14.65417 C 21.6083 %
1244 26-08-2018 00:00:00 13.95083 C 28.0000 %
1245 27-08-2018 00:00:00 18.20917 C 20.3667 %
1246 28-08-2018 00:00:00 18.39833 C 20.7167 %
1247 29-08-2018 00:00:00 17.005 C 30.8917 %
1248 30-08-2018 00:00:00 17.4125 C 25.9167 %
1249 31-08-2018 00:00:00 15.33167 C 23.6000 %
1250 01-09-2018 00:00:00 14.445 C 26.6667 %
Sensor: Nr:Datum:Temp:Feuchte:
Aussen-T/F 1251 02-09-2018 00:00:00 14.24833 C 24.8000 %
1252 03-09-2018 00:00:00 18.13417 C 22.9917 %
1253 04-09-2018 00:00:00 20.0425 C 27.0167 %
1254 05-09-2018 00:00:00 20.69 C 25.3083 %
1255 06-09-2018 00:00:00 18.0925 C 32.7583 %
1256 07-09-2018 00:00:00 15.6675 C 33.8500 %
1257 08-09-2018 00:00:00 13.5425 C 30.5333 %
1258 09-09-2018 00:00:00 16.80833 C 23.2500 %
1259 10-09-2018 00:00:00 17.5025 C 23.9000 %
1260 11-09-2018 00:00:00 18.86667 C 26.0333 %
1261 12-09-2018 00:00:00 19.03167 C 24.0083 %
1262 13-09-2018 00:00:00 16.5775 C 25.7417 %
1263 14-09-2018 00:00:00 17.1375 C 25.2000 %
1264 15-09-2018 00:00:00 15.17 C 21.0833 %
1265 16-09-2018 00:00:00 14.51 C 27.7833 %
1266 17-09-2018 00:00:00 16.24583 C 25.3583 %
1267 18-09-2018 00:00:00 18.72833 C 26.0000 %
1268 19-09-2018 00:00:00 20.545 C 25.3250 %
1269 20-09-2018 00:00:00 19.08833 C 26.8417 %
1270 21-09-2018 00:00:00 15.91167 C 24.5750 %
1271 22-09-2018 00:00:00 12.6825 C 25.6333 %
1272 23-09-2018 00:00:00 12.18083 C 47.2250 %
1273 24-09-2018 00:00:00 9.66 C 36.3583 %
1274 25-09-2018 00:00:00 8.06417 C 42.7083 %
1275 26-09-2018 00:00:00 8.5625 C 35.2583 %
Sensor: Nr:Datum:Temp:Feuchte:
Aussen-T/F 1276 27-09-2018 00:00:00 10.55833 C 35.5667 %
1277 28-09-2018 00:00:00 9.67833 C 43.7167 %
1278 29-09-2018 00:00:00 7.75083 C 41.1250 %
1279 30-09-2018 00:00:00 7.2475 C 35.9250 %
1280 01-10-2018 00:00:00 9.41583 C 29.7833 %
1281 02-10-2018 00:00:00 8.87917 C 33.7167 %
1282 03-10-2018 00:00:00 11.93917 C 34.0750 %
1283 04-10-2018 00:00:00 9.37167 C 38.3000 %
1284 05-10-2018 00:00:00 10.05917 C 42.4917 %
1285 06-10-2018 00:00:00 12.08583 C 44.5417 %
1286 07-10-2018 00:00:00 12.625 C 37.2750 %
1287 08-10-2018 00:00:00 9.9775 C 39.4833 %
1288 09-10-2018 00:00:00 11.14583 C 44.1500 %
1289 10-10-2018 00:00:00 12.71667 C 45.8500 %
1290 11-10-2018 00:00:00 13.6775 C 40.8667 %
1291 12-10-2018 00:00:00 15.05417 C 38.8667 %
1292 13-10-2018 00:00:00 14.68833 C 38.8250 %
1293 14-10-2018 00:00:00 13.92083 C 36.1000 %
1294 15-10-2018 00:00:00 12.87417 C 37.7167 %
1295 16-10-2018 00:00:00 12.0325 C 38.6083 %
1296 17-10-2018 00:00:00 12.01333 C 41.5083 %
1297 18-10-2018 00:00:00 13.73917 C 38.0333 %
1298 19-10-2018 00:00:00 11.66417 C 37.7167 %
1299 20-10-2018 00:00:00 10.57167 C 36.9583 %
1300 21-10-2018 00:00:00 6.7725 C 44.7500 %
Sensor: Nr:Datum:Temp:Feuchte:
Aussen-T/F 1301 22-10-2018 00:00:00 7.16833 C 43.7083 %
1302 23-10-2018 00:00:00 8.68 C 39.8083 %
1303 24-10-2018 00:00:00 13.58167 C 33.8333 %
1304 25-10-2018 00:00:00 12.74667 C 31.1083 %
1305 26-10-2018 00:00:00 9.95417 C 28.9917 %
1306 27-10-2018 00:00:00 5.7925 C 48.4000 %
1307 28-10-2018 00:00:00 5.2 C 33.7840 %
1308 29-10-2018 00:00:00 5.97083 C 33.6667 %
1309 30-10-2018 00:00:00 5.80583 C 46.3667 %
1310 31-10-2018 00:00:00 6.87167 C 39.3333 %
1311 01-11-2018 00:00:00 5.49083 C 58.1333 %
1312 02-11-2018 00:00:00 8.22333 C 53.4750 %
1313 03-11-2018 00:00:00 3.10583 C 60.6667 %
1314 04-11-2018 00:00:00 6.64167 C 47.4000 %
1315 05-11-2018 00:00:00 9.7725 C 45.3417 %
1316 06-11-2018 00:00:00 7.78167 C 57.6917 %
1317 07-11-2018 00:00:00 8.4 C 54.3917 %
1318 08-11-2018 00:00:00 9.7 C 41.1583 %
1319 09-11-2018 00:00:00 8.83167 C 49.0500 %
1320 10-11-2018 00:00:00 11.32 C 42.0250 %
1321 11-11-2018 00:00:00 11.46583 C 47.7500 %
1322 12-11-2018 00:00:00 13.07917 C 44.0417 %
1323 13-11-2018 00:00:00 9.75583 C 50.0167 %
1324 14-11-2018 00:00:00 5.56917 C 61.4000 %
1325 15-11-2018 00:00:00 6.72833 C 38.5000 %
Sensor: Nr:Datum:Temp:Feuchte:
Aussen-T/F 1326 16-11-2018 00:00:00 5.12667 C 41.4000 %
1327 17-11-2018 00:00:00 1.785 C 48.8667 %
1328 18-11-2018 00:00:00 0.80333 C 30.7417 %
1329 19-11-2018 00:00:00 2.95833 C 26.3167 %
1330 20-11-2018 00:00:00 2.95167 C 25.6167 %
1331 21-11-2018 00:00:00 1.93 C 37.9750 %
1332 22-11-2018 00:00:00 2.22833 C 39.2750 %
1333 23-11-2018 00:00:00 -0.8425 C 54.2583 %
1334 24-11-2018 00:00:00 4.05833 C 58.0917 %
1335 25-11-2018 00:00:00 5.29 C 56.7917 %
1336 26-11-2018 00:00:00 6.09333 C 35.8583 %
1337 27-11-2018 00:00:00 3.6075 C 30.9583 %
1338 28-11-2018 00:00:00 2.97583 C 45.6917 %
1339 29-11-2018 00:00:00 4.98333 C 47.6917 %
1340 30-11-2018 00:00:00 6.67167 C 48.6583 %
1341 01-12-2018 00:00:00 6.67417 C 47.9750 %
1342 02-12-2018 00:00:00 10.59167 C 45.4750 %
1343 03-12-2018 00:00:00 11.02333 C 51.1333 %
1344 04-12-2018 00:00:00 5.62 C 45.3833 %
1345 05-12-2018 00:00:00 3.15546 C 56.8487 %
1346 06-12-2018 00:00:00 9.21333 C 47.7750 %
1347 07-12-2018 00:00:00 10.71583 C 33.9000 %
1348 08-12-2018 00:00:00 7.28083 C 37.2333 %
1349 09-12-2018 00:00:00 7.285 C 37.6917 %
1350 10-12-2018 00:00:00 3.9825 C 44.3833 %
Sensor: Nr:Datum:Temp:Feuchte:
Aussen-T/F 1351 11-12-2018 00:00:00 2.87417 C 51.3500 %
1352 12-12-2018 00:00:00 2.0375 C 58.1583 %
1353 13-12-2018 00:00:00 0.49 C 37.0417 %
1354 14-12-2018 00:00:00 0.48 C 20.9833 %
1355 15-12-2018 00:00:00 -0.09083 C 24.2083 %
1356 16-12-2018 00:00:00 0.045 C 43.8833 %
1357 17-12-2018 00:00:00 3.4775 C 51.8333 %
1358 18-12-2018 00:00:00 4.1675 C 41.5083 %
1359 19-12-2018 00:00:00 5.75 C 37.3000 %
1360 20-12-2018 00:00:00 6.87083 C 39.0583 %
1361 21-12-2018 00:00:00 10.1725 C 34.4750 %
1362 22-12-2018 00:00:00 9.26167 C 35.0083 %
1363 23-12-2018 00:00:00 7.89333 C 46.8500 %
1364 24-12-2018 00:00:00 4.10333 C 44.5000 %
1365 25-12-2018 00:00:00 1.0625 C 49.8500 %
1366 26-12-2018 00:00:00 -1.61083 C 52.7667 %
1367 27-12-2018 00:00:00 -0.68583 C 57.2917 %
1368 28-12-2018 00:00:00 -0.61667 C 51.7667 %
1369 29-12-2018 00:00:00 2.0175 C 45.4833 %
1370 30-12-2018 00:00:00 6.73917 C 37.6417 %
1371 31-12-2018 00:00:00 6.84917 C 56.5417 %
1372 01-01-2019 00:00:00 6.345 C 45.5833 %
1373 02-01-2019 00:00:00 2.72417 C 34.2083 %
1374 03-01-2019 00:00:00 1.28167 C 47.5833 %
1375 04-01-2019 00:00:00 2.41333 C 45.7833 %
Sensor: Nr:Datum:Temp:Feuchte:
Aussen-T/F 1376 05-01-2019 00:00:00 5.14417 C 47.4583 %
1377 06-01-2019 00:00:00 5.0725 C 44.3083 %
1378 07-01-2019 00:00:00 4.8875 C 41.5500 %
1379 08-01-2019 00:00:00 5.74917 C 36.7000 %
1380 09-01-2019 00:00:00 3.05083 C 34.6917 %
1381 10-01-2019 00:00:00 1.36 C 32.5417 %
1382 11-01-2019 00:00:00 2.05417 C 54.0417 %
1383 12-01-2019 00:00:00 5.01833 C 46.3583 %
1384 13-01-2019 00:00:00 6.9225 C 47.7417 %
1385 14-01-2019 00:00:00 4.06833 C 43.5667 %
1386 15-01-2019 00:00:00 4.06833 C 40.0333 %
1387 16-01-2019 00:00:00 4.52583 C 35.3417 %
1388 17-01-2019 00:00:00 4.27167 C 37.9583 %
1389 18-01-2019 00:00:00 -0.2025 C 49.3250 %
1390 19-01-2019 00:00:00 -3.87667 C 48.1333 %
1391 20-01-2019 00:00:00 -6.33 C 47.2250 %
1392 21-01-2019 00:00:00 -7.505 C 46.8917 %
1393 22-01-2019 00:00:00 -5.97917 C 44.1750 %
1394 23-01-2019 00:00:00 -2.435 C 39.5667 %
1395 24-01-2019 00:00:00 -2.72417 C 26.7667 %
1396 25-01-2019 00:00:00 -0.50917 C 39.3333 %
1397 26-01-2019 00:00:00 3.62167 C 45.9417 %
1398 27-01-2019 00:00:00 4.94833 C 43.1917 %
1399 28-01-2019 00:00:00 2.2025 C 45.2417 %
1400 29-01-2019 00:00:00 0.865 C 44.1667 %
Sensor: Nr:Datum:Temp:Feuchte:
Aussen-T/F 1401 30-01-2019 00:00:00 -0.46833 C 49.8250 %
1402 31-01-2019 00:00:00 -1.03333 C 52.2750 %
1403 01-02-2019 00:00:00 0.72167 C 56.8333 %
1404 02-02-2019 00:00:00 1.59587 C 62.5950 %
1405 03-02-2019 00:00:00 1.86583 C 40.0750 %
1406 04-02-2019 00:00:00 0.99417 C 40.5833 %
1407 05-02-2019 00:00:00 3.66167 C 30.5917 %
1408 06-02-2019 00:00:00 0.09417 C 46.8417 %
1409 07-02-2019 00:00:00 4.26083 C 38.9917 %
1410 08-02-2019 00:00:00 6.77417 C 31.6250 %
1411 09-02-2019 00:00:00 8.02083 C 28.8667 %
1412 10-02-2019 00:00:00 7.15083 C 39.6167 %
1413 11-02-2019 00:00:00 4.03667 C 38.3917 %
1414 12-02-2019 00:00:00 3.01917 C 38.2083 %
1415 13-02-2019 00:00:00 0.96333 C 46.8167 %
1416 14-02-2019 00:00:00 -0.46667 C 51.0250 %
1417 15-02-2019 00:00:00 0.9925 C 45.0667 %
1418 16-02-2019 00:00:00 1.9325 C 47.3750 %
1419 17-02-2019 00:00:00 2.17333 C 49.1333 %
1420 18-02-2019 00:00:00 2.31167 C 43.0500 %
1421 19-02-2019 00:00:00 4.89 C 40.9750 %
1422 20-02-2019 00:00:00 3.7725 C 45.5000 %
1423 21-02-2019 00:00:00 5.655 C 46.3667 %
1424 22-02-2019 00:00:00 9.27167 C 39.5167 %
1425 23-02-2019 00:00:00 4.58167 C 33.2583 %
Sensor: Nr:Datum:Temp:Feuchte:
Aussen-T/F 1426 24-02-2019 00:00:00 2.29833 C 32.9417 %
1427 25-02-2019 00:00:00 3.65667 C 31.8250 %
1428 26-02-2019 00:00:00 4.75583 C 37.6333 %
1429 27-02-2019 00:00:00 5.17417 C 38.9250 %
1430 28-02-2019 00:00:00 8.185 C 29.8833 %
1431 01-03-2019 00:00:00 7.515 C 43.8250 %
1432 02-03-2019 00:00:00 8.29333 C 34.1417 %
1433 03-03-2019 00:00:00 10.72417 C 28.1417 %
1434 04-03-2019 00:00:00 9.1575 C 27.8167 %
1435 05-03-2019 00:00:00 6.32167 C 30.8917 %
1436 06-03-2019 00:00:00 9.5125 C 32.3667 %
1437 07-03-2019 00:00:00 9.61917 C 28.3833 %
1438 08-03-2019 00:00:00 7.73167 C 28.8250 %
1439 09-03-2019 00:00:00 10.01667 C 26.3333 %
1440 10-03-2019 00:00:00 9.11083 C 30.1417 %
1441 11-03-2019 00:00:00 4.19667 C 30.2417 %
1442 12-03-2019 00:00:00 6.18083 C 27.8583 %
1443 13-03-2019 00:00:00 5.6775 C 31.5250 %
1444 14-03-2019 00:00:00 6.3325 C 38.0083 %
1445 15-03-2019 00:00:00 9.61417 C 37.6917 %
1446 16-03-2019 00:00:00 9.76833 C 35.9667 %
1447 17-03-2019 00:00:00 8.19083 C 26.8333 %
1448 18-03-2019 00:00:00 4.3225 C 36.6583 %
1449 19-03-2019 00:00:00 3.115 C 40.3583 %
1450 20-03-2019 00:00:00 4.81417 C 37.4250 %
Sensor: Nr:Datum:Temp:Feuchte:
Aussen-T/F 1451 21-03-2019 00:00:00 6.76333 C 35.7167 %
1452 22-03-2019 00:00:00 8.43083 C 34.0750 %
1453 23-03-2019 00:00:00 5.40167 C 40.0083 %
1454 24-03-2019 00:00:00 5.90583 C 38.2167 %
1455 25-03-2019 00:00:00 4.41583 C 37.7583 %
1456 26-03-2019 00:00:00 6.33417 C 32.9583 %
1457 27-03-2019 00:00:00 6.36583 C 35.3083 %
1458 28-03-2019 00:00:00 6.955 C 36.2417 %
1459 29-03-2019 00:00:00 8.44167 C 38.7750 %
1460 30-03-2019 00:00:00 10.07583 C 34.1833 %
1461 31-03-2019 00:00:00 9.90957 C 33.8174 %
1462 01-04-2019 00:00:00 8.9475 C 32.5750 %
1463 02-04-2019 00:00:00 10.5425 C 29.3083 %
1464 03-04-2019 00:00:00 7.865 C 38.6750 %
1465 04-04-2019 00:00:00 5.56833 C 48.7000 %
1466 05-04-2019 00:00:00 5.95417 C 48.0167 %
1467 06-04-2019 00:00:00 9.88333 C 42.1917 %
1468 07-04-2019 00:00:00 11.50833 C 36.8000 %
1469 08-04-2019 00:00:00 12.34417 C 33.9167 %
1470 09-04-2019 00:00:00 12.00333 C 40.7333 %
1471 10-04-2019 00:00:00 10.585 C 23.8417 %
1472 11-04-2019 00:00:00 6.52917 C 25.0583 %
1473 12-04-2019 00:00:00 4.68167 C 20.0000 %
1474 13-04-2019 00:00:00 3.585 C 24.4167 %
1475 14-04-2019 00:00:00 5.23833 C 34.7917 %
Sensor: Nr:Datum:Temp:Feuchte:
Aussen-T/F 1476 15-04-2019 00:00:00 10.29167 C 25.8000 %
1477 16-04-2019 00:00:00 10.91333 C 23.2000 %
1478 17-04-2019 00:00:00 12.4 C 35.6083 %
1479 18-04-2019 00:00:00 13.7675 C 28.5500 %
1480 19-04-2019 00:00:00 14.94917 C 24.5083 %
1481 20-04-2019 00:00:00 14.60167 C 27.5833 %
1482 21-04-2019 00:00:00 15.24333 C 24.6417 %
1483 22-04-2019 00:00:00 14.7825 C 27.5667 %
1484 23-04-2019 00:00:00 15.12667 C 20.1083 %
1485 24-04-2019 00:00:00 15.10083 C 30.7083 %
1486 25-04-2019 00:00:00 13.2425 C 38.0667 %
1487 26-04-2019 00:00:00 11.8 C 32.0000 %
1488 27-04-2019 00:00:00 9.01583 C 40.3667 %
1489 28-04-2019 00:00:00 8.43333 C 30.9750 %
1490 29-04-2019 00:00:00 8.62417 C 38.4083 %
1491 30-04-2019 00:00:00 13.94583 C 26.0833 %
1492 01-05-2019 00:00:00 13.03833 C 29.5000 %
1493 02-05-2019 00:00:00 12.08333 C 31.3667 %
1494 03-05-2019 00:00:00 11.20833 C 25.1500 %
1495 04-05-2019 00:00:00 6.17583 C 33.4500 %
1496 05-05-2019 00:00:00 6.66333 C 32.0417 %
1497 06-05-2019 00:00:00 7.6075 C 30.6583 %
1498 07-05-2019 00:00:00 9.645 C 28.6167 %
1499 08-05-2019 00:00:00 9.105 C 38.9750 %
1500 09-05-2019 00:00:00 11.085 C 36.9583 %
Sensor: Nr:Datum:Temp:Feuchte:
Aussen-T/F 1501 10-05-2019 00:00:00 12.44538 C 33.3866 %
1502 11-05-2019 00:00:00 9.52833 C 47.9417 %
1503 12-05-2019 00:00:00 9.4 C 31.3083 %
1504 13-05-2019 00:00:00 9.985 C 30.9083 %
1505 14-05-2019 00:00:00 9.66333 C 26.4333 %
1506 15-05-2019 00:00:00 10.57083 C 24.3500 %
1507 16-05-2019 00:00:00 10.61167 C 23.0917 %
1508 17-05-2019 00:00:00 11.4775 C 39.7250 %
1509 18-05-2019 00:00:00 14.67167 C 39.3500 %
1510 19-05-2019 00:00:00 15.91083 C 38.3750 %
1511 20-05-2019 00:00:00 13.655 C 37.8667 %
1512 21-05-2019 00:00:00 11.88167 C 45.6167 %
1513 22-05-2019 00:00:00 13.2875 C 33.7833 %
1514 23-05-2019 00:00:00 15.22667 C 33.1417 %
1515 24-05-2019 00:00:00 17.24 C 28.7500 %
1516 25-05-2019 00:00:00 15.89917 C 22.8167 %
1517 26-05-2019 00:00:00 16.26667 C 29.2667 %
1518 27-05-2019 00:00:00 14.66667 C 40.5417 %
1519 28-05-2019 00:00:00 14.29917 C 38.6250 %
1520 29-05-2019 00:00:00 15.28667 C 25.9000 %
1521 30-05-2019 00:00:00 15.82833 C 28.8250 %
1522 31-05-2019 00:00:00 19.45583 C 30.4167 %
1523 01-06-2019 00:00:00 20.21917 C 30.3583 %
1524 02-06-2019 00:00:00 22.16417 C 30.0500 %
1525 03-06-2019 00:00:00 21.1475 C 27.1667 %
Sensor: Nr:Datum:Temp:Feuchte:
Aussen-T/F 1526 04-06-2019 00:00:00 21.80333 C 28.3333 %
1527 05-06-2019 00:00:00 23.57917 C 22.7833 %
1528 06-06-2019 00:00:00 16.14167 C 28.3667 %
1529 07-06-2019 00:00:00 16.10083 C 29.5250 %
1530 08-06-2019 00:00:00 16.40917 C 20.2667 %
1531 09-06-2019 00:00:00 16.72333 C 27.7667 %
1532 10-06-2019 00:00:00 19.705 C 23.4750 %
1533 11-06-2019 00:00:00 17.38 C 32.4667 %
1534 12-06-2019 00:00:00 16.405 C 33.2917 %
1535 13-06-2019 00:00:00 16.27917 C 34.4333 %
1536 14-06-2019 00:00:00 18.17 C 35.6583 %
1537 15-06-2019 00:00:00 19.72583 C 33.0250 %
1538 16-06-2019 00:00:00 19.94417 C 24.9167 %
1539 17-06-2019 00:00:00 19.5125 C 29.1250 %
1540 18-06-2019 00:00:00 22.02333 C 27.1333 %
1541 19-06-2019 00:00:00 22.62583 C 27.6917 %
1542 20-06-2019 00:00:00 20 C 28.0167 %
1543 21-06-2019 00:00:00 19.3425 C 27.3333 %
1544 22-06-2019 00:00:00 19.82667 C 26.6167 %
1545 23-06-2019 00:00:00 22.3125 C 27.3750 %
1546 24-06-2019 00:00:00 24.96167 C 26.2167 %
1547 25-06-2019 00:00:00 26.83333 C 24.5583 %
1548 26-06-2019 00:00:00 27.635 C 23.0833 %
1549 27-06-2019 00:00:00 25.18917 C 20.6083 %
1550 28-06-2019 00:00:00 22.44833 C 23.4333 %
Sensor: Nr:Datum:Temp:Feuchte:
Aussen-T/F 1551 29-06-2019 00:00:00 24.38417 C 22.1750 %
1552 30-06-2019 00:00:00 26.0575 C 22.2333 %
1553 01-07-2019 00:00:00 23.3825 C 20.0000 %
1554 02-07-2019 00:00:00 19.63333 C 21.8667 %
1555 03-07-2019 00:00:00 18.14583 C 22.9833 %
1556 04-07-2019 00:00:00 18.95917 C 21.7583 %
1557 05-07-2019 00:00:00 21.28 C 20.0000 %
1558 06-07-2019 00:00:00 21.86 C 21.2917 %
1559 07-07-2019 00:00:00 17.9975 C 24.5833 %
1560 08-07-2019 00:00:00 14.77583 C 24.3917 %
1561 09-07-2019 00:00:00 15.65583 C 24.6667 %
1562 10-07-2019 00:00:00 17.64083 C 24.2083 %
1563 11-07-2019 00:00:00 17.65083 C 31.2583 %
1564 12-07-2019 00:00:00 17.16583 C 43.6333 %
1565 13-07-2019 00:00:00 17.9575 C 34.1250 %
1566 14-07-2019 00:00:00 17.12917 C 26.6667 %
1567 15-07-2019 00:00:00 16.56667 C 21.0917 %
1568 16-07-2019 00:00:00 16.26 C 28.0333 %
1569 17-07-2019 00:00:00 17.56833 C 29.2083 %
1570 18-07-2019 00:00:00 19.38333 C 28.1917 %
1571 19-07-2019 00:00:00 20.12667 C 31.9750 %
1572 20-07-2019 00:00:00 21.81667 C 30.3083 %
1573 21-07-2019 00:00:00 22.37333 C 25.8833 %
1574 22-07-2019 00:00:00 22.7225 C 26.2833 %
1575 23-07-2019 00:00:00 25.34083 C 25.5333 %
Sensor: Nr:Datum:Temp:Feuchte:
Aussen-T/F 1576 24-07-2019 00:00:00 27.1975 C 24.2750 %
1577 25-07-2019 00:00:00 28.90167 C 21.7333 %
1578 26-07-2019 00:00:00 27.54417 C 21.2500 %
1579 27-07-2019 00:00:00 23.4375 C 26.6833 %
1580 28-07-2019 00:00:00 19.93083 C 38.1333 %
1581 29-07-2019 00:00:00 21.45583 C 29.3333 %
1582 30-07-2019 00:00:00 22.35833 C 26.7167 %
1583 31-07-2019 00:00:00 21.48417 C 20.5333 %
1584 01-08-2019 00:00:00 19.83417 C 22.9750 %
1585 02-08-2019 00:00:00 20.8775 C 22.8500 %
1586 03-08-2019 00:00:00 20.77167 C 24.6333 %
1587 04-08-2019 00:00:00 21.00667 C 28.3000 %
1588 05-08-2019 00:00:00 22.56833 C 24.9167 %
1589 06-08-2019 00:00:00 20.0075 C 30.3333 %
1590 07-08-2019 00:00:00 19.10167 C 41.3833 %
1591 08-08-2019 00:00:00 20.55667 C 30.6417 %
1592 09-08-2019 00:00:00 19.73833 C 39.4583 %
1593 10-08-2019 00:00:00 20.72917 C 37.6833 %
1594 11-08-2019 00:00:00 17.03333 C 35.9000 %
1595 12-08-2019 00:00:00 16.51583 C 38.9833 %
1596 13-08-2019 00:00:00 16.10833 C 35.2833 %
1597 14-08-2019 00:00:00 16.6875 C 34.0417 %
1598 15-08-2019 00:00:00 17.20583 C 40.0250 %
1599 16-08-2019 00:00:00 17.84 C 34.2250 %
1600 17-08-2019 00:00:00 17.89333 C 38.0750 %
Sensor: Nr:Datum:Temp:Feuchte:
Aussen-T/F 1601 18-08-2019 00:00:00 19.71833 C 44.5000 %
1602 19-08-2019 00:00:00 18.45167 C 33.8417 %
1603 20-08-2019 00:00:00 15.91167 C 33.3250 %
1604 21-08-2019 00:00:00 16.52917 C 33.4750 %
1605 22-08-2019 00:00:00 17.12333 C 32.3667 %
1606 23-08-2019 00:00:00 18.31667 C 31.5083 %
1607 24-08-2019 00:00:00 19.36333 C 30.9833 %
1608 25-08-2019 00:00:00 21.54583 C 29.8917 %
1609 26-08-2019 00:00:00 22.17 C 33.4833 %
1610 27-08-2019 00:00:00 22.70333 C 35.1667 %
1611 28-08-2019 00:00:00 23.4425 C 30.4583 %
1612 29-08-2019 00:00:00 22.20333 C 28.3583 %
1613 30-08-2019 00:00:00 21.07 C 29.2583 %
1614 31-08-2019 00:00:00 21.975 C 30.7583 %
1615 01-09-2019 00:00:00 18.8525 C 26.8333 %
1616 02-09-2019 00:00:00 15.49333 C 28.2000 %
1617 03-09-2019 00:00:00 15.72917 C 28.0833 %
1618 04-09-2019 00:00:00 16.9525 C 33.9667 %
1619 05-09-2019 00:00:00 15.59 C 26.2917 %
1620 06-09-2019 00:00:00 13.58917 C 31.1917 %
1621 07-09-2019 00:00:00 12.6975 C 39.5000 %
1622 08-09-2019 00:00:00 12.7439 C 48.5935 %
1623 09-09-2019 00:00:00 15.23733 C 38.6667 %
1624 10-09-2019 00:00:00 12.20486 C 22.8264 %
1625 11-09-2019 00:00:00 13.35556 C 20.8472 %
Sensor: Nr:Datum:Temp:Feuchte:
Aussen-T/F 1626 12-09-2019 00:00:00 19.325 C 20.0000 %
1627 13-09-2019 00:00:00 17.86806 C 20.1111 %
1628 14-09-2019 00:00:00 15.93333 C 22.4375 %
1629 15-09-2019 00:00:00 15.65694 C 21.2778 %
1630 16-09-2019 00:00:00 16.21389 C 20.0000 %
1631 17-09-2019 00:00:00 15.87708 C 20.0000 %
1632 18-09-2019 00:00:00 11.47361 C 20.7917 %
1633 19-09-2019 00:00:00 10.53333 C 21.8194 %
1634 20-09-2019 00:00:00 10.80486 C 20.8472 %
1635 21-09-2019 00:00:00 12.45278 C 20.6597 %
1636 22-09-2019 00:00:00 14.78542 C 20.7500 %
1637 23-09-2019 00:00:00 16.6875 C 22.1528 %
1638 24-09-2019 00:00:00 13.94306 C 26.6319 %
1639 25-09-2019 00:00:00 15.31806 C 25.0417 %
1640 26-09-2019 00:00:00 16.10903 C 26.0000 %
1641 27-09-2019 00:00:00 16.23333 C 23.7708 %
1642 28-09-2019 00:00:00 15.40208 C 22.5833 %
1643 29-09-2019 00:00:00 16.05972 C 21.6597 %
1644 30-09-2019 00:00:00 15.48194 C 21.1319 %
1645 01-10-2019 00:00:00 15.84375 C 23.4931 %
1646 02-10-2019 00:00:00 12.57569 C 23.6111 %
1647 03-10-2019 00:00:00 9.35625 C 27.6944 %
1648 04-10-2019 00:00:00 10.03681 C 31.8403 %
1649 05-10-2019 00:00:00 10.32986 C 26.5903 %
1650 06-10-2019 00:00:00 7.85764 C 34.1250 %
Sensor: Nr:Datum:Temp:Feuchte:
Aussen-T/F 1651 07-10-2019 00:00:00 9.80764 C 31.8819 %
1652 08-10-2019 00:00:00 12.35833 C 31.0694 %
1653 09-10-2019 00:00:00 11.56667 C 27.7431 %
1654 10-10-2019 00:00:00 11.49097 C 26.2153 %
1655 11-10-2019 00:00:00 12.41458 C 28.8194 %
1656 12-10-2019 00:00:00 13.21111 C 29.6875 %
1657 13-10-2019 00:00:00 16.35417 C 28.4722 %
1658 14-10-2019 00:00:00 15.8125 C 27.6528 %
1659 15-10-2019 00:00:00 13.94028 C 29.8611 %
1660 16-10-2019 00:00:00 12.42153 C 29.2917 %
1661 17-10-2019 00:00:00 14.32708 C 27.4167 %
1662 18-10-2019 00:00:00 12.3125 C 29.7292 %
1663 19-10-2019 00:00:00 12.78194 C 28.2083 %
1664 20-10-2019 00:00:00 13.0875 C 34.7778 %
1665 21-10-2019 00:00:00 13.30486 C 29.2014 %
1666 22-10-2019 00:00:00 11.45 C 27.8819 %
1667 23-10-2019 00:00:00 10.68403 C 31.1181 %
1668 24-10-2019 00:00:00 13.85208 C 27.9236 %
1669 25-10-2019 00:00:00 13.1625 C 24.9444 %
1670 26-10-2019 00:00:00 12.72639 C 27.5417 %
1671 27-10-2019 00:00:00 9.68467 C 30.8733 %
1672 28-10-2019 00:00:00 5.91597 C 35.2014 %
1673 29-10-2019 00:00:00 6.21181 C 29.3264 %
1674 30-10-2019 00:00:00 2.93333 C 34.5347 %
1675 31-10-2019 00:00:00 1.41875 C 34.8333 %
Sensor: Nr:Datum:Temp:Feuchte:
Aussen-T/F 1676 01-11-2019 00:00:00 5.44792 C 36.7292 %
1677 02-11-2019 00:00:00 12.8125 C 27.6458 %
1678 03-11-2019 00:00:00 11.45069 C 29.7639 %
1679 04-11-2019 00:00:00 9.88542 C 30.2153 %
1680 05-11-2019 00:00:00 9.25069 C 27.4306 %
1681 06-11-2019 00:00:00 8.33542 C 34.7014 %
1682 07-11-2019 00:00:00 7.30278 C 33.8333 %
1683 08-11-2019 00:00:00 4.29028 C 37.7153 %
1684 09-11-2019 00:00:00 4.26806 C 33.1111 %
1685 10-11-2019 00:00:00 2.51319 C 34.9861 %
1686 11-11-2019 00:00:00 4.2 C 27.4792 %
1687 12-11-2019 00:00:00 5.41667 C 25.4792 %
1688 13-11-2019 00:00:00 4.93472 C 22.9861 %
1689 14-11-2019 00:00:00 4.86042 C 26.9861 %
1690 15-11-2019 00:00:00 4.08472 C 26.3333 %
1691 16-11-2019 00:00:00 1.19444 C 38.8125 %
1692 17-11-2019 00:00:00 2.39861 C 40.2708 %
1693 18-11-2019 00:00:00 3.51667 C 36.2847 %
1694 19-11-2019 00:00:00 3.06736 C 36.5833 %
1695 20-11-2019 00:00:00 0.75972 C 37.8403 %
1696 21-11-2019 00:00:00 1.18951 C 39.3846 %
1697 22-11-2019 00:00:00 3.65972 C 35.6806 %
1698 23-11-2019 00:00:00 4.64653 C 33.3889 %
1699 24-11-2019 00:00:00 1.99861 C 41.4722 %
1700 25-11-2019 00:00:00 4.16319 C 39.3681 %
Sensor: Nr:Datum:Temp:Feuchte:
Aussen-T/F 1701 26-11-2019 00:00:00 7.75903 C 34.8472 %
1702 27-11-2019 00:00:00 9.72083 C 30.6875 %
1703 28-11-2019 00:00:00 10.55833 C 22.1319 %
1704 29-11-2019 00:00:00 5.75486 C 30.7639 %
1705 30-11-2019 00:00:00 0.48194 C 42.0972 %
1706 01-12-2019 00:00:00 1.14236 C 33.0139 %
1707 02-12-2019 00:00:00 1.20556 C 36.2986 %
1708 03-12-2019 00:00:00 3.97431 C 39.2292 %
1709 04-12-2019 00:00:00 0.41389 C 41.6111 %
1710 05-12-2019 00:00:00 -2.03194 C 42.0972 %
1711 06-12-2019 00:00:00 2.6125 C 34.4722 %
1712 07-12-2019 00:00:00 8.20694 C 27.7292 %
1713 08-12-2019 00:00:00 9.69931 C 24.2778 %
1714 09-12-2019 00:00:00 7.09444 C 23.9722 %
1715 10-12-2019 00:00:00 2.37361 C 34.0000 %
1716 11-12-2019 00:00:00 3.12569 C 39.3056 %
1717 12-12-2019 00:00:00 2.64931 C 37.2500 %
1718 13-12-2019 00:00:00 3.25278 C 34.0069 %
1719 14-12-2019 00:00:00 6.22222 C 28.0625 %
1720 15-12-2019 00:00:00 7.24792 C 30.8958 %
1721 16-12-2019 00:00:00 7.47361 C 39.2986 %
1722 17-12-2019 00:00:00 9.69514 C 31.9653 %
1723 18-12-2019 00:00:00 6.95069 C 37.4792 %
1724 19-12-2019 00:00:00 4.60972 C 40.5417 %
1725 20-12-2019 00:00:00 6.87778 C 35.7847 %
Sensor: Nr:Datum:Temp:Feuchte:
Aussen-T/F 1726 21-12-2019 00:00:00 6.42778 C 32.4306 %
1727 22-12-2019 00:00:00 7.57917 C 31.0556 %
1728 23-12-2019 00:00:00 7.34861 C 28.6111 %
1729 24-12-2019 00:00:00 7.20278 C 29.9097 %
1730 25-12-2019 00:00:00 6.91944 C 32.8333 %
1731 26-12-2019 00:00:00 4.25278 C 40.6250 %
1732 27-12-2019 00:00:00 4.41181 C 36.8819 %
1733 28-12-2019 00:00:00 -1.22431 C 42.5000 %
1734 29-12-2019 00:00:00 -2.07708 C 39.8819 %
1735 30-12-2019 00:00:00 -1.99931 C 39.1319 %
1736 31-12-2019 00:00:00 -0.41736 C 39.5556 %
1737 01-01-2020 00:00:00 -0.10764 C 41.3403 %
1738 02-01-2020 00:00:00 0.98958 C 39.7014 %
1739 03-01-2020 00:00:00 7.00972 C 33.4653 %
1740 04-01-2020 00:00:00 4.78264 C 32.5903 %
1741 05-01-2020 00:00:00 5.21806 C 35.8750 %
1742 06-01-2020 00:00:00 2.11667 C 38.1667 %
1743 07-01-2020 00:00:00 4.43611 C 34.6944 %
1744 08-01-2020 00:00:00 7.71389 C 34.4167 %
1745 09-01-2020 00:00:00 10.33542 C 35.2292 %
1746 10-01-2020 00:00:00 8.27917 C 30.8958 %
1747 11-01-2020 00:00:00 3.61806 C 33.7639 %
1748 12-01-2020 00:00:00 4.57083 C 30.3889 %
1749 13-01-2020 00:00:00 5.88472 C 35.0903 %
1750 14-01-2020 00:00:00 9.28264 C 24.1181 %
Sensor: Nr:Datum:Temp:Feuchte:
Aussen-T/F 1751 15-01-2020 00:00:00 10.27083 C 23.7500 %
1752 16-01-2020 00:00:00 7.07569 C 40.1944 %
1753 17-01-2020 00:00:00 5.27986 C 39.1944 %
1754 18-01-2020 00:00:00 3.79028 C 32.6042 %
1755 19-01-2020 00:00:00 3.01389 C 40.8194 %
1756 20-01-2020 00:00:00 1.64861 C 39.3889 %
1757 21-01-2020 00:00:00 -2.675 C 44.7986 %
1758 22-01-2020 00:00:00 -1.95347 C 44.7153 %
1759 23-01-2020 00:00:00 0.53819 C 43.6458 %
1760 24-01-2020 00:00:00 0.81319 C 35.7222 %
1761 25-01-2020 00:00:00 1.99236 C 39.2014 %
1762 26-01-2020 00:00:00 2.13056 C 41.5625 %
1763 27-01-2020 00:00:00 5.48542 C 39.8264 %
1764 28-01-2020 00:00:00 5.07708 C 30.3750 %
1765 29-01-2020 00:00:00 4.20764 C 29.8611 %
1766 30-01-2020 00:00:00 7.57569 C 29.5694 %
1767 31-01-2020 00:00:00 12.86181 C 27.9167 %
1768 01-02-2020 00:00:00 11.16597 C 32.0972 %
1769 02-02-2020 00:00:00 9.925 C 31.1319 %
1770 03-02-2020 00:00:00 10.19236 C 29.5139 %
1771 04-02-2020 00:00:00 4.29514 C 36.4097 %
1772 05-02-2020 00:00:00 3.05069 C 37.1458 %
1773 06-02-2020 00:00:00 0.04514 C 42.7500 %
1774 07-02-2020 00:00:00 -0.30764 C 42.8264 %
1775 08-02-2020 00:00:00 1.01389 C 43.0069 %
Sensor: Nr:Datum:Temp:Feuchte:
Aussen-T/F 1776 09-02-2020 00:00:00 8.36458 C 32.5764 %
1777 10-02-2020 00:00:00 7.85 C 31.3611 %
1778 11-02-2020 00:00:00 5.29167 C 24.6597 %
1779 12-02-2020 00:00:00 4.32083 C 30.5972 %
1780 13-02-2020 00:00:00 3.32917 C 42.1250 %
1781 14-02-2020 00:00:00 5.46458 C 39.2639 %
1782 15-02-2020 00:00:00 5.89931 C 38.0278 %
1783 16-02-2020 00:00:00 14.44931 C 23.2431 %
1784 17-02-2020 00:00:00 8.25903 C 32.4167 %
1785 18-02-2020 00:00:00 6.89097 C 31.0347 %
1786 19-02-2020 00:00:00 5.73889 C 30.1875 %
1787 20-02-2020 00:00:00 7.7125 C 32.9722 %
1788 21-02-2020 00:00:00 4.71042 C 33.5972 %
1789 22-02-2020 00:00:00 7.67986 C 30.0347 %
1790 23-02-2020 00:00:00 10.01389 C 35.3403 %
1791 24-02-2020 00:00:00 7.74653 C 36.3194 %
1792 25-02-2020 00:00:00 8.81597 C 32.2778 %
1793 26-02-2020 00:00:00 4.37431 C 33.6806 %
1794 27-02-2020 00:00:00 2.22153 C 41.6806 %
1795 28-02-2020 00:00:00 3.52431 C 38.4514 %
1796 29-02-2020 00:00:00 8.60556 C 34.8889 %
1797 01-03-2020 00:00:00 7.15694 C 36.0000 %
1798 02-03-2020 00:00:00 5.99375 C 40.1667 %
1799 03-03-2020 00:00:00 4.26806 C 39.6458 %
1800 04-03-2020 00:00:00 5.28958 C 37.5764 %
Sensor: Nr:Datum:Temp:Feuchte:
Aussen-T/F 1801 05-03-2020 00:00:00 5.45764 C 43.0833 %
1802 06-03-2020 00:00:00 5.63958 C 40.4931 %
1803 07-03-2020 00:00:00 6.26458 C 33.7569 %
1804 08-03-2020 00:00:00 9.46458 C 32.2361 %
1805 09-03-2020 00:00:00 7.81875 C 35.4514 %
1806 10-03-2020 00:00:00 9.06181 C 39.4514 %
1807 11-03-2020 00:00:00 14.0375 C 35.2639 %
1808 12-03-2020 00:00:00 11.01597 C 30.3681 %
1809 13-03-2020 00:00:00 6.99236 C 33.4236 %
1810 14-03-2020 00:00:00 5.89028 C 38.1667 %
1811 15-03-2020 00:00:00 9.14653 C 32.2153 %
1812 16-03-2020 00:00:00 9.43264 C 35.6667 %
1813 17-03-2020 00:00:00 12.02708 C 33.7847 %
1814 18-03-2020 00:00:00 9.92639 C 36.2153 %
1815 19-03-2020 00:00:00 12.58194 C 32.0417 %
1816 20-03-2020 00:00:00 10.52657 C 36.2308 %
1817 21-03-2020 00:00:00 5.89653 C 34.6597 %
1818 22-03-2020 00:00:00 4.30139 C 28.5278 %
1819 23-03-2020 00:00:00 3.12292 C 27.0764 %
1820 24-03-2020 00:00:00 2.82431 C 27.8403 %
1821 25-03-2020 00:00:00 3.67014 C 25.0486 %
1822 26-03-2020 00:00:00 5.25486 C 23.4931 %
1823 27-03-2020 00:00:00 8.10139 C 29.8819 %
1824 28-03-2020 00:00:00 9.69236 C 30.9306 %
1825 29-03-2020 00:00:00 5.0942 C 30.1377 %
Sensor: Nr:Datum:Temp:Feuchte:
Aussen-T/F 1826 30-03-2020 00:00:00 2.89028 C 29.9167 %
1827 31-03-2020 00:00:00 5.79792 C 30.1528 %
Sensor: Nr:Datum:Temp:Feuchte:
G-T/H 1 01-04-2015 00:00:00 9.45 C 61.7417 %
2 02-04-2015 00:00:00 9.125 C 62.6750 %
3 03-04-2015 00:00:00 8.76583 C 61.2667 %
4 04-04-2015 00:00:00 9.31417 C 63.2083 %
5 05-04-2015 00:00:00 8.58 C 60.8000 %
6 06-04-2015 00:00:00 8.60833 C 62.3000 %
7 07-04-2015 00:00:00 8.61083 C 63.5750 %
8 08-04-2015 00:00:00 8.96 C 63.3167 %
9 09-04-2015 00:00:00 9.85667 C 66.9083 %
10 10-04-2015 00:00:00 10.805 C 67.4500 %
11 11-04-2015 00:00:00 11.43417 C 66.7167 %
12 12-04-2015 00:00:00 11.4575 C 66.6917 %
13 13-04-2015 00:00:00 11.5775 C 66.7250 %
14 14-04-2015 00:00:00 11.26333 C 65.1250 %
15 15-04-2015 00:00:00 12.2475 C 67.9333 %
16 16-04-2015 00:00:00 12.9 C 68.0667 %
17 17-04-2015 00:00:00 12.79333 C 64.6583 %
18 18-04-2015 00:00:00 11.38833 C 59.6667 %
19 19-04-2015 00:00:00 10.67417 C 60.6583 %
20 20-04-2015 00:00:00 10.87 C 59.7250 %
21 21-04-2015 00:00:00 13.19083 C 54.3833 %
22 22-04-2015 00:00:00 12.6975 C 58.9083 %
23 23-04-2015 00:00:00 11.73833 C 61.1250 %
24 24-04-2015 00:00:00 11.9775 C 62.2250 %
25 25-04-2015 00:00:00 12.93167 C 66.2667 %
Sensor: Nr:Datum:Temp:Feuchte:
G-T/H 26 26-04-2015 00:00:00 13.24583 C 68.6917 %
27 27-04-2015 00:00:00 13.34833 C 69.2000 %
28 28-04-2015 00:00:00 11.89083 C 64.3333 %
29 29-04-2015 00:00:00 11.16667 C 61.7083 %
30 30-04-2015 00:00:00 12.04333 C 65.8333 %
31 01-05-2015 00:00:00 11.29333 C 65.6917 %
32 02-05-2015 00:00:00 11.58667 C 59.4000 %
33 03-05-2015 00:00:00 12.69833 C 65.7750 %
34 04-05-2015 00:00:00 13.4175 C 68.9250 %
35 05-05-2015 00:00:00 14.60308 C 69.0000 %
36 06-05-2015 00:00:00 14.5625 C 64.7667 %
37 07-05-2015 00:00:00 13.93583 C 63.4917 %
38 08-05-2015 00:00:00 13.885 C 63.8667 %
39 09-05-2015 00:00:00 14.42583 C 67.1250 %
40 10-05-2015 00:00:00 14.335 C 68.0333 %
41 11-05-2015 00:00:00 14.62917 C 68.3000 %
42 12-05-2015 00:00:00 15.545 C 69.8000 %
43 13-05-2015 00:00:00 14.80917 C 61.9917 %
44 14-05-2015 00:00:00 14.8 C 64.8583 %
45 15-05-2015 00:00:00 14.81083 C 67.7083 %
46 16-05-2015 00:00:00 14.17583 C 64.5750 %
47 17-05-2015 00:00:00 14.19833 C 66.5000 %
48 18-05-2015 00:00:00 14.45917 C 65.1583 %
49 19-05-2015 00:00:00 14.70336 C 62.5882 %
50 20-05-2015 00:00:00 14.285 C 61.3583 %
Sensor: Nr:Datum:Temp:Feuchte:
G-T/H 51 21-05-2015 00:00:00 13.67167 C 60.8917 %
52 22-05-2015 00:00:00 14.2 C 62.6500 %
53 23-05-2015 00:00:00 15.09417 C 64.1833 %
54 24-05-2015 00:00:00 15.51167 C 66.0667 %
55 25-05-2015 00:00:00 15.44167 C 67.6833 %
56 26-05-2015 00:00:00 14.56583 C 64.3667 %
57 27-05-2015 00:00:00 13.92167 C 61.9000 %
58 28-05-2015 00:00:00 14.09667 C 63.4417 %
59 29-05-2015 00:00:00 14.41083 C 66.2083 %
60 30-05-2015 00:00:00 14.2725 C 64.4167 %
61 31-05-2015 00:00:00 13.905 C 62.9500 %
62 01-06-2015 00:00:00 15 C 67.3083 %
63 02-06-2015 00:00:00 15.0325 C 66.7583 %
64 03-06-2015 00:00:00 15.72083 C 67.7250 %
65 04-06-2015 00:00:00 16.01917 C 67.6000 %
66 05-06-2015 00:00:00 17.0325 C 68.6917 %
67 06-06-2015 00:00:00 18.33167 C 69.6917 %
68 07-06-2015 00:00:00 17.33583 C 63.9667 %
69 08-06-2015 00:00:00 16.80667 C 62.2833 %
70 09-06-2015 00:00:00 16.3075 C 60.2500 %
71 10-06-2015 00:00:00 15.97333 C 63.2417 %
72 11-06-2015 00:00:00 17.04083 C 65.1750 %
73 12-06-2015 00:00:00 17.6475 C 66.8667 %
74 13-06-2015 00:00:00 17.74417 C 69.4250 %
75 14-06-2015 00:00:00 17.46333 C 68.0500 %
Sensor: Nr:Datum:Temp:Feuchte:
G-T/H 76 15-06-2015 00:00:00 17.66333 C 67.1417 %
77 16-06-2015 00:00:00 17.08667 C 62.2083 %
78 17-06-2015 00:00:00 16.53083 C 59.9583 %
79 18-06-2015 00:00:00 16.97917 C 64.2333 %
80 19-06-2015 00:00:00 16.2025 C 63.4083 %
81 20-06-2015 00:00:00 15.62667 C 66.2917 %
82 21-06-2015 00:00:00 15.70413 C 68.0579 %
83 22-06-2015 00:00:00 15.6825 C 68.9417 %
84 23-06-2015 00:00:00 14.70917 C 69.2083 %
85 24-06-2015 00:00:00 14.74417 C 70.1583 %
86 25-06-2015 00:00:00 15.75583 C 70.2250 %
87 26-06-2015 00:00:00 16.96 C 70.9417 %
88 27-06-2015 00:00:00 18.00603 C 70.2500 %
89 28-06-2015 00:00:00 17.55833 C 67.8250 %
90 29-06-2015 00:00:00 18.61083 C 67.1667 %
91 30-06-2015 00:00:00 18.97333 C 65.3917 %
92 01-07-2015 00:00:00 19.56417 C 65.4833 %
93 02-07-2015 00:00:00 20.71917 C 67.3083 %
94 03-07-2015 00:00:00 22.09333 C 67.5333 %
95 04-07-2015 00:00:00 23.02333 C 66.0667 %
96 05-07-2015 00:00:00 23.00667 C 66.4583 %
97 06-07-2015 00:00:00 21.73583 C 63.1500 %
98 07-07-2015 00:00:00 20.9225 C 64.1583 %
99 08-07-2015 00:00:00 20.17417 C 62.1917 %
100 09-07-2015 00:00:00 18.86667 C 60.0250 %
Sensor: Nr:Datum:Temp:Feuchte:
G-T/H 101 10-07-2015 00:00:00 18.11167 C 57.7167 %
102 11-07-2015 00:00:00 20.0325 C 52.9917 %
103 12-07-2015 00:00:00 19.95167 C 59.6083 %
104 13-07-2015 00:00:00 18.8825 C 64.7917 %
105 14-07-2015 00:00:00 18.82833 C 67.3417 %
106 15-07-2015 00:00:00 20.49667 C 63.8917 %
107 16-07-2015 00:00:00 20.81917 C 66.0000 %
108 17-07-2015 00:00:00 23.54583 C 55.9833 %
109 18-07-2015 00:00:00 22.705 C 60.1667 %
110 19-07-2015 00:00:00 21.30417 C 63.4167 %
111 20-07-2015 00:00:00 21.16667 C 70.0917 %
112 21-07-2015 00:00:00 22.84 C 66.7833 %
113 22-07-2015 00:00:00 23.2075 C 64.8667 %
114 23-07-2015 00:00:00 22.08917 C 55.4167 %
115 24-07-2015 00:00:00 21.55833 C 57.6333 %
116 25-07-2015 00:00:00 20.4825 C 59.9167 %
117 26-07-2015 00:00:00 18.76387 C 59.6723 %
118 27-07-2015 00:00:00 18.50833 C 64.7833 %
119 28-07-2015 00:00:00 18.6175 C 55.4750 %
120 29-07-2015 00:00:00 18.64917 C 50.9833 %
121 30-07-2015 00:00:00 17.90333 C 55.0083 %
122 31-07-2015 00:00:00 17.51667 C 56.3750 %
123 01-08-2015 00:00:00 17.9775 C 60.4250 %
124 02-08-2015 00:00:00 19.4225 C 58.7000 %
125 03-08-2015 00:00:00 20.1325 C 58.5833 %
Sensor: Nr:Datum:Temp:Feuchte:
G-T/H 126 04-08-2015 00:00:00 20.325 C 61.9083 %
127 05-08-2015 00:00:00 19.47833 C 64.3583 %
128 06-08-2015 00:00:00 20.25917 C 64.3583 %
129 07-08-2015 00:00:00 21.64083 C 65.0917 %
130 08-08-2015 00:00:00 22.08917 C 67.8167 %
131 09-08-2015 00:00:00 21.58083 C 67.9583 %
132 10-08-2015 00:00:00 21.44333 C 67.1417 %
133 11-08-2015 00:00:00 20.96333 C 67.0833 %
134 12-08-2015 00:00:00 21.32417 C 68.4000 %
135 13-08-2015 00:00:00 21.7175 C 68.6917 %
136 14-08-2015 00:00:00 22.36583 C 68.3750 %
137 15-08-2015 00:00:00 21.69333 C 66.6833 %
138 16-08-2015 00:00:00 20.2775 C 67.3583 %
139 17-08-2015 00:00:00 18.54417 C 68.6917 %
140 18-08-2015 00:00:00 18.02417 C 65.2417 %
141 19-08-2015 00:00:00 17.90417 C 60.9667 %
142 20-08-2015 00:00:00 19.13083 C 58.4750 %
143 21-08-2015 00:00:00 19.29417 C 60.4167 %
144 22-08-2015 00:00:00 18.915 C 60.9667 %
145 23-08-2015 00:00:00 18.9 C 61.1250 %
146 24-08-2015 00:00:00 19.19083 C 65.2833 %
147 25-08-2015 00:00:00 18.72667 C 64.5750 %
148 26-08-2015 00:00:00 18.58917 C 65.1833 %
149 27-08-2015 00:00:00 19.03083 C 67.3000 %
150 28-08-2015 00:00:00 18.38333 C 69.0250 %
Sensor: Nr:Datum:Temp:Feuchte:
G-T/H 151 29-08-2015 00:00:00 18.38417 C 70.4583 %
152 30-08-2015 00:00:00 19.39 C 72.3917 %
153 31-08-2015 00:00:00 20.6975 C 69.4083 %
154 01-09-2015 00:00:00 20.15 C 70.1583 %
155 02-09-2015 00:00:00 18.33167 C 68.7667 %
156 03-09-2015 00:00:00 17.54583 C 67.2417 %
157 04-09-2015 00:00:00 16.6275 C 64.0667 %
158 05-09-2015 00:00:00 14.8325 C 67.1583 %
159 06-09-2015 00:00:00 15.50833 C 66.5667 %
160 07-09-2015 00:00:00 15.67333 C 69.1250 %
161 08-09-2015 00:00:00 16.0075 C 71.3833 %
162 09-09-2015 00:00:00 16.68 C 65.9000 %
163 10-09-2015 00:00:00 15.92 C 64.2000 %
164 11-09-2015 00:00:00 15.59583 C 63.3917 %
165 12-09-2015 00:00:00 15.57 C 65.8583 %
166 13-09-2015 00:00:00 16.57667 C 71.0667 %
167 14-09-2015 00:00:00 16.69 C 71.9500 %
168 15-09-2015 00:00:00 15.7175 C 69.5500 %
169 16-09-2015 00:00:00 15.56417 C 72.2167 %
170 17-09-2015 00:00:00 15.93583 C 73.4417 %
171 18-09-2015 00:00:00 15.6125 C 73.4833 %
172 19-09-2015 00:00:00 15.85667 C 71.3750 %
173 20-09-2015 00:00:00 15.74917 C 72.2333 %
174 21-09-2015 00:00:00 15.62167 C 69.7583 %
175 22-09-2015 00:00:00 15.61417 C 71.9750 %
Sensor: Nr:Datum:Temp:Feuchte:
G-T/H 176 23-09-2015 00:00:00 14.74167 C 72.0667 %
177 24-09-2015 00:00:00 15.12083 C 72.9833 %
178 25-09-2015 00:00:00 15.3225 C 73.5083 %
179 26-09-2015 00:00:00 15.25667 C 72.2500 %
180 27-09-2015 00:00:00 14.47833 C 70.7250 %
181 28-09-2015 00:00:00 13.82083 C 63.8500 %
182 29-09-2015 00:00:00 13.9225 C 64.3833 %
183 30-09-2015 00:00:00 13.78667 C 63.5833 %
184 01-10-2015 00:00:00 12.79667 C 62.8583 %
185 02-10-2015 00:00:00 11.94833 C 64.4333 %
186 03-10-2015 00:00:00 12.395 C 70.0000 %
187 04-10-2015 00:00:00 13.28417 C 73.1000 %
188 05-10-2015 00:00:00 13.6925 C 73.3583 %
189 06-10-2015 00:00:00 14.75417 C 74.7000 %
190 07-10-2015 00:00:00 15.23833 C 74.9833 %
191 08-10-2015 00:00:00 15.18667 C 73.9750 %
192 09-10-2015 00:00:00 14.90167 C 74.2417 %
193 10-10-2015 00:00:00 14.54667 C 73.4250 %
194 11-10-2015 00:00:00 13.0525 C 61.8500 %
195 12-10-2015 00:00:00 11.29 C 60.7667 %
196 13-10-2015 00:00:00 10.26417 C 62.5750 %
197 14-10-2015 00:00:00 10.07 C 64.2000 %
198 15-10-2015 00:00:00 10.03 C 67.6500 %
199 16-10-2015 00:00:00 10.35583 C 70.7583 %
200 17-10-2015 00:00:00 10.84417 C 70.2250 %
Sensor: Nr:Datum:Temp:Feuchte:
G-T/H 201 18-10-2015 00:00:00 11.1475 C 71.3417 %
202 19-10-2015 00:00:00 11.18917 C 70.2667 %
203 20-10-2015 00:00:00 11.92083 C 73.4083 %
204 21-10-2015 00:00:00 12.1125 C 74.2667 %
205 22-10-2015 00:00:00 12.43083 C 74.8083 %
206 23-10-2015 00:00:00 12.8525 C 74.9750 %
207 24-10-2015 00:00:00 12.94083 C 73.2333 %
208 25-10-2015 00:00:00 12.9792 C 75.2880 %
209 26-10-2015 00:00:00 12.87083 C 74.4417 %
210 27-10-2015 00:00:00 11.90417 C 71.7000 %
211 28-10-2015 00:00:00 12.22417 C 74.5667 %
212 29-10-2015 00:00:00 12.4025 C 76.0083 %
213 30-10-2015 00:00:00 11.73667 C 72.8167 %
214 31-10-2015 00:00:00 11.19583 C 71.7583 %
215 01-11-2015 00:00:00 11.01 C 71.9750 %
216 02-11-2015 00:00:00 10.25583 C 69.3417 %
217 03-11-2015 00:00:00 9.9 C 70.3417 %
218 04-11-2015 00:00:00 10.06333 C 72.9667 %
219 05-11-2015 00:00:00 11.00667 C 76.0333 %
220 06-11-2015 00:00:00 12.04833 C 77.4500 %
221 07-11-2015 00:00:00 13.56417 C 78.3083 %
222 08-11-2015 00:00:00 13.79583 C 78.0000 %
223 09-11-2015 00:00:00 13.61583 C 78.0000 %
224 10-11-2015 00:00:00 13.80667 C 77.5667 %
225 11-11-2015 00:00:00 13.58 C 75.5167 %
Sensor: Nr:Datum:Temp:Feuchte:
G-T/H 226 12-11-2015 00:00:00 13.18583 C 76.2500 %
227 13-11-2015 00:00:00 12.58833 C 74.3167 %
228 14-11-2015 00:00:00 11.79167 C 70.2667 %
229 15-11-2015 00:00:00 12.18917 C 75.3083 %
230 16-11-2015 00:00:00 12.73 C 76.3750 %
231 17-11-2015 00:00:00 13.1775 C 77.0250 %
232 18-11-2015 00:00:00 13.73417 C 75.3917 %
233 19-11-2015 00:00:00 13.50583 C 75.1167 %
234 20-11-2015 00:00:00 12.18583 C 73.3667 %
235 21-11-2015 00:00:00 10.22417 C 66.4333 %
236 22-11-2015 00:00:00 8.77167 C 65.9583 %
237 23-11-2015 00:00:00 8.46833 C 67.1833 %
238 24-11-2015 00:00:00 8.06917 C 63.9917 %
239 25-11-2015 00:00:00 8.435 C 70.2917 %
240 26-11-2015 00:00:00 8.96833 C 72.8250 %
241 27-11-2015 00:00:00 8.3625 C 67.3417 %
242 28-11-2015 00:00:00 8.02333 C 67.4417 %
243 29-11-2015 00:00:00 8.965 C 72.4583 %
244 30-11-2015 00:00:00 10.345 C 74.4000 %
245 01-12-2015 00:00:00 11.16167 C 75.7250 %
246 02-12-2015 00:00:00 11.5875 C 75.8583 %
247 03-12-2015 00:00:00 11.085 C 72.3083 %
248 04-12-2015 00:00:00 10.09583 C 70.4250 %
249 05-12-2015 00:00:00 9.69167 C 72.4167 %
250 06-12-2015 00:00:00 9.48167 C 73.3917 %
Sensor: Nr:Datum:Temp:Feuchte:
G-T/H 251 07-12-2015 00:00:00 10.12083 C 75.0750 %
252 08-12-2015 00:00:00 9.17917 C 71.0417 %
253 09-12-2015 00:00:00 9.33333 C 74.2750 %
254 10-12-2015 00:00:00 8.84 C 70.2167 %
255 11-12-2015 00:00:00 8.05417 C 68.8833 %
256 12-12-2015 00:00:00 9.27583 C 74.2583 %
257 13-12-2015 00:00:00 10.04333 C 75.4167 %
258 14-12-2015 00:00:00 9.92917 C 75.1000 %
259 15-12-2015 00:00:00 8.91417 C 73.0167 %
260 16-12-2015 00:00:00 9.75667 C 76.1250 %
261 17-12-2015 00:00:00 11.36167 C 76.8583 %
262 18-12-2015 00:00:00 11.77417 C 77.0000 %
263 19-12-2015 00:00:00 12.04333 C 76.6167 %
264 20-12-2015 00:00:00 10.83917 C 74.4583 %
265 21-12-2015 00:00:00 10.93667 C 76.5083 %
266 22-12-2015 00:00:00 11.40833 C 76.6833 %
267 23-12-2015 00:00:00 11.51 C 76.4250 %
268 24-12-2015 00:00:00 10.82167 C 76.2250 %
269 25-12-2015 00:00:00 11.42167 C 77.0000 %
270 26-12-2015 00:00:00 11.68 C 77.0000 %
271 27-12-2015 00:00:00 10.6275 C 76.1250 %
272 28-12-2015 00:00:00 8.98083 C 70.9167 %
273 29-12-2015 00:00:00 7.58917 C 69.2083 %
274 30-12-2015 00:00:00 8.2025 C 73.7833 %
275 31-12-2015 00:00:00 8.56 C 74.3250 %
Sensor: Nr:Datum:Temp:Feuchte:
G-T/H 276 01-01-2016 00:00:00 8.00917 C 72.2667 %
277 02-01-2016 00:00:00 8.71833 C 74.2667 %
278 03-01-2016 00:00:00 8.725 C 75.2083 %
279 04-01-2016 00:00:00 8.69917 C 74.9333 %
280 05-01-2016 00:00:00 9.12417 C 76.0333 %
281 06-01-2016 00:00:00 9.33417 C 76.5000 %
282 07-01-2016 00:00:00 8.90667 C 74.1667 %
283 08-01-2016 00:00:00 7.98 C 70.4583 %
284 09-01-2016 00:00:00 6.60833 C 68.3250 %
285 10-01-2016 00:00:00 7.60084 C 74.0504 %
286 11-01-2016 00:00:00 8.1325 C 75.1500 %
287 12-01-2016 00:00:00 8.33667 C 75.0583 %
288 13-01-2016 00:00:00 8.1275 C 74.2917 %
289 14-01-2016 00:00:00 7.54667 C 70.0167 %
290 15-01-2016 00:00:00 7.395 C 71.2083 %
291 16-01-2016 00:00:00 6.98083 C 69.2833 %
292 17-01-2016 00:00:00 6.295 C 64.9750 %
293 18-01-2016 00:00:00 5.49917 C 64.8333 %
294 19-01-2016 00:00:00 4.78917 C 65.5000 %
295 20-01-2016 00:00:00 4.82833 C 66.9000 %
296 21-01-2016 00:00:00 5.51167 C 69.6167 %
297 22-01-2016 00:00:00 5.29667 C 68.5750 %
298 23-01-2016 00:00:00 5.67667 C 71.7167 %
299 24-01-2016 00:00:00 6.94167 C 74.3250 %
300 25-01-2016 00:00:00 8.14667 C 75.6833 %
Sensor: Nr:Datum:Temp:Feuchte:
G-T/H 301 26-01-2016 00:00:00 8.69 C 76.0750 %
302 27-01-2016 00:00:00 9.62167 C 75.4667 %
303 28-01-2016 00:00:00 9.90917 C 71.6667 %
304 29-01-2016 00:00:00 8.14667 C 68.8333 %
305 30-01-2016 00:00:00 9.08833 C 72.6167 %
306 31-01-2016 00:00:00 8.2675 C 70.5417 %
307 01-02-2016 00:00:00 9.75167 C 74.1417 %
308 02-02-2016 00:00:00 10.6475 C 74.2833 %
309 03-02-2016 00:00:00 9.35 C 67.8167 %
310 04-02-2016 00:00:00 8.42333 C 69.5417 %
311 05-02-2016 00:00:00 8.7975 C 72.7417 %
312 06-02-2016 00:00:00 9.6175 C 74.0000 %
313 07-02-2016 00:00:00 9.48833 C 73.2917 %
314 08-02-2016 00:00:00 9.44917 C 72.5417 %
315 09-02-2016 00:00:00 9.0575 C 70.2250 %
316 10-02-2016 00:00:00 8.62667 C 70.6833 %
317 11-02-2016 00:00:00 8.3975 C 71.5583 %
318 12-02-2016 00:00:00 7.87 C 67.5667 %
319 13-02-2016 00:00:00 7.18917 C 68.7583 %
320 14-02-2016 00:00:00 7.68417 C 72.7250 %
321 15-02-2016 00:00:00 7.525 C 70.2000 %
322 16-02-2016 00:00:00 6.49167 C 61.4583 %
323 17-02-2016 00:00:00 5.91083 C 64.0333 %
324 18-02-2016 00:00:00 6.93833 C 65.5917 %
325 19-02-2016 00:00:00 6.6725 C 64.0250 %
Sensor: Nr:Datum:Temp:Feuchte:
G-T/H 326 20-02-2016 00:00:00 6.87083 C 67.9667 %
327 21-02-2016 00:00:00 9.16417 C 72.3250 %
328 22-02-2016 00:00:00 10.13333 C 71.9167 %
329 23-02-2016 00:00:00 8.49917 C 67.6583 %
330 24-02-2016 00:00:00 7.5 C 68.0167 %
331 25-02-2016 00:00:00 6.74417 C 63.8250 %
332 26-02-2016 00:00:00 7.16167 C 63.9917 %
333 27-02-2016 00:00:00 7.0225 C 62.2167 %
334 28-02-2016 00:00:00 6.65833 C 63.3667 %
335 29-02-2016 00:00:00 7.045 C 60.9750 %
336 01-03-2016 00:00:00 6.78 C 60.8000 %
337 02-03-2016 00:00:00 7.31917 C 67.4500 %
338 03-03-2016 00:00:00 7.86333 C 68.0000 %
339 04-03-2016 00:00:00 7.1075 C 67.2583 %
340 05-03-2016 00:00:00 7.6825 C 73.4167 %
341 06-03-2016 00:00:00 7.565 C 70.6083 %
342 07-03-2016 00:00:00 7.475 C 71.4583 %
343 08-03-2016 00:00:00 6.84833 C 68.9583 %
344 09-03-2016 00:00:00 6.70833 C 65.5750 %
345 10-03-2016 00:00:00 6.68667 C 63.9583 %
346 11-03-2016 00:00:00 7.33667 C 67.2750 %
347 12-03-2016 00:00:00 7.66833 C 66.7333 %
348 13-03-2016 00:00:00 7.70417 C 66.4583 %
349 14-03-2016 00:00:00 7.42583 C 60.7917 %
350 15-03-2016 00:00:00 7.42583 C 63.4250 %
Sensor: Nr:Datum:Temp:Feuchte:
G-T/H 351 16-03-2016 00:00:00 7.295 C 63.0833 %
352 17-03-2016 00:00:00 6.89417 C 62.0000 %
353 18-03-2016 00:00:00 6.8975 C 63.3667 %
354 19-03-2016 00:00:00 7.8175 C 67.6500 %
355 20-03-2016 00:00:00 8.15083 C 68.6333 %
356 21-03-2016 00:00:00 8.68667 C 70.5417 %
357 22-03-2016 00:00:00 9.1375 C 70.2917 %
358 23-03-2016 00:00:00 9.6 C 70.4500 %
359 24-03-2016 00:00:00 9.6925 C 70.1333 %
360 25-03-2016 00:00:00 9.5625 C 71.4250 %
361 26-03-2016 00:00:00 9.97667 C 69.9250 %
362 27-03-2016 00:00:00 10.11913 C 70.8522 %
363 28-03-2016 00:00:00 9.8125 C 71.8083 %
364 29-03-2016 00:00:00 9.8175 C 71.2500 %
365 30-03-2016 00:00:00 10.3175 C 71.9583 %
366 31-03-2016 00:00:00 10.36417 C 72.2333 %
367 01-04-2016 00:00:00 9.36833 C 70.1750 %
368 02-04-2016 00:00:00 9.53083 C 70.8583 %
369 03-04-2016 00:00:00 11.37 C 71.6750 %
370 04-04-2016 00:00:00 12.26583 C 72.9083 %
371 05-04-2016 00:00:00 12.2875 C 73.0000 %
372 06-04-2016 00:00:00 11.68833 C 72.7250 %
373 07-04-2016 00:00:00 11.33 C 66.9500 %
374 08-04-2016 00:00:00 9.98417 C 63.2583 %
375 09-04-2016 00:00:00 10.4475 C 56.7917 %
Sensor: Nr:Datum:Temp:Feuchte:
G-T/H 376 10-04-2016 00:00:00 11.64167 C 62.6500 %
377 11-04-2016 00:00:00 12.65833 C 59.8833 %
378 12-04-2016 00:00:00 12.55833 C 64.0000 %
379 13-04-2016 00:00:00 11.98167 C 66.8667 %
380 14-04-2016 00:00:00 11.6325 C 68.1250 %
381 15-04-2016 00:00:00 12.27917 C 68.8667 %
382 16-04-2016 00:00:00 12.6725 C 69.5750 %
383 17-04-2016 00:00:00 12.02583 C 64.1750 %
384 18-04-2016 00:00:00 10.66333 C 60.4083 %
385 19-04-2016 00:00:00 10.79083 C 61.0333 %
386 20-04-2016 00:00:00 10.72417 C 60.2417 %
387 21-04-2016 00:00:00 11.09917 C 62.1167 %
388 22-04-2016 00:00:00 12.2725 C 64.0500 %
389 23-04-2016 00:00:00 12.21833 C 62.2583 %
390 24-04-2016 00:00:00 10.46833 C 58.8250 %
391 25-04-2016 00:00:00 9.705 C 62.8083 %
392 26-04-2016 00:00:00 9.39833 C 63.1083 %
393 27-04-2016 00:00:00 9.11583 C 62.9500 %
394 28-04-2016 00:00:00 9.37917 C 62.3333 %
395 29-04-2016 00:00:00 10.05167 C 61.3083 %
396 30-04-2016 00:00:00 10.66583 C 63.3250 %
397 01-05-2016 00:00:00 10.81833 C 66.3917 %
398 02-05-2016 00:00:00 11.39917 C 66.7083 %
399 03-05-2016 00:00:00 12.1925 C 66.1750 %
400 04-05-2016 00:00:00 11.66667 C 60.8083 %
Sensor: Nr:Datum:Temp:Feuchte:
G-T/H 401 05-05-2016 00:00:00 12.47917 C 58.2167 %
402 06-05-2016 00:00:00 13.25583 C 62.6333 %
403 07-05-2016 00:00:00 15.64667 C 58.6167 %
404 08-05-2016 00:00:00 16.73667 C 55.0000 %
405 09-05-2016 00:00:00 17.65083 C 55.0000 %
406 10-05-2016 00:00:00 16.9875 C 60.4583 %
407 11-05-2016 00:00:00 17.78917 C 59.5583 %
408 12-05-2016 00:00:00 18.00333 C 57.3333 %
409 13-05-2016 00:00:00 16.81833 C 62.8500 %
410 14-05-2016 00:00:00 15.055 C 60.3667 %
411 15-05-2016 00:00:00 13.6825 C 58.5667 %
412 16-05-2016 00:00:00 13.37833 C 57.1917 %
413 17-05-2016 00:00:00 14.11583 C 54.8500 %
414 18-05-2016 00:00:00 15.44083 C 56.8667 %
415 19-05-2016 00:00:00 15.42417 C 61.6833 %
416 20-05-2016 00:00:00 15.11917 C 63.5583 %
417 21-05-2016 00:00:00 17.11417 C 61.2417 %
418 22-05-2016 00:00:00 17.1375 C 63.3083 %
419 23-05-2016 00:00:00 16.6675 C 65.4333 %
420 24-05-2016 00:00:00 15.11083 C 66.7500 %
421 25-05-2016 00:00:00 14.5625 C 67.5333 %
422 26-05-2016 00:00:00 15.84083 C 64.6833 %
423 27-05-2016 00:00:00 16.43417 C 67.0667 %
424 28-05-2016 00:00:00 16.33333 C 69.2250 %
425 29-05-2016 00:00:00 16.47 C 70.2000 %
Sensor: Nr:Datum:Temp:Feuchte:
G-T/H 426 30-05-2016 00:00:00 16.7675 C 71.2917 %
427 31-05-2016 00:00:00 17.39032 C 69.3145 %
428 01-06-2016 00:00:00 16.90764 C 69.8090 %
429 02-06-2016 00:00:00 16.60486 C 71.1215 %
430 03-06-2016 00:00:00 16.82674 C 71.6979 %
431 04-06-2016 00:00:00 17.00764 C 72.5278 %
432 05-06-2016 00:00:00 17.47083 C 72.4375 %
433 06-06-2016 00:00:00 19.17188 C 71.5417 %
434 07-06-2016 00:00:00 19.49514 C 71.1979 %
435 08-06-2016 00:00:00 19.99896 C 67.3368 %
436 09-06-2016 00:00:00 19.07396 C 58.3681 %
437 10-06-2016 00:00:00 18.28403 C 60.7847 %
438 11-06-2016 00:00:00 18.9066 C 59.1458 %
439 12-06-2016 00:00:00 18.61424 C 63.5208 %
440 13-06-2016 00:00:00 17.83333 C 67.1563 %
441 14-06-2016 00:00:00 17.39931 C 68.4757 %
442 15-06-2016 00:00:00 17.24583 C 68.5903 %
443 16-06-2016 00:00:00 16.24236 C 71.1944 %
444 17-06-2016 00:00:00 16.34861 C 71.3090 %
445 18-06-2016 00:00:00 16.23056 C 71.5174 %
446 19-06-2016 00:00:00 16.85556 C 67.8368 %
447 20-06-2016 00:00:00 16.76798 C 58.9298 %
448 21-06-2016 00:00:00 18.16552 C 65.3017 %
449 22-06-2016 00:00:00 18.4725 C 69.0917 %
450 23-06-2016 00:00:00 19.365 C 71.3250 %
Sensor: Nr:Datum:Temp:Feuchte:
G-T/H 451 24-06-2016 00:00:00 20.41417 C 72.4667 %
452 25-06-2016 00:00:00 19.32667 C 72.2667 %
453 26-06-2016 00:00:00 17.69417 C 71.1667 %
454 27-06-2016 00:00:00 17.605 C 66.4750 %
455 28-06-2016 00:00:00 19.10167 C 64.6917 %
456 29-06-2016 00:00:00 19.85417 C 57.5417 %
457 30-06-2016 00:00:00 19.8875 C 60.6333 %
458 01-07-2016 00:00:00 20.32 C 62.7500 %
459 02-07-2016 00:00:00 19.3525 C 63.5667 %
460 03-07-2016 00:00:00 17.94167 C 64.7167 %
461 04-07-2016 00:00:00 18.07917 C 66.9333 %
462 05-07-2016 00:00:00 19.50833 C 65.1500 %
463 06-07-2016 00:00:00 18.59333 C 64.1000 %
464 07-07-2016 00:00:00 18.89 C 58.9500 %
465 08-07-2016 00:00:00 20.49583 C 59.9917 %
466 09-07-2016 00:00:00 20.265 C 63.4500 %
467 10-07-2016 00:00:00 20.23583 C 66.0667 %
468 11-07-2016 00:00:00 21.90583 C 60.9500 %
469 12-07-2016 00:00:00 21.28583 C 56.5333 %
470 13-07-2016 00:00:00 19.58583 C 61.2667 %
471 14-07-2016 00:00:00 18.12833 C 63.5000 %
472 15-07-2016 00:00:00 17.85833 C 64.4333 %
473 16-07-2016 00:00:00 17.93083 C 65.6917 %
474 17-07-2016 00:00:00 20.08 C 64.7667 %
475 18-07-2016 00:00:00 21.79667 C 59.9333 %
Sensor: Nr:Datum:Temp:Feuchte:
G-T/H 476 19-07-2016 00:00:00 22.34917 C 60.7583 %
477 20-07-2016 00:00:00 21.63333 C 64.3000 %
478 21-07-2016 00:00:00 21.57583 C 66.2500 %
479 22-07-2016 00:00:00 20.68417 C 68.0833 %
480 23-07-2016 00:00:00 20.68833 C 68.8750 %
481 24-07-2016 00:00:00 20.48333 C 69.4167 %
482 25-07-2016 00:00:00 20.91333 C 69.4000 %
483 26-07-2016 00:00:00 20.91083 C 69.4500 %
484 27-07-2016 00:00:00 20.35 C 69.0333 %
485 28-07-2016 00:00:00 20.44667 C 69.0333 %
486 29-07-2016 00:00:00 20.34167 C 68.9833 %
487 30-07-2016 00:00:00 20.43833 C 68.3250 %
488 31-07-2016 00:00:00 20.0325 C 68.5917 %
489 01-08-2016 00:00:00 19.39333 C 58.7417 %
490 02-08-2016 00:00:00 19.16833 C 63.6417 %
491 03-08-2016 00:00:00 18.67333 C 68.2083 %
492 04-08-2016 00:00:00 18.74667 C 70.3583 %
493 05-08-2016 00:00:00 18.29667 C 70.3333 %
494 06-08-2016 00:00:00 19.07417 C 69.3750 %
495 07-08-2016 00:00:00 19.03 C 69.0833 %
496 08-08-2016 00:00:00 20.345 C 62.8750 %
497 09-08-2016 00:00:00 19.3975 C 57.0333 %
498 10-08-2016 00:00:00 18.12167 C 59.1917 %
499 11-08-2016 00:00:00 16.77899 C 61.9748 %
500 12-08-2016 00:00:00 17.08917 C 67.0000 %
Sensor: Nr:Datum:Temp:Feuchte:
G-T/H 501 13-08-2016 00:00:00 18.70167 C 66.4667 %
502 14-08-2016 00:00:00 19.23583 C 66.2917 %
503 15-08-2016 00:00:00 19.80833 C 63.8583 %
504 16-08-2016 00:00:00 20.05583 C 57.9917 %
505 17-08-2016 00:00:00 19.5975 C 59.9500 %
506 18-08-2016 00:00:00 19.10667 C 62.0250 %
507 19-08-2016 00:00:00 19.285 C 65.6833 %
508 20-08-2016 00:00:00 19.33917 C 67.0167 %
509 21-08-2016 00:00:00 18.56083 C 67.8500 %
510 22-08-2016 00:00:00 18.2 C 68.1000 %
511 23-08-2016 00:00:00 18.51083 C 68.4750 %
512 24-08-2016 00:00:00 20.7375 C 63.8417 %
513 25-08-2016 00:00:00 21.7675 C 61.5667 %
514 26-08-2016 00:00:00 21.88833 C 64.2083 %
515 27-08-2016 00:00:00 21.44167 C 67.6000 %
516 28-08-2016 00:00:00 21.2675 C 68.1333 %
517 29-08-2016 00:00:00 20.725 C 67.0750 %
518 30-08-2016 00:00:00 19.75833 C 63.6083 %
519 31-08-2016 00:00:00 19.81833 C 59.3500 %
520 01-09-2016 00:00:00 20.415 C 61.3167 %
521 02-09-2016 00:00:00 20.5325 C 60.0417 %
522 03-09-2016 00:00:00 21.2775 C 58.3833 %
523 04-09-2016 00:00:00 20.23417 C 62.0333 %
524 05-09-2016 00:00:00 19.63 C 61.6750 %
525 06-09-2016 00:00:00 19.45667 C 59.8000 %
Sensor: Nr:Datum:Temp:Feuchte:
G-T/H 526 07-09-2016 00:00:00 17.9625 C 62.8833 %
527 08-09-2016 00:00:00 20.22417 C 62.2667 %
528 09-09-2016 00:00:00 20.395 C 59.8500 %
529 10-09-2016 00:00:00 19.37583 C 63.5083 %
530 11-09-2016 00:00:00 19.84167 C 61.8500 %
531 12-09-2016 00:00:00 19.2425 C 63.9750 %
532 13-09-2016 00:00:00 19.18917 C 67.2250 %
533 14-09-2016 00:00:00 19.21167 C 67.7167 %
534 15-09-2016 00:00:00 20.69 C 62.9250 %
535 16-09-2016 00:00:00 19.985 C 62.3917 %
536 17-09-2016 00:00:00 18.71583 C 62.1417 %
537 18-09-2016 00:00:00 18.4775 C 65.9583 %
538 19-09-2016 00:00:00 18.15833 C 63.7833 %
539 20-09-2016 00:00:00 17.68667 C 65.4583 %
540 21-09-2016 00:00:00 16.9825 C 64.3250 %
541 22-09-2016 00:00:00 16.06167 C 59.4417 %
542 23-09-2016 00:00:00 15.82583 C 65.3667 %
543 24-09-2016 00:00:00 15.64417 C 67.9583 %
544 25-09-2016 00:00:00 15.26917 C 68.1167 %
545 26-09-2016 00:00:00 16.33 C 68.2917 %
546 27-09-2016 00:00:00 15.98083 C 69.3167 %
547 28-09-2016 00:00:00 16.32 C 68.9750 %
548 29-09-2016 00:00:00 16.83 C 70.3417 %
549 30-09-2016 00:00:00 17.00583 C 70.6167 %
550 01-10-2016 00:00:00 16.32667 C 71.0000 %
Sensor: Nr:Datum:Temp:Feuchte:
G-T/H 551 02-10-2016 00:00:00 15.67333 C 71.6083 %
552 03-10-2016 00:00:00 15.18 C 72.4000 %
553 04-10-2016 00:00:00 14.88 C 72.3167 %
554 05-10-2016 00:00:00 12.96083 C 60.0750 %
555 06-10-2016 00:00:00 12.69583 C 64.3417 %
556 07-10-2016 00:00:00 13.35833 C 70.4250 %
557 08-10-2016 00:00:00 13.4975 C 71.5583 %
558 09-10-2016 00:00:00 13.15583 C 69.0833 %
559 10-10-2016 00:00:00 12.26667 C 65.6583 %
560 11-10-2016 00:00:00 12.15083 C 68.7417 %
561 12-10-2016 00:00:00 12.37167 C 69.5583 %
562 13-10-2016 00:00:00 11.78 C 63.9417 %
563 14-10-2016 00:00:00 12.04583 C 65.1000 %
564 15-10-2016 00:00:00 12.9775 C 69.8500 %
565 16-10-2016 00:00:00 12.80667 C 68.1833 %
566 17-10-2016 00:00:00 12.835 C 72.4250 %
567 18-10-2016 00:00:00 13.08 C 73.2750 %
568 19-10-2016 00:00:00 12.90917 C 72.6917 %
569 20-10-2016 00:00:00 12.49167 C 72.9250 %
570 21-10-2016 00:00:00 12.16917 C 72.9667 %
571 22-10-2016 00:00:00 11.97167 C 73.1167 %
572 23-10-2016 00:00:00 11.56167 C 71.1250 %
573 24-10-2016 00:00:00 11.85333 C 73.8167 %
574 25-10-2016 00:00:00 12.67417 C 75.2000 %
575 26-10-2016 00:00:00 12.92083 C 72.7667 %
Sensor: Nr:Datum:Temp:Feuchte:
G-T/H 576 27-10-2016 00:00:00 11.9975 C 70.7667 %
577 28-10-2016 00:00:00 12.79417 C 71.9083 %
578 29-10-2016 00:00:00 13.4925 C 73.2500 %
579 30-10-2016 00:00:00 12.6816 C 71.9200 %
580 31-10-2016 00:00:00 11.75083 C 70.0667 %
581 01-11-2016 00:00:00 11.04417 C 69.4750 %
582 02-11-2016 00:00:00 11.27917 C 71.5500 %
583 03-11-2016 00:00:00 10.86 C 69.9917 %
584 04-11-2016 00:00:00 10.0325 C 67.5750 %
585 05-11-2016 00:00:00 10.58917 C 71.7750 %
586 06-11-2016 00:00:00 10.1525 C 69.2083 %
587 07-11-2016 00:00:00 9.85 C 68.7833 %
588 08-11-2016 00:00:00 9.42417 C 66.2417 %
589 09-11-2016 00:00:00 8.82583 C 66.7333 %
590 10-11-2016 00:00:00 9.30167 C 70.3000 %
591 11-11-2016 00:00:00 9.65417 C 71.9000 %
592 12-11-2016 00:00:00 8.685 C 64.9333 %
593 13-11-2016 00:00:00 8.31083 C 64.6083 %
594 14-11-2016 00:00:00 7.62917 C 61.3083 %
595 15-11-2016 00:00:00 8.05833 C 68.3083 %
596 16-11-2016 00:00:00 9.605 C 73.2917 %
597 17-11-2016 00:00:00 10.72917 C 74.0000 %
598 18-11-2016 00:00:00 11.2175 C 72.3333 %
599 19-11-2016 00:00:00 9.86333 C 67.3833 %
600 20-11-2016 00:00:00 9.69583 C 70.2250 %
Sensor: Nr:Datum:Temp:Feuchte:
G-T/H 601 21-11-2016 00:00:00 10.8675 C 72.8417 %
602 22-11-2016 00:00:00 11.305 C 73.8750 %
603 23-11-2016 00:00:00 11.27583 C 74.1333 %
604 24-11-2016 00:00:00 11.035 C 74.8083 %
605 25-11-2016 00:00:00 10.7 C 72.8750 %
606 26-11-2016 00:00:00 10.5825 C 71.8333 %
607 27-11-2016 00:00:00 10.20167 C 70.9917 %
608 28-11-2016 00:00:00 8.60417 C 61.3417 %
609 29-11-2016 00:00:00 7.215 C 58.6917 %
610 30-11-2016 00:00:00 5.98167 C 59.2667 %
611 01-12-2016 00:00:00 3.9525 C 66.1500 %
612 02-12-2016 00:00:00 8.02083 C 70.3667 %
613 03-12-2016 00:00:00 7.42417 C 63.9833 %
614 04-12-2016 00:00:00 6.275 C 61.7083 %
615 05-12-2016 00:00:00 5.36667 C 64.7667 %
616 06-12-2016 00:00:00 4.82967 C 64.3626 %
617 07-12-2016 00:00:00 5.38252 C 68.3883 %
618 08-12-2016 00:00:00 5.9125 C 69.6000 %
619 09-12-2016 00:00:00 6.99833 C 71.6333 %
620 10-12-2016 00:00:00 7.755 C 72.6417 %
621 11-12-2016 00:00:00 8.39667 C 74.1583 %
622 12-12-2016 00:00:00 9.10083 C 74.1333 %
623 13-12-2016 00:00:00 8.56083 C 71.4833 %
624 14-12-2016 00:00:00 8.81583 C 74.0417 %
625 15-12-2016 00:00:00 9.39 C 74.3000 %
Sensor: Nr:Datum:Temp:Feuchte:
G-T/H 626 16-12-2016 00:00:00 9.12417 C 69.5333 %
627 17-12-2016 00:00:00 7.19138 C 66.8793 %
628 18-12-2016 00:00:00 6.47667 C 73.8167 %
629 19-12-2016 00:00:00 6.53917 C 69.9833 %
630 20-12-2016 00:00:00 7.37 C 63.5167 %
631 21-12-2016 00:00:00 6.99 C 64.7917 %
632 22-12-2016 00:00:00 7.68917 C 69.0917 %
633 23-12-2016 00:00:00 7.73917 C 71.5917 %
634 24-12-2016 00:00:00 8.2975 C 72.4083 %
635 25-12-2016 00:00:00 8.90417 C 73.3417 %
636 26-12-2016 00:00:00 9.52917 C 72.0250 %
637 27-12-2016 00:00:00 8.22333 C 68.1667 %
638 28-12-2016 00:00:00 8.0975 C 69.3167 %
639 29-12-2016 00:00:00 6.70583 C 61.8833 %
640 30-12-2016 00:00:00 5.99833 C 63.3083 %
641 31-12-2016 00:00:00 5.83083 C 62.2667 %
642 01-01-2017 00:00:00 5.44917 C 64.1833 %
643 02-01-2017 00:00:00 5.875 C 67.6500 %
644 03-01-2017 00:00:00 6.26833 C 69.1333 %
645 04-01-2017 00:00:00 6.87333 C 70.5333 %
646 05-01-2017 00:00:00 6.42167 C 64.7417 %
647 06-01-2017 00:00:00 5.2175 C 62.1250 %
648 07-01-2017 00:00:00 5.225 C 61.2333 %
649 08-01-2017 00:00:00 5.37083 C 67.6667 %
650 09-01-2017 00:00:00 5.805 C 70.2583 %
Sensor: Nr:Datum:Temp:Feuchte:
G-T/H 651 10-01-2017 00:00:00 6.215 C 69.9833 %
652 11-01-2017 00:00:00 6.85417 C 73.1167 %
653 12-01-2017 00:00:00 7.36667 C 72.3333 %
654 13-01-2017 00:00:00 7.38917 C 68.9917 %
655 14-01-2017 00:00:00 6.96667 C 66.6000 %
656 15-01-2017 00:00:00 6.63083 C 66.1917 %
657 16-01-2017 00:00:00 5.80917 C 64.9167 %
658 17-01-2017 00:00:00 5.4625 C 65.3000 %
659 18-01-2017 00:00:00 5.16083 C 63.5417 %
660 19-01-2017 00:00:00 4.74667 C 62.7667 %
661 20-01-2017 00:00:00 4.44583 C 61.4250 %
662 21-01-2017 00:00:00 4.46917 C 61.4667 %
663 22-01-2017 00:00:00 6.90667 C 56.2500 %
664 23-01-2017 00:00:00 4.80167 C 59.9750 %
665 24-01-2017 00:00:00 4.74333 C 66.7000 %
666 25-01-2017 00:00:00 5.13697 C 66.5546 %
667 26-01-2017 00:00:00 4.95 C 66.4333 %
668 27-01-2017 00:00:00 4.87667 C 64.0167 %
669 28-01-2017 00:00:00 4.965 C 64.2417 %
670 29-01-2017 00:00:00 5.46167 C 67.2750 %
671 30-01-2017 00:00:00 6.3575 C 70.0750 %
672 31-01-2017 00:00:00 7.135 C 70.9417 %
673 01-02-2017 00:00:00 7.0975 C 69.4500 %
674 02-02-2017 00:00:00 7.63083 C 71.6000 %
675 03-02-2017 00:00:00 7.80583 C 71.7917 %
Sensor: Nr:Datum:Temp:Feuchte:
G-T/H 676 04-02-2017 00:00:00 7.86667 C 73.2833 %
677 05-02-2017 00:00:00 7.52167 C 72.1917 %
678 06-02-2017 00:00:00 7.44667 C 71.3500 %
679 07-02-2017 00:00:00 7.65917 C 69.1583 %
680 08-02-2017 00:00:00 7.745 C 67.0667 %
681 09-02-2017 00:00:00 6.61083 C 60.3750 %
682 10-02-2017 00:00:00 6.26583 C 62.6250 %
683 11-02-2017 00:00:00 6.50167 C 66.3417 %
684 12-02-2017 00:00:00 6.90333 C 69.8583 %
685 13-02-2017 00:00:00 6.77417 C 66.2250 %
686 14-02-2017 00:00:00 6.34667 C 63.3750 %
687 15-02-2017 00:00:00 6.06333 C 64.3167 %
688 16-02-2017 00:00:00 6.4425 C 67.4583 %
689 17-02-2017 00:00:00 7.16417 C 70.9167 %
690 18-02-2017 00:00:00 7.8825 C 71.6500 %
691 19-02-2017 00:00:00 6.91667 C 66.6917 %
692 20-02-2017 00:00:00 7.93417 C 71.2667 %
693 21-02-2017 00:00:00 9.10333 C 73.0000 %
694 22-02-2017 00:00:00 9.84667 C 73.5750 %
695 23-02-2017 00:00:00 10.02917 C 72.3500 %
696 24-02-2017 00:00:00 9.025 C 66.0583 %
697 25-02-2017 00:00:00 7.8125 C 64.1750 %
698 26-02-2017 00:00:00 8.2975 C 69.2667 %
699 27-02-2017 00:00:00 9.63917 C 70.5750 %
700 28-02-2017 00:00:00 9.33 C 66.9583 %
Sensor: Nr:Datum:Temp:Feuchte:
G-T/H 701 01-03-2017 00:00:00 8.60583 C 69.5417 %
702 02-03-2017 00:00:00 8.9175 C 65.6500 %
703 03-03-2017 00:00:00 8.58667 C 65.2583 %
704 04-03-2017 00:00:00 9.72083 C 67.1417 %
705 05-03-2017 00:00:00 9.9025 C 68.5167 %
706 06-03-2017 00:00:00 9.1775 C 69.4333 %
707 07-03-2017 00:00:00 8.97833 C 70.7333 %
708 08-03-2017 00:00:00 8.28333 C 70.1333 %
709 09-03-2017 00:00:00 9.54333 C 71.3083 %
710 10-03-2017 00:00:00 9.94 C 66.3417 %
711 11-03-2017 00:00:00 9.4 C 61.6667 %
712 12-03-2017 00:00:00 9.37083 C 56.6667 %
713 13-03-2017 00:00:00 9.06083 C 61.4333 %
714 14-03-2017 00:00:00 9.58917 C 65.5667 %
715 15-03-2017 00:00:00 10.38083 C 67.1833 %
716 16-03-2017 00:00:00 9.89833 C 64.6750 %
717 17-03-2017 00:00:00 9.92917 C 66.9833 %
718 18-03-2017 00:00:00 10.04833 C 66.3167 %
719 19-03-2017 00:00:00 10.80333 C 69.8417 %
720 20-03-2017 00:00:00 11.3975 C 70.0000 %
721 21-03-2017 00:00:00 11.28667 C 69.3000 %
722 22-03-2017 00:00:00 9.84 C 63.8000 %
723 23-03-2017 00:00:00 10.27083 C 66.0750 %
724 24-03-2017 00:00:00 10.7825 C 62.7500 %
725 25-03-2017 00:00:00 10.76167 C 57.7333 %
Sensor: Nr:Datum:Temp:Feuchte:
G-T/H 726 26-03-2017 00:00:00 10.54783 C 58.5826 %
727 27-03-2017 00:00:00 10.2775 C 50.5417 %
728 28-03-2017 00:00:00 11.49667 C 53.5167 %
729 29-03-2017 00:00:00 12.4025 C 60.0000 %
730 30-03-2017 00:00:00 13.8 C 58.8333 %
731 31-03-2017 00:00:00 13.9 C 55.5083 %
732 01-04-2017 00:00:00 13.5225 C 61.1333 %
733 02-04-2017 00:00:00 13.045 C 62.0500 %
734 03-04-2017 00:00:00 12.37917 C 61.7583 %
735 04-04-2017 00:00:00 11.70917 C 61.7250 %
736 05-04-2017 00:00:00 11.2225 C 60.3000 %
737 06-04-2017 00:00:00 11.25083 C 61.8833 %
738 07-04-2017 00:00:00 11.30833 C 61.5667 %
739 08-04-2017 00:00:00 12.10917 C 64.3167 %
740 09-04-2017 00:00:00 11.93083 C 63.3250 %
741 10-04-2017 00:00:00 12.2625 C 64.3417 %
742 11-04-2017 00:00:00 11.93333 C 61.3750 %
743 12-04-2017 00:00:00 11.73417 C 62.1250 %
744 13-04-2017 00:00:00 12.4775 C 62.8750 %
745 14-04-2017 00:00:00 12.10583 C 60.6583 %
746 15-04-2017 00:00:00 11.93917 C 62.9917 %
747 16-04-2017 00:00:00 11.1475 C 62.5750 %
748 17-04-2017 00:00:00 10.5075 C 62.2583 %
749 18-04-2017 00:00:00 9.84833 C 61.1750 %
750 19-04-2017 00:00:00 9.13917 C 59.2667 %
Sensor: Nr:Datum:Temp:Feuchte:
G-T/H 751 20-04-2017 00:00:00 8.37167 C 53.2417 %
752 21-04-2017 00:00:00 9.44167 C 57.5750 %
753 22-04-2017 00:00:00 10.7925 C 61.3833 %
754 23-04-2017 00:00:00 10.56417 C 59.6333 %
755 24-04-2017 00:00:00 10.66583 C 57.9750 %
756 25-04-2017 00:00:00 11.07395 C 57.7143 %
757 26-04-2017 00:00:00 10.9975 C 52.8000 %
758 27-04-2017 00:00:00 10.80167 C 55.5250 %
759 28-04-2017 00:00:00 9.695 C 54.5000 %
760 29-04-2017 00:00:00 10.51083 C 59.0833 %
761 30-04-2017 00:00:00 11.60583 C 55.6167 %
762 01-05-2017 00:00:00 12.7 C 56.0000 %
763 02-05-2017 00:00:00 11.525 C 63.9432 %
764 03-05-2017 00:00:00 11.48417 C 65.4750 %
765 04-05-2017 00:00:00 12.02333 C 66.8667 %
766 05-05-2017 00:00:00 12.46583 C 66.8917 %
767 06-05-2017 00:00:00 12.505 C 65.2333 %
768 07-05-2017 00:00:00 13.83043 C 67.2696 %
769 08-05-2017 00:00:00 12.83417 C 66.4333 %
770 09-05-2017 00:00:00 12.20583 C 62.3250 %
771 10-05-2017 00:00:00 12.52917 C 54.6833 %
772 11-05-2017 00:00:00 13.12917 C 60.2667 %
773 12-05-2017 00:00:00 14.3375 C 64.2333 %
774 13-05-2017 00:00:00 14.86667 C 65.6583 %
775 14-05-2017 00:00:00 15.34083 C 65.8667 %
Sensor: Nr:Datum:Temp:Feuchte:
G-T/H 776 15-05-2017 00:00:00 16.35667 C 54.4250 %
777 16-05-2017 00:00:00 18.42417 C 50.3083 %
778 17-05-2017 00:00:00 19.76083 C 51.8500 %
779 18-05-2017 00:00:00 18.36833 C 59.9083 %
780 19-05-2017 00:00:00 16.6075 C 64.9333 %
781 20-05-2017 00:00:00 14.935 C 64.1833 %
782 21-05-2017 00:00:00 15.3875 C 58.0667 %
783 22-05-2017 00:00:00 16.8975 C 56.7000 %
784 23-05-2017 00:00:00 17.30167 C 60.5667 %
785 24-05-2017 00:00:00 17.77333 C 59.5750 %
786 25-05-2017 00:00:00 17.38 C 63.0583 %
787 26-05-2017 00:00:00 18.09583 C 61.1583 %
788 27-05-2017 00:00:00 17.95583 C 63.3917 %
789 28-05-2017 00:00:00 18.6625 C 65.0333 %
790 29-05-2017 00:00:00 22.53667 C 59.7333 %
791 30-05-2017 00:00:00 22.135 C 60.5250 %
792 31-05-2017 00:00:00 19.19583 C 54.8917 %
793 01-06-2017 00:00:00 19.02333 C 60.4250 %
794 02-06-2017 00:00:00 19.42667 C 64.1667 %
795 03-06-2017 00:00:00 18.96167 C 68.0500 %
796 04-06-2017 00:00:00 18.245 C 68.2333 %
797 05-06-2017 00:00:00 17.78167 C 63.8583 %
798 06-06-2017 00:00:00 17.53167 C 62.7417 %
799 07-06-2017 00:00:00 16.31 C 63.1083 %
800 08-06-2017 00:00:00 17.10583 C 63.0167 %
Sensor: Nr:Datum:Temp:Feuchte:
G-T/H 801 09-06-2017 00:00:00 17.65833 C 65.4167 %
802 10-06-2017 00:00:00 17.03667 C 64.8083 %
803 11-06-2017 00:00:00 17.98917 C 66.8667 %
804 12-06-2017 00:00:00 20.2225 C 51.9750 %
805 13-06-2017 00:00:00 19.605 C 52.3167 %
806 14-06-2017 00:00:00 20.2375 C 52.8333 %
807 15-06-2017 00:00:00 22.41083 C 52.1917 %
808 16-06-2017 00:00:00 21.05417 C 50.7750 %
809 17-06-2017 00:00:00 19.55083 C 56.9583 %
810 18-06-2017 00:00:00 19.47917 C 61.1333 %
811 19-06-2017 00:00:00 21.37083 C 53.8417 %
812 20-06-2017 00:00:00 23.81417 C 48.4333 %
813 21-06-2017 00:00:00 23.19167 C 55.3333 %
814 22-06-2017 00:00:00 24.54167 C 57.7417 %
815 23-06-2017 00:00:00 23.06 C 57.7583 %
816 24-06-2017 00:00:00 22.64 C 51.3500 %
817 25-06-2017 00:00:00 21.49083 C 54.8583 %
818 26-06-2017 00:00:00 21.5775 C 55.2833 %
819 27-06-2017 00:00:00 20.69417 C 59.6083 %
820 28-06-2017 00:00:00 19.86 C 64.0167 %
821 29-06-2017 00:00:00 19.49417 C 65.1083 %
822 30-06-2017 00:00:00 19.17167 C 60.7667 %
823 01-07-2017 00:00:00 18.81833 C 64.2833 %
824 02-07-2017 00:00:00 18.1925 C 66.6917 %
825 03-07-2017 00:00:00 19.315 C 56.5417 %
Sensor: Nr:Datum:Temp:Feuchte:
G-T/H 826 04-07-2017 00:00:00 20.50083 C 54.7667 %
827 05-07-2017 00:00:00 21.10917 C 57.5583 %
828 06-07-2017 00:00:00 21.4425 C 61.7000 %
829 07-07-2017 00:00:00 21.30333 C 64.3833 %
830 08-07-2017 00:00:00 22.9425 C 56.5250 %
831 09-07-2017 00:00:00 22.685 C 59.5417 %
832 10-07-2017 00:00:00 21.98167 C 63.7417 %
833 11-07-2017 00:00:00 21.20417 C 60.4000 %
834 12-07-2017 00:00:00 20.39167 C 63.4250 %
835 13-07-2017 00:00:00 18.97917 C 57.3833 %
836 14-07-2017 00:00:00 18.96417 C 57.4250 %
837 15-07-2017 00:00:00 18.67083 C 60.6333 %
838 16-07-2017 00:00:00 19.535 C 63.6583 %
839 17-07-2017 00:00:00 19.89917 C 65.6333 %
840 18-07-2017 00:00:00 21.48667 C 62.7583 %
841 19-07-2017 00:00:00 23.825 C 58.2333 %
842 20-07-2017 00:00:00 22.49083 C 62.1083 %
843 21-07-2017 00:00:00 21.79917 C 56.1083 %
844 22-07-2017 00:00:00 22.77167 C 60.8833 %
845 23-07-2017 00:00:00 20.45167 C 59.6000 %
846 24-07-2017 00:00:00 19.83667 C 60.9500 %
847 25-07-2017 00:00:00 18.2725 C 64.9333 %
848 26-07-2017 00:00:00 17.95417 C 67.3667 %
849 27-07-2017 00:00:00 18.53667 C 68.7167 %
850 28-07-2017 00:00:00 18.61833 C 68.6833 %
Sensor: Nr:Datum:Temp:Feuchte:
G-T/H 851 29-07-2017 00:00:00 19.14917 C 68.9333 %
852 30-07-2017 00:00:00 20.87667 C 66.4833 %
853 31-07-2017 00:00:00 21.91167 C 61.1500 %
854 01-08-2017 00:00:00 20.985 C 66.8500 %
855 02-08-2017 00:00:00 21.5925 C 67.6250 %
856 03-08-2017 00:00:00 22.08 C 67.0000 %
857 04-08-2017 00:00:00 21.2975 C 66.9500 %
858 05-08-2017 00:00:00 21.27333 C 64.2583 %
859 06-08-2017 00:00:00 20.1425 C 61.5500 %
860 07-08-2017 00:00:00 19.51083 C 54.8250 %
861 08-08-2017 00:00:00 19.4725 C 62.0000 %
862 09-08-2017 00:00:00 19.2825 C 61.9750 %
863 10-08-2017 00:00:00 18.88083 C 65.6083 %
864 11-08-2017 00:00:00 17.85167 C 68.4083 %
865 12-08-2017 00:00:00 17.38667 C 69.6917 %
866 13-08-2017 00:00:00 17.925 C 70.8917 %
867 14-08-2017 00:00:00 19.18583 C 69.3417 %
868 15-08-2017 00:00:00 19.95167 C 75.4000 %
869 16-08-2017 00:00:00 20.395 C 70.4750 %
870 17-08-2017 00:00:00 20.77833 C 67.9583 %
871 18-08-2017 00:00:00 20.07417 C 69.9500 %
872 19-08-2017 00:00:00 18.63167 C 65.2583 %
873 20-08-2017 00:00:00 18.18833 C 65.5833 %
874 21-08-2017 00:00:00 18.33833 C 61.8250 %
875 22-08-2017 00:00:00 18.3375 C 62.2833 %
Sensor: Nr:Datum:Temp:Feuchte:
G-T/H 876 23-08-2017 00:00:00 19.39 C 63.6250 %
877 24-08-2017 00:00:00 19.39667 C 66.6750 %
878 25-08-2017 00:00:00 19.01417 C 68.4583 %
879 26-08-2017 00:00:00 19.33833 C 70.7917 %
880 27-08-2017 00:00:00 19.525 C 71.7250 %
881 28-08-2017 00:00:00 20.30583 C 68.8833 %
882 29-08-2017 00:00:00 21.09333 C 67.8833 %
883 30-08-2017 00:00:00 20.41167 C 70.1917 %
884 31-08-2017 00:00:00 19.86975 C 70.1176 %
885 01-09-2017 00:00:00 18.04083 C 64.9250 %
886 02-09-2017 00:00:00 17.755 C 68.6500 %
887 03-09-2017 00:00:00 16.90667 C 68.1250 %
888 04-09-2017 00:00:00 16.00917 C 69.3750 %
889 05-09-2017 00:00:00 18.28917 C 72.6000 %
890 06-09-2017 00:00:00 18.70833 C 64.8917 %
891 07-09-2017 00:00:00 17.72833 C 62.5167 %
892 08-09-2017 00:00:00 17.6225 C 64.3417 %
893 09-09-2017 00:00:00 17.3775 C 67.9250 %
894 10-09-2017 00:00:00 16.50417 C 66.3083 %
895 11-09-2017 00:00:00 16.29333 C 68.5500 %
896 12-09-2017 00:00:00 16.13083 C 70.5250 %
897 13-09-2017 00:00:00 15.99917 C 71.1667 %
898 14-09-2017 00:00:00 15.7775 C 71.3250 %
899 15-09-2017 00:00:00 15.14 C 71.7083 %
900 16-09-2017 00:00:00 14.15 C 67.6833 %
Sensor: Nr:Datum:Temp:Feuchte:
G-T/H 901 17-09-2017 00:00:00 14.06833 C 69.8750 %
902 18-09-2017 00:00:00 13.68417 C 70.3917 %
903 19-09-2017 00:00:00 14.2875 C 73.3667 %
904 20-09-2017 00:00:00 14.18167 C 72.9250 %
905 21-09-2017 00:00:00 14.33333 C 68.9000 %
906 22-09-2017 00:00:00 14.20083 C 71.1333 %
907 23-09-2017 00:00:00 14.86583 C 71.6917 %
908 24-09-2017 00:00:00 13.5 C 74.4750 %
909 25-09-2017 00:00:00 14.49667 C 74.4000 %
910 26-09-2017 00:00:00 14.90833 C 74.1417 %
911 27-09-2017 00:00:00 15.24333 C 75.2000 %
912 28-09-2017 00:00:00 15.29833 C 75.7917 %
913 29-09-2017 00:00:00 16.4625 C 76.9750 %
914 30-09-2017 00:00:00 16.51167 C 76.8667 %
915 01-10-2017 00:00:00 15.07167 C 73.4917 %
916 02-10-2017 00:00:00 14.96167 C 75.8333 %
917 03-10-2017 00:00:00 15.05583 C 75.3167 %
918 04-10-2017 00:00:00 14.14417 C 72.4833 %
919 05-10-2017 00:00:00 14.39917 C 74.4417 %
920 06-10-2017 00:00:00 13.515 C 72.0000 %
921 07-10-2017 00:00:00 13.36583 C 74.1000 %
922 08-10-2017 00:00:00 13.59833 C 76.1167 %
923 09-10-2017 00:00:00 13.71417 C 76.4750 %
924 10-10-2017 00:00:00 14.10667 C 77.2250 %
925 11-10-2017 00:00:00 14.48833 C 77.7500 %
Sensor: Nr:Datum:Temp:Feuchte:
G-T/H 926 12-10-2017 00:00:00 14.45833 C 77.2083 %
927 13-10-2017 00:00:00 14.39417 C 77.1167 %
928 14-10-2017 00:00:00 14.55667 C 77.2000 %
929 15-10-2017 00:00:00 14.22167 C 77.1917 %
930 16-10-2017 00:00:00 14.72417 C 80.6250 %
931 17-10-2017 00:00:00 14.50583 C 80.0333 %
932 18-10-2017 00:00:00 14.23 C 79.1833 %
933 19-10-2017 00:00:00 13.8025 C 76.9750 %
934 20-10-2017 00:00:00 14.11261 C 77.8235 %
935 21-10-2017 00:00:00 13.58417 C 75.6250 %
936 22-10-2017 00:00:00 13.64333 C 74.5083 %
937 23-10-2017 00:00:00 13.15167 C 73.8667 %
938 24-10-2017 00:00:00 13.7125 C 77.3167 %
939 25-10-2017 00:00:00 14.60167 C 78.0000 %
940 26-10-2017 00:00:00 14.7325 C 78.0000 %
941 27-10-2017 00:00:00 14.395 C 76.2583 %
942 28-10-2017 00:00:00 13.38917 C 71.6000 %
943 29-10-2017 00:00:00 13.2736 C 70.4000 %
944 30-10-2017 00:00:00 11.94167 C 67.1167 %
945 31-10-2017 00:00:00 11.315 C 67.7083 %
946 01-11-2017 00:00:00 11.75833 C 71.3750 %
947 02-11-2017 00:00:00 11.43667 C 71.0500 %
948 03-11-2017 00:00:00 11.36333 C 71.6167 %
949 04-11-2017 00:00:00 11.05083 C 71.6417 %
950 05-11-2017 00:00:00 11.7925 C 73.8417 %
Sensor: Nr:Datum:Temp:Feuchte:
G-T/H 951 06-11-2017 00:00:00 10.80417 C 68.9083 %
952 07-11-2017 00:00:00 10.16167 C 68.1500 %
953 08-11-2017 00:00:00 10.51583 C 72.8417 %
954 09-11-2017 00:00:00 10.89833 C 74.4833 %
955 10-11-2017 00:00:00 10.70833 C 72.4333 %
956 11-11-2017 00:00:00 10.25917 C 71.3500 %
957 12-11-2017 00:00:00 9.99417 C 71.9333 %
958 13-11-2017 00:00:00 9.82667 C 72.4833 %
959 14-11-2017 00:00:00 9.44833 C 71.5833 %
960 15-11-2017 00:00:00 9.78417 C 73.4833 %
961 16-11-2017 00:00:00 9.8675 C 71.0000 %
962 17-11-2017 00:00:00 10.21917 C 72.6917 %
963 18-11-2017 00:00:00 8.93333 C 68.2833 %
964 19-11-2017 00:00:00 9.44917 C 70.7667 %
965 20-11-2017 00:00:00 9.4175 C 70.1500 %
966 21-11-2017 00:00:00 10.07833 C 73.5833 %
967 22-11-2017 00:00:00 10.72 C 73.9917 %
968 23-11-2017 00:00:00 10.0175 C 71.3000 %
969 24-11-2017 00:00:00 11.32583 C 75.4750 %
970 25-11-2017 00:00:00 10.815 C 70.9083 %
971 26-11-2017 00:00:00 9.25 C 65.7167 %
972 27-11-2017 00:00:00 9.09917 C 68.4083 %
973 28-11-2017 00:00:00 9.38167 C 70.0917 %
974 29-11-2017 00:00:00 8.70583 C 68.4167 %
975 30-11-2017 00:00:00 8.38083 C 67.8167 %
Sensor: Nr:Datum:Temp:Feuchte:
G-T/H 976 01-12-2017 00:00:00 7.8275 C 66.9750 %
977 02-12-2017 00:00:00 6.8025 C 64.3667 %
978 03-12-2017 00:00:00 7.2 C 63.1583 %
979 04-12-2017 00:00:00 7.5275 C 69.7417 %
980 05-12-2017 00:00:00 8.31833 C 73.2750 %
981 06-12-2017 00:00:00 8.98333 C 73.6833 %
982 07-12-2017 00:00:00 8.76667 C 67.2083 %
983 08-12-2017 00:00:00 8.66917 C 66.2417 %
984 09-12-2017 00:00:00 7.4925 C 59.9167 %
985 10-12-2017 00:00:00 7.18333 C 64.1750 %
986 11-12-2017 00:00:00 7.94417 C 72.5667 %
987 12-12-2017 00:00:00 8.19083 C 68.4083 %
988 13-12-2017 00:00:00 7.93917 C 67.1333 %
989 14-12-2017 00:00:00 7.92667 C 69.1000 %
990 15-12-2017 00:00:00 7.94167 C 70.5000 %
991 16-12-2017 00:00:00 7.925 C 71.0833 %
992 17-12-2017 00:00:00 7.8375 C 69.7667 %
993 18-12-2017 00:00:00 7.10333 C 67.6500 %
994 19-12-2017 00:00:00 7.60417 C 70.4667 %
995 20-12-2017 00:00:00 8.29083 C 73.0000 %
996 21-12-2017 00:00:00 9.43333 C 74.8833 %
997 22-12-2017 00:00:00 10.32333 C 75.8833 %
998 23-12-2017 00:00:00 10.45667 C 76.0750 %
999 24-12-2017 00:00:00 10.61417 C 75.9000 %
1000 25-12-2017 00:00:00 10.30833 C 71.7667 %
Sensor: Nr:Datum:Temp:Feuchte:
G-T/H 1001 26-12-2017 00:00:00 9.0975 C 68.1083 %
1002 27-12-2017 00:00:00 8.905 C 71.4083 %
1003 28-12-2017 00:00:00 8.96167 C 70.6417 %
1004 29-12-2017 00:00:00 14.36852 C 70.8611 %
1005 30-12-2017 00:00:00 8.1925 C 73.4750 %
1006 31-12-2017 00:00:00 10.73 C 74.9167 %
1007 01-01-2018 00:00:00 10.91333 C 70.9167 %
1008 02-01-2018 00:00:00 9.93833 C 71.7000 %
1009 03-01-2018 00:00:00 9.98417 C 71.9333 %
1010 04-01-2018 00:00:00 9.81167 C 73.7667 %
1011 05-01-2018 00:00:00 10.06833 C 72.5333 %
1012 06-01-2018 00:00:00 9.95417 C 74.1667 %
1013 07-01-2018 00:00:00 9.5275 C 72.0083 %
1014 08-01-2018 00:00:00 8.9575 C 69.3000 %
1015 09-01-2018 00:00:00 8.81583 C 71.4583 %
1016 10-01-2018 00:00:00 9.03917 C 73.1917 %
1017 11-01-2018 00:00:00 9.4725 C 74.4333 %
1018 12-01-2018 00:00:00 9.7375 C 75.0000 %
1019 13-01-2018 00:00:00 9.48 C 71.6333 %
1020 14-01-2018 00:00:00 8.7325 C 64.1833 %
1021 15-01-2018 00:00:00 8.00083 C 65.2500 %
1022 16-01-2018 00:00:00 8.6025 C 70.4000 %
1023 17-01-2018 00:00:00 8.19 C 66.7833 %
1024 18-01-2018 00:00:00 8.2875 C 68.1000 %
1025 19-01-2018 00:00:00 8.47333 C 67.2417 %
Sensor: Nr:Datum:Temp:Feuchte:
G-T/H 1026 20-01-2018 00:00:00 7.515 C 67.7833 %
1027 21-01-2018 00:00:00 7.5275 C 70.9250 %
1028 22-01-2018 00:00:00 7.75 C 71.9417 %
1029 23-01-2018 00:00:00 8.69492 C 73.4661 %
1030 24-01-2018 00:00:00 9.75556 C 74.8120 %
1031 25-01-2018 00:00:00 10.6075 C 75.1917 %
1032 26-01-2018 00:00:00 10.3125 C 74.1917 %
1033 27-01-2018 00:00:00 9.54 C 72.2583 %
1034 28-01-2018 00:00:00 9.4625 C 73.1917 %
1035 29-01-2018 00:00:00 10.13833 C 74.2667 %
1036 30-01-2018 00:00:00 9.76167 C 71.3917 %
1037 31-01-2018 00:00:00 9.43 C 72.7083 %
1038 01-02-2018 00:00:00 8.55 C 67.8083 %
1039 02-02-2018 00:00:00 7.83917 C 68.3833 %
1040 03-02-2018 00:00:00 7.98992 C 68.2521 %
1041 04-02-2018 00:00:00 7.4 C 63.4333 %
1042 05-02-2018 00:00:00 6.47 C 60.2917 %
1043 06-02-2018 00:00:00 6.30833 C 61.8333 %
1044 07-02-2018 00:00:00 6.2075 C 63.0250 %
1045 08-02-2018 00:00:00 5.975 C 61.9833 %
1046 09-02-2018 00:00:00 5.43333 C 63.6917 %
1047 10-02-2018 00:00:00 6.105 C 66.3083 %
1048 11-02-2018 00:00:00 6.99167 C 66.3833 %
1049 12-02-2018 00:00:00 7.07833 C 64.5250 %
1050 13-02-2018 00:00:00 6.335 C 60.4167 %
Sensor: Nr:Datum:Temp:Feuchte:
G-T/H 1051 14-02-2018 00:00:00 5.87917 C 61.6500 %
1052 15-02-2018 00:00:00 5.88583 C 66.8833 %
1053 16-02-2018 00:00:00 6.29667 C 70.6750 %
1054 17-02-2018 00:00:00 6.07083 C 67.1000 %
1055 18-02-2018 00:00:00 5.89667 C 66.5500 %
1056 19-02-2018 00:00:00 5.89083 C 68.3167 %
1057 20-02-2018 00:00:00 6.01 C 66.1333 %
1058 21-02-2018 00:00:00 5.89083 C 63.8500 %
1059 22-02-2018 00:00:00 5.73333 C 61.2667 %
1060 23-02-2018 00:00:00 5.48583 C 60.5583 %
1061 24-02-2018 00:00:00 5.12583 C 59.3667 %
1062 25-02-2018 00:00:00 4.93667 C 56.8667 %
1063 26-02-2018 00:00:00 4.61167 C 55.2417 %
1064 27-02-2018 00:00:00 4.5275 C 52.9667 %
1065 28-02-2018 00:00:00 4.28667 C 51.9750 %
1066 01-03-2018 00:00:00 4.305 C 53.0333 %
1067 02-03-2018 00:00:00 4.77417 C 54.7917 %
1068 03-03-2018 00:00:00 5.21917 C 60.2833 %
1069 04-03-2018 00:00:00 6.01083 C 65.3000 %
1070 05-03-2018 00:00:00 7.26 C 67.7083 %
1071 06-03-2018 00:00:00 7.275 C 64.2583 %
1072 07-03-2018 00:00:00 8.05833 C 67.2083 %
1073 08-03-2018 00:00:00 8.30667 C 69.2500 %
1074 09-03-2018 00:00:00 8.13 C 70.0750 %
1075 10-03-2018 00:00:00 8.92167 C 72.5500 %
Sensor: Nr:Datum:Temp:Feuchte:
G-T/H 1076 11-03-2018 00:00:00 10.33 C 74.6417 %
1077 12-03-2018 00:00:00 10.33667 C 74.2417 %
1078 13-03-2018 00:00:00 10.06083 C 73.3417 %
1079 14-03-2018 00:00:00 9.31667 C 70.8667 %
1080 15-03-2018 00:00:00 8.67083 C 68.2833 %
1081 16-03-2018 00:00:00 9.4175 C 72.0250 %
1082 17-03-2018 00:00:00 8.13333 C 61.2417 %
1083 18-03-2018 00:00:00 6.64 C 57.5417 %
1084 19-03-2018 00:00:00 6.395 C 58.4417 %
1085 20-03-2018 00:00:00 6.19167 C 59.8333 %
1086 21-03-2018 00:00:00 6.24 C 61.0167 %
1087 22-03-2018 00:00:00 6.45333 C 62.8500 %
1088 23-03-2018 00:00:00 7.555 C 68.1250 %
1089 24-03-2018 00:00:00 7.95833 C 66.2333 %
1090 25-03-2018 00:00:00 7.42522 C 63.5130 %
1091 26-03-2018 00:00:00 8.47583 C 65.8417 %
1092 27-03-2018 00:00:00 8.32583 C 65.0083 %
1093 28-03-2018 00:00:00 9.05 C 70.1833 %
1094 29-03-2018 00:00:00 9.1875 C 67.9333 %
1095 30-03-2018 00:00:00 8.73083 C 65.5333 %
1096 31-03-2018 00:00:00 9.3075 C 68.4417 %
1097 01-04-2018 00:00:00 9.65917 C 69.4500 %
1098 02-04-2018 00:00:00 9.52333 C 68.1000 %
1099 03-04-2018 00:00:00 10.725 C 69.7000 %
1100 04-04-2018 00:00:00 11.48583 C 70.6333 %
Sensor: Nr:Datum:Temp:Feuchte:
G-T/H 1101 05-04-2018 00:00:00 10.94833 C 68.8000 %
1102 06-04-2018 00:00:00 9.26167 C 62.4833 %
1103 07-04-2018 00:00:00 10.58667 C 62.3917 %
1104 08-04-2018 00:00:00 13.47 C 59.0417 %
1105 09-04-2018 00:00:00 14.53917 C 57.1667 %
1106 10-04-2018 00:00:00 13.77667 C 63.5000 %
1107 11-04-2018 00:00:00 13.00917 C 66.6083 %
1108 12-04-2018 00:00:00 12.9425 C 66.9917 %
1109 13-04-2018 00:00:00 12.73333 C 67.2917 %
1110 14-04-2018 00:00:00 13.63417 C 61.7667 %
1111 15-04-2018 00:00:00 13.92167 C 65.0333 %
1112 16-04-2018 00:00:00 14.52167 C 62.0000 %
1113 17-04-2018 00:00:00 14.20333 C 61.1500 %
1114 18-04-2018 00:00:00 14.54417 C 62.2333 %
1115 19-04-2018 00:00:00 14.79583 C 62.5583 %
1116 20-04-2018 00:00:00 15.73333 C 61.3833 %
1117 21-04-2018 00:00:00 15.80333 C 63.5083 %
1118 22-04-2018 00:00:00 15.78333 C 66.2917 %
1119 23-04-2018 00:00:00 17.01667 C 62.7833 %
1120 24-04-2018 00:00:00 16.23833 C 56.5917 %
1121 25-04-2018 00:00:00 15.21833 C 62.0333 %
1122 26-04-2018 00:00:00 13.76 C 51.5583 %
1123 27-04-2018 00:00:00 13.61917 C 56.6250 %
1124 28-04-2018 00:00:00 13.9325 C 61.2917 %
1125 29-04-2018 00:00:00 14.02083 C 64.6000 %
Sensor: Nr:Datum:Temp:Feuchte:
G-T/H 1126 30-04-2018 00:00:00 14.6725 C 64.2917 %
1127 01-05-2018 00:00:00 13.36417 C 58.0083 %
1128 02-05-2018 00:00:00 13.24833 C 56.1500 %
1129 03-05-2018 00:00:00 13.77 C 57.8750 %
1130 04-05-2018 00:00:00 13.83917 C 58.3750 %
1131 05-05-2018 00:00:00 15.43167 C 55.9333 %
1132 06-05-2018 00:00:00 15.6825 C 57.6750 %
1133 07-05-2018 00:00:00 17.61 C 52.7917 %
1134 08-05-2018 00:00:00 18.74917 C 49.1583 %
1135 09-05-2018 00:00:00 17.61417 C 55.5167 %
1136 10-05-2018 00:00:00 16.74583 C 61.1667 %
1137 11-05-2018 00:00:00 15.555 C 63.3500 %
1138 12-05-2018 00:00:00 15.79083 C 63.9333 %
1139 13-05-2018 00:00:00 16.08833 C 66.4583 %
1140 14-05-2018 00:00:00 15.57667 C 68.2083 %
1141 15-05-2018 00:00:00 16.8825 C 59.6083 %
1142 16-05-2018 00:00:00 16.71333 C 63.0083 %
1143 17-05-2018 00:00:00 15.91 C 63.1083 %
1144 18-05-2018 00:00:00 15.1975 C 60.7083 %
1145 19-05-2018 00:00:00 15.0375 C 63.1750 %
1146 20-05-2018 00:00:00 15.13333 C 64.4667 %
1147 21-05-2018 00:00:00 16.85667 C 64.3167 %
1148 22-05-2018 00:00:00 17.2475 C 65.6333 %
1149 23-05-2018 00:00:00 16.85417 C 68.0583 %
1150 24-05-2018 00:00:00 16.56417 C 69.4500 %
Sensor: Nr:Datum:Temp:Feuchte:
G-T/H 1151 25-05-2018 00:00:00 17.3275 C 69.1583 %
1152 26-05-2018 00:00:00 18.92583 C 67.1167 %
1153 27-05-2018 00:00:00 18.99167 C 68.2750 %
1154 28-05-2018 00:00:00 18.94167 C 69.8667 %
1155 29-05-2018 00:00:00 19.4375 C 69.9667 %
1156 30-05-2018 00:00:00 19.22417 C 70.2750 %
1157 31-05-2018 00:00:00 19.74667 C 69.8500 %
1158 01-06-2018 00:00:00 19.70417 C 70.5583 %
1159 02-06-2018 00:00:00 19.1175 C 70.5000 %
1160 03-06-2018 00:00:00 19.86917 C 66.6000 %
1161 04-06-2018 00:00:00 21.16 C 62.4500 %
1162 05-06-2018 00:00:00 21.1225 C 62.2500 %
1163 06-06-2018 00:00:00 20.28167 C 64.7000 %
1164 07-06-2018 00:00:00 20.33167 C 66.7250 %
1165 08-06-2018 00:00:00 20.14167 C 68.3250 %
1166 09-06-2018 00:00:00 21.14508 C 68.4918 %
1167 10-06-2018 00:00:00 20.73583 C 69.4833 %
1168 11-06-2018 00:00:00 20.2075 C 70.2833 %
1169 12-06-2018 00:00:00 18.93333 C 70.9417 %
1170 13-06-2018 00:00:00 17.78333 C 67.8500 %
1171 14-06-2018 00:00:00 17.08167 C 65.6167 %
1172 15-06-2018 00:00:00 17.87667 C 69.7333 %
1173 16-06-2018 00:00:00 19.23167 C 66.0250 %
1174 17-06-2018 00:00:00 19.20917 C 66.1250 %
1175 18-06-2018 00:00:00 18.5725 C 66.5167 %
Sensor: Nr:Datum:Temp:Feuchte:
G-T/H 1176 19-06-2018 00:00:00 19.3025 C 68.1667 %
1177 20-06-2018 00:00:00 21.34417 C 62.6417 %
1178 21-06-2018 00:00:00 20.40083 C 61.7667 %
1179 22-06-2018 00:00:00 18.12583 C 59.1417 %
1180 23-06-2018 00:00:00 16.91917 C 60.9000 %
1181 24-06-2018 00:00:00 17.08583 C 64.6833 %
1182 25-06-2018 00:00:00 17.72833 C 66.0250 %
1183 26-06-2018 00:00:00 18.48917 C 62.1583 %
1184 27-06-2018 00:00:00 19.815 C 57.9000 %
1185 28-06-2018 00:00:00 20.73667 C 53.0667 %
1186 29-06-2018 00:00:00 22.01 C 53.8250 %
1187 30-06-2018 00:00:00 22.90917 C 48.2667 %
1188 01-07-2018 00:00:00 21.50833 C 49.2500 %
1189 02-07-2018 00:00:00 21.34083 C 43.1083 %
1190 03-07-2018 00:00:00 20.70167 C 49.9250 %
1191 04-07-2018 00:00:00 21.1075 C 60.3667 %
1192 05-07-2018 00:00:00 21.2225 C 66.7750 %
1193 06-07-2018 00:00:00 20.8225 C 63.6917 %
1194 07-07-2018 00:00:00 20.45126 C 62.5294 %
1195 08-07-2018 00:00:00 20.11833 C 59.9000 %
1196 09-07-2018 00:00:00 20.74917 C 55.1417 %
1197 10-07-2018 00:00:00 20.3825 C 58.3167 %
1198 11-07-2018 00:00:00 18.89583 C 62.6083 %
1199 12-07-2018 00:00:00 18.92167 C 65.2500 %
1200 13-07-2018 00:00:00 20.39417 C 62.1167 %
Sensor: Nr:Datum:Temp:Feuchte:
G-T/H 1201 14-07-2018 00:00:00 20.52583 C 63.2833 %
1202 15-07-2018 00:00:00 20.67417 C 63.4333 %
1203 16-07-2018 00:00:00 20.8475 C 63.2583 %
1204 17-07-2018 00:00:00 20.97167 C 63.0667 %
1205 18-07-2018 00:00:00 20.9325 C 59.6167 %
1206 19-07-2018 00:00:00 21.11667 C 54.9500 %
1207 20-07-2018 00:00:00 21.86917 C 52.9083 %
1208 21-07-2018 00:00:00 21.57333 C 58.8500 %
1209 22-07-2018 00:00:00 20.75417 C 62.4750 %
1210 23-07-2018 00:00:00 22.1575 C 57.9833 %
1211 24-07-2018 00:00:00 23.88 C 52.9250 %
1212 25-07-2018 00:00:00 24.83333 C 49.4917 %
1213 26-07-2018 00:00:00 25.99417 C 48.0750 %
1214 27-07-2018 00:00:00 25.445 C 46.9000 %
1215 28-07-2018 00:00:00 24.04917 C 55.1667 %
1216 29-07-2018 00:00:00 22.61667 C 58.5167 %
1217 30-07-2018 00:00:00 24.22583 C 54.8000 %
1218 31-07-2018 00:00:00 25.41833 C 51.8250 %
1219 01-08-2018 00:00:00 23.80667 C 61.0833 %
1220 02-08-2018 00:00:00 23.36417 C 62.3583 %
1221 03-08-2018 00:00:00 24.53167 C 58.5333 %
1222 04-08-2018 00:00:00 25.9125 C 50.5583 %
1223 05-08-2018 00:00:00 24.74417 C 53.5917 %
1224 06-08-2018 00:00:00 24.53333 C 49.9583 %
1225 07-08-2018 00:00:00 24.12667 C 54.2583 %
Sensor: Nr:Datum:Temp:Feuchte:
G-T/H 1226 08-08-2018 00:00:00 24.27667 C 57.4917 %
1227 09-08-2018 00:00:00 23.23333 C 60.5250 %
1228 10-08-2018 00:00:00 21.49417 C 54.0000 %
1229 11-08-2018 00:00:00 20.81667 C 56.0583 %
1230 12-08-2018 00:00:00 20.13 C 56.1333 %
1231 13-08-2018 00:00:00 20.07083 C 60.5667 %
1232 14-08-2018 00:00:00 19.80333 C 63.5000 %
1233 15-08-2018 00:00:00 19.82917 C 65.0667 %
1234 16-08-2018 00:00:00 19.9875 C 64.3500 %
1235 17-08-2018 00:00:00 20.46083 C 64.9583 %
1236 18-08-2018 00:00:00 19.96167 C 62.2667 %
1237 19-08-2018 00:00:00 19.83667 C 62.1667 %
1238 20-08-2018 00:00:00 21.2525 C 62.2667 %
1239 21-08-2018 00:00:00 21.17667 C 63.9333 %
1240 22-08-2018 00:00:00 21.1725 C 64.1750 %
1241 23-08-2018 00:00:00 21.47667 C 64.7000 %
1242 24-08-2018 00:00:00 21.1275 C 62.0417 %
1243 25-08-2018 00:00:00 19.5075 C 59.1667 %
1244 26-08-2018 00:00:00 18.22417 C 55.7083 %
1245 27-08-2018 00:00:00 18.48167 C 60.4500 %
1246 28-08-2018 00:00:00 18.53833 C 61.2250 %
1247 29-08-2018 00:00:00 18.56917 C 62.2417 %
1248 30-08-2018 00:00:00 18.82333 C 63.4833 %
1249 31-08-2018 00:00:00 18.3025 C 59.8750 %
1250 01-09-2018 00:00:00 17.4825 C 59.8917 %
Sensor: Nr:Datum:Temp:Feuchte:
G-T/H 1251 02-09-2018 00:00:00 16.9325 C 62.1583 %
1252 03-09-2018 00:00:00 18.13333 C 66.0000 %
1253 04-09-2018 00:00:00 19.61083 C 66.7083 %
1254 05-09-2018 00:00:00 19.59583 C 67.1750 %
1255 06-09-2018 00:00:00 19.38917 C 68.3667 %
1256 07-09-2018 00:00:00 18.6775 C 67.7917 %
1257 08-09-2018 00:00:00 17.10833 C 59.8333 %
1258 09-09-2018 00:00:00 17.1975 C 64.7667 %
1259 10-09-2018 00:00:00 18.47583 C 60.5250 %
1260 11-09-2018 00:00:00 19.45417 C 58.4917 %
1261 12-09-2018 00:00:00 18.84083 C 60.8833 %
1262 13-09-2018 00:00:00 18.58083 C 66.2167 %
1263 14-09-2018 00:00:00 18.04833 C 65.0000 %
1264 15-09-2018 00:00:00 17.66667 C 59.8833 %
1265 16-09-2018 00:00:00 16.83 C 61.8000 %
1266 17-09-2018 00:00:00 17.8475 C 57.0583 %
1267 18-09-2018 00:00:00 19.79417 C 56.2333 %
1268 19-09-2018 00:00:00 21.03083 C 58.0583 %
1269 20-09-2018 00:00:00 20.82 C 55.5500 %
1270 21-09-2018 00:00:00 19.29417 C 59.4833 %
1271 22-09-2018 00:00:00 17.24917 C 60.5250 %
1272 23-09-2018 00:00:00 16.50167 C 65.7500 %
1273 24-09-2018 00:00:00 15.14583 C 63.3167 %
1274 25-09-2018 00:00:00 13.7275 C 62.7333 %
1275 26-09-2018 00:00:00 13.02583 C 63.2917 %
Sensor: Nr:Datum:Temp:Feuchte:
G-T/H 1276 27-09-2018 00:00:00 13.0625 C 65.7333 %
1277 28-09-2018 00:00:00 13.53583 C 69.5083 %
1278 29-09-2018 00:00:00 12.62 C 64.5750 %
1279 30-09-2018 00:00:00 11.83417 C 63.4000 %
1280 01-10-2018 00:00:00 12.43167 C 68.0167 %
1281 02-10-2018 00:00:00 12.47917 C 67.0333 %
1282 03-10-2018 00:00:00 13.125 C 70.8750 %
1283 04-10-2018 00:00:00 12.85083 C 66.8417 %
1284 05-10-2018 00:00:00 13.175 C 68.1250 %
1285 06-10-2018 00:00:00 12.79833 C 73.9167 %
1286 07-10-2018 00:00:00 14.22167 C 74.0833 %
1287 08-10-2018 00:00:00 13.52083 C 69.3917 %
1288 09-10-2018 00:00:00 13.39083 C 72.8583 %
1289 10-10-2018 00:00:00 13.75333 C 75.3000 %
1290 11-10-2018 00:00:00 13.985 C 75.0167 %
1291 12-10-2018 00:00:00 14.54333 C 75.8417 %
1292 13-10-2018 00:00:00 15.69 C 72.6083 %
1293 14-10-2018 00:00:00 15.11667 C 72.1917 %
1294 15-10-2018 00:00:00 14.6725 C 73.1583 %
1295 16-10-2018 00:00:00 14.08333 C 72.8917 %
1296 17-10-2018 00:00:00 13.86667 C 73.4083 %
1297 18-10-2018 00:00:00 14.26083 C 74.7500 %
1298 19-10-2018 00:00:00 14.28333 C 73.2417 %
1299 20-10-2018 00:00:00 14.01833 C 72.8250 %
1300 21-10-2018 00:00:00 12.52583 C 67.5917 %
Sensor: Nr:Datum:Temp:Feuchte:
G-T/H 1301 22-10-2018 00:00:00 11.7575 C 67.8750 %
1302 23-10-2018 00:00:00 11.71417 C 69.2333 %
1303 24-10-2018 00:00:00 13.1175 C 73.3417 %
1304 25-10-2018 00:00:00 13.88083 C 73.4083 %
1305 26-10-2018 00:00:00 13.5375 C 68.0250 %
1306 27-10-2018 00:00:00 12.19667 C 65.8417 %
1307 28-10-2018 00:00:00 10.9176 C 62.4880 %
1308 29-10-2018 00:00:00 10.95583 C 65.6250 %
1309 30-10-2018 00:00:00 10.86333 C 67.5167 %
1310 31-10-2018 00:00:00 10.8775 C 68.4750 %
1311 01-11-2018 00:00:00 10.72083 C 69.2750 %
1312 02-11-2018 00:00:00 11.285 C 72.4667 %
1313 03-11-2018 00:00:00 10.44 C 67.0750 %
1314 04-11-2018 00:00:00 10.265 C 68.6167 %
1315 05-11-2018 00:00:00 11.60167 C 72.5750 %
1316 06-11-2018 00:00:00 11.5475 C 72.0167 %
1317 07-11-2018 00:00:00 11.24083 C 72.4083 %
1318 08-11-2018 00:00:00 11.87833 C 74.0333 %
1319 09-11-2018 00:00:00 11.62333 C 73.2750 %
1320 10-11-2018 00:00:00 12.22833 C 74.7000 %
1321 11-11-2018 00:00:00 12.73917 C 75.7833 %
1322 12-11-2018 00:00:00 13.255 C 75.6083 %
1323 13-11-2018 00:00:00 13.2975 C 75.3417 %
1324 14-11-2018 00:00:00 11.54667 C 70.8583 %
1325 15-11-2018 00:00:00 11.19417 C 71.8333 %
Sensor: Nr:Datum:Temp:Feuchte:
G-T/H 1326 16-11-2018 00:00:00 10.76833 C 68.8833 %
1327 17-11-2018 00:00:00 9.25167 C 68.0000 %
1328 18-11-2018 00:00:00 8.3775 C 68.4167 %
1329 19-11-2018 00:00:00 8.15 C 69.1333 %
1330 20-11-2018 00:00:00 8.56667 C 68.8833 %
1331 21-11-2018 00:00:00 8.45333 C 69.6833 %
1332 22-11-2018 00:00:00 8.65333 C 70.9083 %
1333 23-11-2018 00:00:00 7.69667 C 69.4917 %
1334 24-11-2018 00:00:00 8.0325 C 72.4750 %
1335 25-11-2018 00:00:00 9.05667 C 73.9333 %
1336 26-11-2018 00:00:00 9.6625 C 74.3250 %
1337 27-11-2018 00:00:00 9.61333 C 72.8000 %
1338 28-11-2018 00:00:00 8.91917 C 71.9583 %
1339 29-11-2018 00:00:00 9.26083 C 73.8000 %
1340 30-11-2018 00:00:00 9.63 C 74.7833 %
1341 01-12-2018 00:00:00 9.92417 C 74.6250 %
1342 02-12-2018 00:00:00 10.7275 C 75.6167 %
1343 03-12-2018 00:00:00 11.87333 C 76.5417 %
1344 04-12-2018 00:00:00 11.3275 C 72.0250 %
1345 05-12-2018 00:00:00 9.61933 C 69.0504 %
1346 06-12-2018 00:00:00 10.40583 C 72.9583 %
1347 07-12-2018 00:00:00 11.82917 C 74.0583 %
1348 08-12-2018 00:00:00 11.04667 C 70.6667 %
1349 09-12-2018 00:00:00 10.81167 C 72.8000 %
1350 10-12-2018 00:00:00 10.01083 C 71.3083 %
Sensor: Nr:Datum:Temp:Feuchte:
G-T/H 1351 11-12-2018 00:00:00 9.19083 C 71.8583 %
1352 12-12-2018 00:00:00 8.70667 C 72.1583 %
1353 13-12-2018 00:00:00 8.07083 C 70.1167 %
1354 14-12-2018 00:00:00 7.78 C 68.6583 %
1355 15-12-2018 00:00:00 7.575 C 68.1083 %
1356 16-12-2018 00:00:00 7.33667 C 67.4333 %
1357 17-12-2018 00:00:00 7.74583 C 71.2333 %
1358 18-12-2018 00:00:00 8.3475 C 72.4667 %
1359 19-12-2018 00:00:00 8.60083 C 72.9417 %
1360 20-12-2018 00:00:00 9.3175 C 74.0000 %
1361 21-12-2018 00:00:00 10.0375 C 74.8333 %
1362 22-12-2018 00:00:00 10.99417 C 74.3000 %
1363 23-12-2018 00:00:00 10.525 C 74.6917 %
1364 24-12-2018 00:00:00 10.26583 C 72.2917 %
1365 25-12-2018 00:00:00 8.6825 C 71.1167 %
1366 26-12-2018 00:00:00 7.58083 C 70.1333 %
1367 27-12-2018 00:00:00 6.98167 C 70.2333 %
1368 28-12-2018 00:00:00 6.8575 C 71.5833 %
1369 29-12-2018 00:00:00 7.085 C 72.4583 %
1370 30-12-2018 00:00:00 8.24 C 74.4417 %
1371 31-12-2018 00:00:00 9.18833 C 75.6083 %
1372 01-01-2019 00:00:00 9.65583 C 75.8167 %
1373 02-01-2019 00:00:00 8.91333 C 73.4000 %
1374 03-01-2019 00:00:00 7.65417 C 72.7000 %
1375 04-01-2019 00:00:00 7.72667 C 73.7750 %
Sensor: Nr:Datum:Temp:Feuchte:
G-T/H 1376 05-01-2019 00:00:00 8.26833 C 74.6083 %
1377 06-01-2019 00:00:00 8.8 C 75.9250 %
1378 07-01-2019 00:00:00 8.94 C 75.0167 %
1379 08-01-2019 00:00:00 9.01833 C 74.5417 %
1380 09-01-2019 00:00:00 8.46417 C 73.0417 %
1381 10-01-2019 00:00:00 7.90083 C 71.3750 %
1382 11-01-2019 00:00:00 7.57167 C 72.1167 %
1383 12-01-2019 00:00:00 8.24417 C 74.2500 %
1384 13-01-2019 00:00:00 8.91667 C 75.6333 %
1385 14-01-2019 00:00:00 9.11083 C 74.7417 %
1386 15-01-2019 00:00:00 8.33333 C 74.3833 %
1387 16-01-2019 00:00:00 8.5125 C 74.7083 %
1388 17-01-2019 00:00:00 8.4975 C 74.5500 %
1389 18-01-2019 00:00:00 7.79333 C 72.6583 %
1390 19-01-2019 00:00:00 6.99833 C 69.2000 %
1391 20-01-2019 00:00:00 6.61083 C 64.8583 %
1392 21-01-2019 00:00:00 6.18667 C 61.1750 %
1393 22-01-2019 00:00:00 6.04833 C 60.2083 %
1394 23-01-2019 00:00:00 6.2575 C 63.4917 %
1395 24-01-2019 00:00:00 6.30833 C 65.6583 %
1396 25-01-2019 00:00:00 6.2425 C 67.2833 %
1397 26-01-2019 00:00:00 6.51833 C 71.7083 %
1398 27-01-2019 00:00:00 7.75333 C 73.9667 %
1399 28-01-2019 00:00:00 7.77417 C 74.2417 %
1400 29-01-2019 00:00:00 7.46167 C 73.9917 %
Sensor: Nr:Datum:Temp:Feuchte:
G-T/H 1401 30-01-2019 00:00:00 6.65667 C 69.5667 %
1402 31-01-2019 00:00:00 6.54333 C 72.1667 %
1403 01-02-2019 00:00:00 6.475 C 73.4167 %
1404 02-02-2019 00:00:00 6.70083 C 74.6612 %
1405 03-02-2019 00:00:00 6.98667 C 74.3417 %
1406 04-02-2019 00:00:00 6.68333 C 73.8083 %
1407 05-02-2019 00:00:00 7.12 C 74.5083 %
1408 06-02-2019 00:00:00 6.9875 C 73.4333 %
1409 07-02-2019 00:00:00 7.0025 C 74.8750 %
1410 08-02-2019 00:00:00 7.93833 C 76.1083 %
1411 09-02-2019 00:00:00 8.85917 C 76.1583 %
1412 10-02-2019 00:00:00 9.2225 C 75.9667 %
1413 11-02-2019 00:00:00 8.8125 C 75.1083 %
1414 12-02-2019 00:00:00 8.09167 C 74.2167 %
1415 13-02-2019 00:00:00 7.47583 C 73.5000 %
1416 14-02-2019 00:00:00 6.95583 C 72.5083 %
1417 15-02-2019 00:00:00 6.6825 C 71.6250 %
1418 16-02-2019 00:00:00 6.53917 C 73.3083 %
1419 17-02-2019 00:00:00 6.63667 C 74.1417 %
1420 18-02-2019 00:00:00 6.65583 C 74.3000 %
1421 19-02-2019 00:00:00 7.19417 C 75.8083 %
1422 20-02-2019 00:00:00 7.495 C 75.5500 %
1423 21-02-2019 00:00:00 7.76167 C 75.7333 %
1424 22-02-2019 00:00:00 9.21417 C 77.2250 %
1425 23-02-2019 00:00:00 9.20583 C 74.8917 %
Sensor: Nr:Datum:Temp:Feuchte:
G-T/H 1426 24-02-2019 00:00:00 8.01917 C 72.1333 %
1427 25-02-2019 00:00:00 7.5975 C 71.6250 %
1428 26-02-2019 00:00:00 7.74083 C 71.5500 %
1429 27-02-2019 00:00:00 6.63667 C 68.6917 %
1430 28-02-2019 00:00:00 8.11917 C 73.1500 %
1431 01-03-2019 00:00:00 9.37083 C 74.7583 %
1432 02-03-2019 00:00:00 9.69333 C 72.8750 %
1433 03-03-2019 00:00:00 10.36917 C 73.5083 %
1434 04-03-2019 00:00:00 10.60917 C 73.1083 %
1435 05-03-2019 00:00:00 9.71 C 71.6083 %
1436 06-03-2019 00:00:00 9.71 C 73.4333 %
1437 07-03-2019 00:00:00 10.48417 C 73.6500 %
1438 08-03-2019 00:00:00 10.0575 C 72.7250 %
1439 09-03-2019 00:00:00 10.17167 C 73.4333 %
1440 10-03-2019 00:00:00 10.60917 C 71.4667 %
1441 11-03-2019 00:00:00 9.44833 C 67.3667 %
1442 12-03-2019 00:00:00 8.92417 C 70.4667 %
1443 13-03-2019 00:00:00 9.345 C 71.3250 %
1444 14-03-2019 00:00:00 9.13333 C 72.3750 %
1445 15-03-2019 00:00:00 10.055 C 74.0583 %
1446 16-03-2019 00:00:00 10.57417 C 72.1333 %
1447 17-03-2019 00:00:00 9.70583 C 61.2083 %
1448 18-03-2019 00:00:00 6.8675 C 62.4667 %
1449 19-03-2019 00:00:00 6.02333 C 59.7583 %
1450 20-03-2019 00:00:00 7.52333 C 64.5167 %
Sensor: Nr:Datum:Temp:Feuchte:
G-T/H 1451 21-03-2019 00:00:00 9.29167 C 60.4917 %
1452 22-03-2019 00:00:00 10.14833 C 61.3250 %
1453 23-03-2019 00:00:00 10.15917 C 64.7250 %
1454 24-03-2019 00:00:00 9.54833 C 67.2167 %
1455 25-03-2019 00:00:00 9.15583 C 67.9000 %
1456 26-03-2019 00:00:00 9.0525 C 69.7250 %
1457 27-03-2019 00:00:00 9.47917 C 69.9333 %
1458 28-03-2019 00:00:00 9.49583 C 69.9417 %
1459 29-03-2019 00:00:00 10.2825 C 66.2583 %
1460 30-03-2019 00:00:00 9.79667 C 60.6083 %
1461 31-03-2019 00:00:00 11.2313 C 64.9130 %
1462 01-04-2019 00:00:00 11.50333 C 60.3833 %
1463 02-04-2019 00:00:00 11.2875 C 63.6333 %
1464 03-04-2019 00:00:00 11.49833 C 67.0000 %
1465 04-04-2019 00:00:00 10.56333 C 67.8833 %
1466 05-04-2019 00:00:00 9.87333 C 68.5417 %
1467 06-04-2019 00:00:00 10.76333 C 69.0417 %
1468 07-04-2019 00:00:00 11.4925 C 68.0667 %
1469 08-04-2019 00:00:00 12.30917 C 70.6833 %
1470 09-04-2019 00:00:00 12.2875 C 74.7333 %
1471 10-04-2019 00:00:00 12.35917 C 56.9917 %
1472 11-04-2019 00:00:00 10.73083 C 48.4917 %
1473 12-04-2019 00:00:00 9.57417 C 46.6333 %
1474 13-04-2019 00:00:00 9.48583 C 55.2583 %
1475 14-04-2019 00:00:00 9.175 C 58.5167 %
Sensor: Nr:Datum:Temp:Feuchte:
G-T/H 1476 15-04-2019 00:00:00 10.07667 C 62.0833 %
1477 16-04-2019 00:00:00 11.07083 C 62.2083 %
1478 17-04-2019 00:00:00 12.33417 C 65.8333 %
1479 18-04-2019 00:00:00 13.09417 C 62.0833 %
1480 19-04-2019 00:00:00 14.9125 C 51.5500 %
1481 20-04-2019 00:00:00 15.6775 C 48.0417 %
1482 21-04-2019 00:00:00 16.29 C 47.3167 %
1483 22-04-2019 00:00:00 15.22333 C 52.2417 %
1484 23-04-2019 00:00:00 15.61417 C 53.2333 %
1485 24-04-2019 00:00:00 15.37833 C 59.4167 %
1486 25-04-2019 00:00:00 14.5575 C 61.5833 %
1487 26-04-2019 00:00:00 14.28667 C 64.1250 %
1488 27-04-2019 00:00:00 13.445 C 64.1833 %
1489 28-04-2019 00:00:00 12.45 C 64.1833 %
1490 29-04-2019 00:00:00 11.95083 C 63.4083 %
1491 30-04-2019 00:00:00 13.89833 C 57.8083 %
1492 01-05-2019 00:00:00 14.135 C 60.2833 %
1493 02-05-2019 00:00:00 13.82333 C 62.1750 %
1494 03-05-2019 00:00:00 13.86417 C 59.4750 %
1495 04-05-2019 00:00:00 12.72083 C 59.0083 %
1496 05-05-2019 00:00:00 11.31667 C 59.7917 %
1497 06-05-2019 00:00:00 11.38833 C 61.2833 %
1498 07-05-2019 00:00:00 11.88083 C 62.6250 %
1499 08-05-2019 00:00:00 11.97 C 62.9333 %
1500 09-05-2019 00:00:00 12.35167 C 66.7333 %
Sensor: Nr:Datum:Temp:Feuchte:
G-T/H 1501 10-05-2019 00:00:00 12.92101 C 67.6218 %
1502 11-05-2019 00:00:00 13.15833 C 68.0833 %
1503 12-05-2019 00:00:00 12.12833 C 64.0833 %
1504 13-05-2019 00:00:00 12.045 C 60.0000 %
1505 14-05-2019 00:00:00 12.31083 C 59.7417 %
1506 15-05-2019 00:00:00 12.7725 C 52.9833 %
1507 16-05-2019 00:00:00 13.015 C 56.6333 %
1508 17-05-2019 00:00:00 13.21917 C 63.1000 %
1509 18-05-2019 00:00:00 14.04667 C 66.4250 %
1510 19-05-2019 00:00:00 14.825 C 68.0750 %
1511 20-05-2019 00:00:00 14.84583 C 68.8000 %
1512 21-05-2019 00:00:00 14.15167 C 70.0167 %
1513 22-05-2019 00:00:00 13.71167 C 69.7583 %
1514 23-05-2019 00:00:00 15.29917 C 61.3750 %
1515 24-05-2019 00:00:00 17.54 C 55.6333 %
1516 25-05-2019 00:00:00 17.29083 C 56.6250 %
1517 26-05-2019 00:00:00 16.44583 C 60.8167 %
1518 27-05-2019 00:00:00 16.3925 C 64.3917 %
1519 28-05-2019 00:00:00 15.71583 C 66.5333 %
1520 29-05-2019 00:00:00 16.0475 C 54.4250 %
1521 30-05-2019 00:00:00 15.75417 C 61.4167 %
1522 31-05-2019 00:00:00 17.74167 C 65.2667 %
1523 01-06-2019 00:00:00 18.025 C 65.0750 %
1524 02-06-2019 00:00:00 18.60667 C 66.0917 %
1525 03-06-2019 00:00:00 19.92333 C 65.8667 %
Sensor: Nr:Datum:Temp:Feuchte:
G-T/H 1526 04-06-2019 00:00:00 19.69667 C 66.1500 %
1527 05-06-2019 00:00:00 20.025 C 66.6917 %
1528 06-06-2019 00:00:00 19.2775 C 64.1917 %
1529 07-06-2019 00:00:00 17.86583 C 60.1250 %
1530 08-06-2019 00:00:00 17.565 C 60.2333 %
1531 09-06-2019 00:00:00 16.99667 C 61.5667 %
1532 10-06-2019 00:00:00 17.96333 C 64.8583 %
1533 11-06-2019 00:00:00 18.18333 C 66.3917 %
1534 12-06-2019 00:00:00 17.70333 C 67.3917 %
1535 13-06-2019 00:00:00 17.89167 C 58.1667 %
1536 14-06-2019 00:00:00 19.59083 C 60.6083 %
1537 15-06-2019 00:00:00 19.6625 C 64.9917 %
1538 16-06-2019 00:00:00 19.56917 C 62.4417 %
1539 17-06-2019 00:00:00 19.01167 C 62.8417 %
1540 18-06-2019 00:00:00 21.23667 C 58.9250 %
1541 19-06-2019 00:00:00 21.53167 C 61.1000 %
1542 20-06-2019 00:00:00 20.7375 C 63.5667 %
1543 21-06-2019 00:00:00 20.53083 C 52.5000 %
1544 22-06-2019 00:00:00 20.16917 C 54.8083 %
1545 23-06-2019 00:00:00 21.31917 C 57.1667 %
1546 24-06-2019 00:00:00 23.94167 C 55.3000 %
1547 25-06-2019 00:00:00 23.93083 C 58.5083 %
1548 26-06-2019 00:00:00 24.37417 C 62.9417 %
1549 27-06-2019 00:00:00 23.60667 C 60.8333 %
1550 28-06-2019 00:00:00 22.21417 C 58.6667 %
Sensor: Nr:Datum:Temp:Feuchte:
G-T/H 1551 29-06-2019 00:00:00 24.105 C 45.4667 %
1552 30-06-2019 00:00:00 23.46833 C 52.6667 %
1553 01-07-2019 00:00:00 23.14417 C 56.9333 %
1554 02-07-2019 00:00:00 21.5975 C 49.7667 %
1555 03-07-2019 00:00:00 20.46667 C 46.5000 %
1556 04-07-2019 00:00:00 20.24 C 44.2750 %
1557 05-07-2019 00:00:00 20.99583 C 47.4667 %
1558 06-07-2019 00:00:00 21.055 C 53.0250 %
1559 07-07-2019 00:00:00 20.39667 C 54.9083 %
1560 08-07-2019 00:00:00 18.37167 C 51.1250 %
1561 09-07-2019 00:00:00 18.10583 C 49.1417 %
1562 10-07-2019 00:00:00 18.91917 C 42.0333 %
1563 11-07-2019 00:00:00 18.91167 C 59.7083 %
1564 12-07-2019 00:00:00 18.3025 C 73.7917 %
1565 13-07-2019 00:00:00 18.47333 C 67.7417 %
1566 14-07-2019 00:00:00 18.46917 C 65.0917 %
1567 15-07-2019 00:00:00 18.2725 C 59.6250 %
1568 16-07-2019 00:00:00 17.95917 C 58.3667 %
1569 17-07-2019 00:00:00 18.23667 C 61.2917 %
1570 18-07-2019 00:00:00 19.79417 C 58.3083 %
1571 19-07-2019 00:00:00 19.79417 C 61.5917 %
1572 20-07-2019 00:00:00 19.78583 C 63.8500 %
1573 21-07-2019 00:00:00 20.41333 C 63.8583 %
1574 22-07-2019 00:00:00 22.33167 C 54.5167 %
1575 23-07-2019 00:00:00 22.5225 C 56.8667 %
Sensor: Nr:Datum:Temp:Feuchte:
G-T/H 1576 24-07-2019 00:00:00 23.21833 C 58.3417 %
1577 25-07-2019 00:00:00 24.345 C 57.0083 %
1578 26-07-2019 00:00:00 24.17667 C 57.8500 %
1579 27-07-2019 00:00:00 23.54 C 61.3083 %
1580 28-07-2019 00:00:00 22.08333 C 64.8167 %
1581 29-07-2019 00:00:00 21.58833 C 59.7917 %
1582 30-07-2019 00:00:00 21.785 C 58.7750 %
1583 31-07-2019 00:00:00 22.4025 C 50.4333 %
1584 01-08-2019 00:00:00 21.77083 C 49.7000 %
1585 02-08-2019 00:00:00 21.34583 C 55.7750 %
1586 03-08-2019 00:00:00 20.90667 C 59.1167 %
1587 04-08-2019 00:00:00 20.4525 C 59.4750 %
1588 05-08-2019 00:00:00 22.07 C 57.0167 %
1589 06-08-2019 00:00:00 21.48083 C 59.7417 %
1590 07-08-2019 00:00:00 21.08 C 63.1500 %
1591 08-08-2019 00:00:00 20.60333 C 62.6167 %
1592 09-08-2019 00:00:00 20.50167 C 64.6000 %
1593 10-08-2019 00:00:00 20.38917 C 65.0917 %
1594 11-08-2019 00:00:00 19.8725 C 64.3750 %
1595 12-08-2019 00:00:00 19.0475 C 65.6000 %
1596 13-08-2019 00:00:00 18.645 C 58.8417 %
1597 14-08-2019 00:00:00 18.54583 C 57.0833 %
1598 15-08-2019 00:00:00 18.91583 C 62.6250 %
1599 16-08-2019 00:00:00 18.59917 C 65.5583 %
1600 17-08-2019 00:00:00 18.78167 C 67.1583 %
Sensor: Nr:Datum:Temp:Feuchte:
G-T/H 1601 18-08-2019 00:00:00 19.07417 C 68.7167 %
1602 19-08-2019 00:00:00 19.70167 C 61.8833 %
1603 20-08-2019 00:00:00 18.7775 C 58.6500 %
1604 21-08-2019 00:00:00 18.37 C 62.6500 %
1605 22-08-2019 00:00:00 18.7725 C 58.7167 %
1606 23-08-2019 00:00:00 19.34333 C 56.0250 %
1607 24-08-2019 00:00:00 19.1825 C 58.5917 %
1608 25-08-2019 00:00:00 19.53 C 63.3500 %
1609 26-08-2019 00:00:00 21.84417 C 64.5833 %
1610 27-08-2019 00:00:00 21.31417 C 66.1667 %
1611 28-08-2019 00:00:00 21.07 C 66.6583 %
1612 29-08-2019 00:00:00 21.03417 C 66.8417 %
1613 30-08-2019 00:00:00 20.6775 C 66.8917 %
1614 31-08-2019 00:00:00 20.2775 C 66.5917 %
1615 01-09-2019 00:00:00 20.59167 C 65.4167 %
1616 02-09-2019 00:00:00 18.59583 C 51.3417 %
1617 03-09-2019 00:00:00 16.5475 C 53.5583 %
1618 04-09-2019 00:00:00 18.68667 C 56.9667 %
1619 05-09-2019 00:00:00 18.34667 C 60.0000 %
1620 06-09-2019 00:00:00 17.44333 C 56.1750 %
1621 07-09-2019 00:00:00 17.36583 C 60.4417 %
1622 08-09-2019 00:00:00 16.54309 C 65.9350 %
1623 09-09-2019 00:00:00 16.06067 C 66.7333 %
1624 10-09-2019 00:00:00 15.23333 C 63.6597 %
1625 11-09-2019 00:00:00 15.74097 C 61.0833 %
Sensor: Nr:Datum:Temp:Feuchte:
G-T/H 1626 12-09-2019 00:00:00 17.93194 C 67.6319 %
1627 13-09-2019 00:00:00 18.68472 C 70.9653 %
1628 14-09-2019 00:00:00 18.01181 C 65.5903 %
1629 15-09-2019 00:00:00 17.60347 C 61.9722 %
1630 16-09-2019 00:00:00 17.78264 C 60.7361 %
1631 17-09-2019 00:00:00 17.67431 C 62.7083 %
1632 18-09-2019 00:00:00 15.39444 C 57.2778 %
1633 19-09-2019 00:00:00 14.12361 C 57.3125 %
1634 20-09-2019 00:00:00 13.22639 C 59.3056 %
1635 21-09-2019 00:00:00 15.10833 C 52.5278 %
1636 22-09-2019 00:00:00 15.13194 C 59.2083 %
1637 23-09-2019 00:00:00 16.27153 C 64.4028 %
1638 24-09-2019 00:00:00 16.11528 C 66.2778 %
1639 25-09-2019 00:00:00 16.20556 C 67.8681 %
1640 26-09-2019 00:00:00 16.33542 C 69.4097 %
1641 27-09-2019 00:00:00 16.76458 C 69.3611 %
1642 28-09-2019 00:00:00 16.47083 C 68.9792 %
1643 29-09-2019 00:00:00 16.41458 C 69.6528 %
1644 30-09-2019 00:00:00 16.64236 C 66.7917 %
1645 01-10-2019 00:00:00 16.54167 C 68.3542 %
1646 02-10-2019 00:00:00 16.15694 C 67.3056 %
1647 03-10-2019 00:00:00 14.67222 C 66.7361 %
1648 04-10-2019 00:00:00 14.15556 C 70.1319 %
1649 05-10-2019 00:00:00 14.31875 C 71.1667 %
1650 06-10-2019 00:00:00 13.69306 C 70.7847 %
Sensor: Nr:Datum:Temp:Feuchte:
G-T/H 1651 07-10-2019 00:00:00 13.58056 C 72.7153 %
1652 08-10-2019 00:00:00 14.14097 C 74.1597 %
1653 09-10-2019 00:00:00 14.23472 C 74.0486 %
1654 10-10-2019 00:00:00 14.00139 C 74.0278 %
1655 11-10-2019 00:00:00 13.98819 C 74.3333 %
1656 12-10-2019 00:00:00 14.71181 C 71.7639 %
1657 13-10-2019 00:00:00 15.13472 C 74.9097 %
1658 14-10-2019 00:00:00 16.34722 C 74.3958 %
1659 15-10-2019 00:00:00 15.98125 C 73.6597 %
1660 16-10-2019 00:00:00 15.42708 C 73.2986 %
1661 17-10-2019 00:00:00 15.28056 C 74.7292 %
1662 18-10-2019 00:00:00 15.18681 C 74.6042 %
1663 19-10-2019 00:00:00 14.72222 C 74.1944 %
1664 20-10-2019 00:00:00 14.40278 C 81.1597 %
1665 21-10-2019 00:00:00 14.60625 C 80.9028 %
1666 22-10-2019 00:00:00 14.62153 C 77.5000 %
1667 23-10-2019 00:00:00 14.00764 C 76.3542 %
1668 24-10-2019 00:00:00 14.52986 C 78.0139 %
1669 25-10-2019 00:00:00 15.10694 C 74.8681 %
1670 26-10-2019 00:00:00 14.99028 C 74.2153 %
1671 27-10-2019 00:00:00 14.43933 C 74.9333 %
1672 28-10-2019 00:00:00 12.81389 C 71.1806 %
1673 29-10-2019 00:00:00 12.35556 C 71.6389 %
1674 30-10-2019 00:00:00 10.98611 C 65.8194 %
1675 31-10-2019 00:00:00 9.49097 C 64.1736 %
Sensor: Nr:Datum:Temp:Feuchte:
G-T/H 1676 01-11-2019 00:00:00 9.67014 C 69.2569 %
1677 02-11-2019 00:00:00 12.01181 C 74.2222 %
1678 03-11-2019 00:00:00 12.91806 C 75.4861 %
1679 04-11-2019 00:00:00 12.97569 C 75.6250 %
1680 05-11-2019 00:00:00 12.58194 C 75.9444 %
1681 06-11-2019 00:00:00 12.33194 C 75.6528 %
1682 07-11-2019 00:00:00 12.18403 C 75.3403 %
1683 08-11-2019 00:00:00 11.13611 C 70.1181 %
1684 09-11-2019 00:00:00 11.02014 C 69.0972 %
1685 10-11-2019 00:00:00 9.95556 C 68.3056 %
1686 11-11-2019 00:00:00 9.96458 C 71.2708 %
1687 12-11-2019 00:00:00 10.11458 C 72.0972 %
1688 13-11-2019 00:00:00 10.0125 C 72.4097 %
1689 14-11-2019 00:00:00 9.73403 C 68.3958 %
1690 15-11-2019 00:00:00 9.68819 C 69.4028 %
1691 16-11-2019 00:00:00 9.6125 C 68.7083 %
1692 17-11-2019 00:00:00 9.03819 C 69.9306 %
1693 18-11-2019 00:00:00 9.47361 C 72.2500 %
1694 19-11-2019 00:00:00 9.40903 C 72.0833 %
1695 20-11-2019 00:00:00 8.93333 C 71.1181 %
1696 21-11-2019 00:00:00 8.40559 C 70.8182 %
1697 22-11-2019 00:00:00 8.70556 C 72.6736 %
1698 23-11-2019 00:00:00 9.32569 C 73.0972 %
1699 24-11-2019 00:00:00 9.08333 C 72.0764 %
1700 25-11-2019 00:00:00 9.04375 C 73.5069 %
Sensor: Nr:Datum:Temp:Feuchte:
G-T/H 1701 26-11-2019 00:00:00 9.85139 C 74.9375 %
1702 27-11-2019 00:00:00 10.87847 C 75.9236 %
1703 28-11-2019 00:00:00 11.51597 C 75.5069 %
1704 29-11-2019 00:00:00 11.25208 C 72.3542 %
1705 30-11-2019 00:00:00 9.66736 C 68.9097 %
1706 01-12-2019 00:00:00 8.81806 C 70.1806 %
1707 02-12-2019 00:00:00 8.35278 C 70.5417 %
1708 03-12-2019 00:00:00 8.74514 C 73.3472 %
1709 04-12-2019 00:00:00 8.79375 C 71.8403 %
1710 05-12-2019 00:00:00 7.92014 C 69.1458 %
1711 06-12-2019 00:00:00 7.57292 C 70.7014 %
1712 07-12-2019 00:00:00 8.97014 C 74.4514 %
1713 08-12-2019 00:00:00 10.25694 C 75.1667 %
1714 09-12-2019 00:00:00 10.48403 C 74.1111 %
1715 10-12-2019 00:00:00 9.34028 C 71.5903 %
1716 11-12-2019 00:00:00 8.75694 C 73.1250 %
1717 12-12-2019 00:00:00 8.81042 C 73.2500 %
1718 13-12-2019 00:00:00 8.51944 C 72.1458 %
1719 14-12-2019 00:00:00 8.92153 C 73.0764 %
1720 15-12-2019 00:00:00 9.56736 C 74.6667 %
1721 16-12-2019 00:00:00 9.90486 C 75.1389 %
1722 17-12-2019 00:00:00 10.43333 C 75.4583 %
1723 18-12-2019 00:00:00 10.925 C 75.4861 %
1724 19-12-2019 00:00:00 9.76667 C 73.6667 %
1725 20-12-2019 00:00:00 9.69375 C 75.0208 %
Sensor: Nr:Datum:Temp:Feuchte:
G-T/H 1726 21-12-2019 00:00:00 10.06458 C 74.5833 %
1727 22-12-2019 00:00:00 10.1375 C 75.1528 %
1728 23-12-2019 00:00:00 10.30417 C 75.3681 %
1729 24-12-2019 00:00:00 10.12639 C 74.9375 %
1730 25-12-2019 00:00:00 10.24444 C 75.9653 %
1731 26-12-2019 00:00:00 9.92708 C 75.2569 %
1732 27-12-2019 00:00:00 9.69444 C 75.5833 %
1733 28-12-2019 00:00:00 8.37639 C 70.3194 %
1734 29-12-2019 00:00:00 7.21528 C 69.6875 %
1735 30-12-2019 00:00:00 7.16944 C 69.0486 %
1736 31-12-2019 00:00:00 6.93194 C 69.9722 %
1737 01-01-2020 00:00:00 7.23125 C 70.8403 %
1738 02-01-2020 00:00:00 7.28958 C 70.5417 %
1739 03-01-2020 00:00:00 8.41389 C 73.4792 %
1740 04-01-2020 00:00:00 9.12431 C 73.5833 %
1741 05-01-2020 00:00:00 9.42917 C 73.5694 %
1742 06-01-2020 00:00:00 9.33958 C 72.1181 %
1743 07-01-2020 00:00:00 8.74583 C 72.1111 %
1744 08-01-2020 00:00:00 9.18611 C 74.0347 %
1745 09-01-2020 00:00:00 10.3875 C 76.5556 %
1746 10-01-2020 00:00:00 11.02153 C 75.1389 %
1747 11-01-2020 00:00:00 10.04097 C 73.2014 %
1748 12-01-2020 00:00:00 9.14861 C 72.8958 %
1749 13-01-2020 00:00:00 9.30833 C 74.5139 %
1750 14-01-2020 00:00:00 9.78958 C 75.6597 %
Sensor: Nr:Datum:Temp:Feuchte:
G-T/H 1751 15-01-2020 00:00:00 10.59028 C 75.5972 %
1752 16-01-2020 00:00:00 10.82222 C 75.8264 %
1753 17-01-2020 00:00:00 9.87847 C 74.9583 %
1754 18-01-2020 00:00:00 9.38125 C 74.1597 %
1755 19-01-2020 00:00:00 8.86667 C 74.2569 %
1756 20-01-2020 00:00:00 8.75 C 73.1111 %
1757 21-01-2020 00:00:00 7.77014 C 69.7847 %
1758 22-01-2020 00:00:00 7.17083 C 69.5903 %
1759 23-01-2020 00:00:00 7.63472 C 70.8611 %
1760 24-01-2020 00:00:00 7.71319 C 70.9097 %
1761 25-01-2020 00:00:00 7.96806 C 71.5139 %
1762 26-01-2020 00:00:00 7.98611 C 72.6597 %
1763 27-01-2020 00:00:00 8.21875 C 74.7500 %
1764 28-01-2020 00:00:00 8.85833 C 75.1458 %
1765 29-01-2020 00:00:00 8.44306 C 74.0000 %
1766 30-01-2020 00:00:00 8.61389 C 74.8750 %
1767 31-01-2020 00:00:00 10.32431 C 76.3958 %
1768 01-02-2020 00:00:00 11.40556 C 76.3681 %
1769 02-02-2020 00:00:00 11.15903 C 73.6736 %
1770 03-02-2020 00:00:00 11.4875 C 75.0000 %
1771 04-02-2020 00:00:00 10.54722 C 71.2847 %
1772 05-02-2020 00:00:00 9.47153 C 71.9236 %
1773 06-02-2020 00:00:00 8.34306 C 70.5208 %
1774 07-02-2020 00:00:00 7.79097 C 69.9167 %
1775 08-02-2020 00:00:00 7.33681 C 70.6528 %
Sensor: Nr:Datum:Temp:Feuchte:
G-T/H 1776 09-02-2020 00:00:00 8.3 C 73.5694 %
1777 10-02-2020 00:00:00 9.82708 C 73.9167 %
1778 11-02-2020 00:00:00 9.18194 C 72.2431 %
1779 12-02-2020 00:00:00 8.72083 C 72.8750 %
1780 13-02-2020 00:00:00 8.20208 C 72.5208 %
1781 14-02-2020 00:00:00 8.84653 C 74.7500 %
1782 15-02-2020 00:00:00 8.93958 C 73.5903 %
1783 16-02-2020 00:00:00 11.3125 C 68.1111 %
1784 17-02-2020 00:00:00 11.77708 C 69.2778 %
1785 18-02-2020 00:00:00 10.43056 C 67.4028 %
1786 19-02-2020 00:00:00 9.94514 C 69.4583 %
1787 20-02-2020 00:00:00 9.73472 C 71.6875 %
1788 21-02-2020 00:00:00 9.56875 C 71.4931 %
1789 22-02-2020 00:00:00 9.25625 C 72.0625 %
1790 23-02-2020 00:00:00 10.38403 C 73.7708 %
1791 24-02-2020 00:00:00 10.40903 C 71.9792 %
1792 25-02-2020 00:00:00 10.88819 C 73.0278 %
1793 26-02-2020 00:00:00 10.02917 C 68.9306 %
1794 27-02-2020 00:00:00 9.17986 C 71.0208 %
1795 28-02-2020 00:00:00 8.31042 C 73.7708 %
1796 29-02-2020 00:00:00 9.28125 C 75.1597 %
1797 01-03-2020 00:00:00 9.80486 C 74.3403 %
1798 02-03-2020 00:00:00 9.67847 C 73.5833 %
1799 03-03-2020 00:00:00 9.53681 C 73.3194 %
1800 04-03-2020 00:00:00 8.95833 C 73.5139 %
Sensor: Nr:Datum:Temp:Feuchte:
G-T/H 1801 05-03-2020 00:00:00 9.15833 C 73.9861 %
1802 06-03-2020 00:00:00 9.48958 C 74.9514 %
1803 07-03-2020 00:00:00 9.38611 C 74.0556 %
1804 08-03-2020 00:00:00 9.99583 C 74.7292 %
1805 09-03-2020 00:00:00 10.54861 C 73.8819 %
1806 10-03-2020 00:00:00 10.28056 C 73.3819 %
1807 11-03-2020 00:00:00 11.72083 C 75.8889 %
1808 12-03-2020 00:00:00 12.29653 C 71.3333 %
1809 13-03-2020 00:00:00 11.08333 C 68.2014 %
1810 14-03-2020 00:00:00 10.32361 C 70.1250 %
1811 15-03-2020 00:00:00 10.87153 C 65.1667 %
1812 16-03-2020 00:00:00 10.71667 C 66.3819 %
1813 17-03-2020 00:00:00 11.47153 C 70.7292 %
1814 18-03-2020 00:00:00 11.42569 C 70.3472 %
1815 19-03-2020 00:00:00 12.36736 C 67.4583 %
1816 20-03-2020 00:00:00 12.53217 C 67.5944 %
1817 21-03-2020 00:00:00 11.55903 C 63.9097 %
1818 22-03-2020 00:00:00 9.66111 C 61.2292 %
1819 23-03-2020 00:00:00 8.67431 C 62.8819 %
1820 24-03-2020 00:00:00 8.04028 C 63.8611 %
1821 25-03-2020 00:00:00 7.80833 C 63.4722 %
1822 26-03-2020 00:00:00 8.04028 C 64.0208 %
1823 27-03-2020 00:00:00 9.19722 C 61.4583 %
1824 28-03-2020 00:00:00 10.48264 C 59.6944 %
1825 29-03-2020 00:00:00 10.14855 C 60.5362 %
Sensor: Nr:Datum:Temp:Feuchte:
G-T/H 1826 30-03-2020 00:00:00 8.62708 C 59.5417 %
1827 31-03-2020 00:00:00 8.58472 C 62.8194 %

Maximal/Minimal-Werte vom 01.04.2015 - 31.03.2020

Sensor Min Max Avg
Temp
(Aussen-T/F)
-18.7 °C
20-06-2016  11:38:17
46.2 °C
19-06-2017  18:30:17
11.12 °C
Feuchte
(Aussen-T/F)
20 %
05-04-2015  15:32:17
95 %
01-05-2015  02:34:17
38.8 %
Temp
(G-T/H)
-6 °C
01-12-2016  10:32:18
29.7 °C
26-07-2018  16:25:17
13.46 °C
Feuchte
(G-T/H)
25 %
29-06-2019  18:04:17
85 %
16-10-2017  15:03:17
66.91 %

Die Daten stammen von einer Davis Vantage Pro 2 Wetter-Station und werden unter Linux mit der Software wview2wettercgi und aufbereitet. Alle Angaben erfolgen ohne Gewähr für ihre Vollständigkeit oder Richtigkeit.
Kontakt: Rainer Krienke krienke@uni-koblenz.de . Meine Webseiten an der Uni Koblenz oder privat.
Version: $Revision: 0.78 $